[[{"header":{"parameterUnit":"m.s-1","parameterCategory":1,"la1":30.6,"la2":29.2853,"lo1":-89.7004,"lo2":-87.6739,"dy":0.0162,"dx":0.0183,"nx":112,"ny":82,"refTime":"2025-01-22T06:00:00:Z","depth":0,"parameterNumber":2,"parameterNumberName":"U-component_of_WINDS"},"data":[0.0,0.0,0.0,0.0,0.0,0.0,0.0,0.0,0.0,0.0,0.0,0.0,0.0,0.0,0.0,0.0,0.0,0.0,0.0,0.0,0.0,0.0,0.0,0.0,0.0,0.0,0.0,0.0,0.0,0.0,0.0,0.0,0.0,0.0,0.0,0.0,0.0,0.0,0.0,0.0,0.0,0.0,0.0,0.0,0.0,0.0,0.0,0.0,0.0,0.0,0.0,0.0,0.0,0.0,0.0,0.0,0.0,0.0,0.0,0.0,0.0,0.0,0.0,0.0,0.0,0.0,0.0,0.0,0.0,0.0,0.0,0.0,0.0,0.0,0.0,0.0,0.0,0.0,0.0,0.0,0.0,0.0,0.0,0.0,0.0,0.0,0.0,0.0,0.0,0.0,1.8663,2.0944,2.3235,2.419,2.319,2.2294,1.9951,1.559,0.0,0.0,0.0,0.0,0.0,0.0,0.0,0.0,0.0,0.0,0.0,0.0,0.0,0.0,0.0,0.0,0.0,0.0,0.0,0.0,0.0,0.0,0.0,0.0,0.0,0.0,0.0,0.0,0.0,0.0,0.0,0.0,0.0,0.0,0.0,0.0,0.0,0.0,0.0,0.0,0.0,0.0,0.0,0.0,0.0,0.0,0.0,0.0,0.0,0.0,0.0,0.0,0.0,0.0,0.0,0.0,0.0,0.0,0.0,0.0,0.0,0.0,0.0,0.0,0.0,0.0,0.0,0.0,0.0,0.0,0.0,0.0,0.0,0.0,0.0,0.0,0.0,0.0,0.0,0.0,0.0,0.0,0.0,0.0,0.0,0.0,0.0,0.0,0.0,0.0,0.0,0.0,0.0,0.0,0.0,0.0,0.0,0.0,0.0,0.0,0.0,0.0,0.0,0.0,1.8677,2.3324,2.4826,2.4849,2.3244,2.2299,1.9968,1.5663,0.0,0.0,0.0,0.0,0.0,0.0,0.0,0.0,0.0,0.0,0.0,0.0,0.0,0.0,0.0,0.0,0.0,0.0,0.0,0.0,0.0,0.0,0.0,0.0,0.0,0.0,0.0,0.0,0.0,0.0,0.0,0.0,0.0,0.0,0.0,0.0,0.0,0.0,0.0,0.0,0.0,0.0,0.0,0.0,0.0,0.0,0.0,0.0,0.0,0.0,0.0,0.0,0.0,0.0,0.0,0.0,0.0,0.0,0.0,0.0,0.0,0.0,0.0,0.0,0.0,0.0,0.0,0.0,0.0,0.0,0.0,0.0,0.0,0.0,0.0,0.0,0.0,0.0,0.0,0.0,0.0,0.0,0.0,0.0,0.0,0.0,0.0,0.0,0.0,0.0,0.0,0.0,0.0,0.0,0.0,0.0,0.0,0.0,0.0,0.0,0.0,0.0,0.0,1.874,2.0943,2.469,2.5467,2.5191,2.392,2.3014,2.0669,1.6386,1.5605,0.0,0.0,0.0,0.0,0.0,0.0,0.0,0.0,0.0,0.0,0.0,0.0,0.0,0.0,0.0,0.0,0.0,0.0,0.0,0.0,0.0,0.0,0.0,0.0,0.0,0.0,0.0,0.0,0.0,0.0,0.0,0.0,0.0,0.0,0.0,0.0,0.0,0.0,0.0,0.0,0.0,0.0,0.0,0.0,0.0,0.0,0.0,0.0,0.0,0.0,0.0,0.0,0.0,0.0,0.0,0.0,0.0,0.0,0.0,0.0,0.0,0.0,0.0,0.0,0.0,0.0,0.0,0.0,0.0,0.0,0.0,0.0,0.0,0.0,0.0,0.0,0.0,0.0,0.0,0.0,0.0,0.0,0.0,0.0,0.0,0.0,0.0,0.0,0.0,0.0,0.0,0.0,0.0,0.0,0.0,0.0,0.0,0.0,0.0,0.0,0.0,0.0,2.1399,2.3091,2.5441,2.5701,2.535,2.4475,2.3221,2.0825,1.6956,1.5459,0.0,0.0,0.0,0.0,0.0,0.0,0.0,0.0,0.0,0.0,0.0,0.0,0.0,0.0,0.0,0.0,0.0,0.0,0.0,0.0,0.0,0.0,0.0,0.0,0.0,0.0,0.0,0.0,0.0,0.0,0.0,0.0,0.0,0.0,0.0,0.0,0.0,0.0,0.0,0.0,0.0,0.0,0.0,0.0,0.0,0.0,0.0,0.0,0.0,0.0,0.0,0.0,0.0,0.0,0.0,0.0,0.0,0.0,0.0,0.0,0.0,0.0,0.0,0.0,0.0,0.0,0.0,0.0,0.0,0.0,0.0,0.0,0.0,0.0,0.0,0.0,0.0,0.0,0.0,0.0,0.0,0.0,0.0,0.0,0.0,0.0,0.0,0.0,0.0,0.0,0.0,0.0,0.0,0.0,0.0,0.0,0.0,0.0,0.0,0.0,0.0,0.0,2.1515,2.3714,2.5503,2.5707,2.5347,2.4466,2.212,1.9542,1.6865,1.4354,0.0,0.0,0.0,0.0,0.0,0.0,0.0,0.0,0.0,0.0,0.0,0.0,0.0,0.0,0.0,0.0,0.0,0.0,0.0,0.0,0.0,0.0,0.0,0.0,0.0,0.0,0.0,0.0,0.0,0.0,0.0,0.0,0.0,0.0,0.0,0.0,0.0,0.0,0.0,0.0,0.0,0.0,0.0,0.0,0.0,0.0,0.0,0.0,0.0,0.0,0.0,0.0,0.0,0.0,0.0,0.0,0.0,0.0,0.0,0.0,0.0,0.0,0.0,0.0,0.0,0.0,0.0,0.0,0.0,0.0,0.0,0.0,0.0,0.0,0.0,0.0,0.0,0.0,0.0,0.0,0.0,0.0,0.0,0.0,0.0,0.0,0.0,0.0,0.0,0.0,0.0,0.0,0.0,0.0,0.0,0.0,0.0,0.0,0.0,0.0,0.0,0.0,2.1519,2.3765,0.0,2.5696,2.5577,2.5239,2.3306,2.0786,1.7644,0.0,0.0,0.0,0.0,0.0,0.0,0.0,0.0,0.0,0.0,0.0,0.0,0.0,0.0,0.0,0.0,0.0,0.0,0.0,0.0,0.0,0.0,0.0,0.0,0.0,0.0,0.0,0.0,0.0,0.0,0.0,0.0,0.0,0.0,0.0,0.0,0.0,0.0,0.0,0.0,0.0,0.0,0.0,0.0,0.0,0.0,0.0,0.0,0.0,0.0,0.0,0.0,0.0,0.0,0.0,0.0,0.0,0.0,0.0,0.0,0.0,0.0,0.0,0.0,0.0,0.0,0.0,0.0,0.0,0.0,0.0,0.0,0.0,0.0,0.0,0.0,0.0,0.0,0.0,0.0,0.0,0.0,0.0,0.0,0.0,0.0,0.0,0.0,0.0,0.0,0.0,0.0,0.0,0.0,0.0,0.0,0.0,0.0,0.0,0.0,0.0,0.0,1.9374,2.1931,2.4078,0.0,2.5696,2.571,2.5699,2.3587,2.1006,1.8079,0.0,0.0,0.0,0.0,0.0,0.0,0.0,0.0,0.0,0.0,0.0,0.0,0.0,0.0,0.0,0.0,0.0,0.0,0.0,0.0,0.0,0.0,0.0,0.0,0.0,0.0,0.0,0.0,0.0,0.0,0.0,0.0,0.0,0.0,0.0,0.0,0.0,0.0,0.0,0.0,0.0,0.0,0.0,0.0,0.0,0.0,0.0,0.0,0.0,0.0,0.0,0.0,0.0,0.0,0.0,0.0,0.0,0.0,0.0,0.0,0.0,0.0,0.0,0.0,0.0,0.0,0.0,0.0,0.0,0.0,0.0,0.0,0.0,0.0,0.0,0.0,0.0,0.0,0.0,0.0,0.0,0.0,0.0,0.0,0.0,0.0,0.0,0.0,0.0,0.0,0.0,0.0,0.0,0.0,0.0,0.0,0.0,0.0,0.0,0.0,0.0,0.0,2.0251,2.2829,2.4733,2.5609,2.5701,2.5699,2.5699,2.2453,1.9701,0.0,0.0,0.0,0.0,0.0,0.0,0.0,0.0,0.0,0.0,0.0,0.0,0.0,0.0,0.0,0.0,0.0,0.0,0.0,0.0,0.0,0.0,0.0,0.0,0.0,0.0,0.0,0.0,0.0,0.0,0.0,0.0,0.0,0.0,0.0,0.0,0.0,0.0,0.0,0.0,0.0,0.0,0.0,0.0,0.0,0.0,0.0,0.0,0.0,0.0,0.0,0.0,0.0,0.0,0.0,0.0,0.0,0.0,0.0,0.0,0.0,0.0,0.0,0.0,0.0,0.0,0.0,0.0,0.0,0.0,0.0,0.0,0.0,0.0,0.0,0.0,0.0,0.0,0.0,0.0,0.0,0.0,0.0,0.0,0.0,0.0,0.0,0.0,0.0,0.0,0.0,0.0,0.0,0.0,0.0,0.0,0.0,0.0,0.0,0.0,0.0,0.0,0.0,2.0341,2.3359,2.5424,2.5662,2.5707,2.5703,2.5691,2.3567,2.0988,1.808,0.0,0.0,0.0,0.0,0.0,0.0,0.0,0.0,0.0,0.0,0.0,0.0,0.0,0.0,0.0,0.0,0.0,0.0,0.0,0.0,0.0,0.0,0.0,0.0,0.0,0.0,0.0,0.0,0.0,0.0,0.0,0.0,0.0,0.0,0.0,0.0,0.0,0.0,0.0,0.0,0.0,0.0,0.0,0.0,0.0,0.0,0.0,0.0,0.0,0.0,0.0,0.0,0.0,0.0,0.0,0.0,0.0,0.0,0.0,0.0,0.0,0.0,0.0,0.0,0.0,0.0,0.0,0.0,0.0,0.0,0.0,0.0,0.0,0.0,0.0,0.0,0.0,0.0,0.0,0.0,0.0,0.0,0.0,0.0,0.0,0.0,0.0,0.0,0.0,0.0,0.0,0.0,0.0,0.0,0.0,0.0,0.0,0.0,0.0,0.0,0.0,0.0,2.0384,2.3593,2.5699,2.5707,2.5691,2.5707,2.5697,2.4029,2.1653,1.8578,0.0,0.0,0.0,0.0,0.0,0.0,0.0,0.0,0.0,0.0,0.0,0.0,0.0,0.0,0.0,0.0,0.0,0.0,0.0,0.0,0.0,0.0,0.0,0.0,0.0,0.0,0.0,0.0,0.0,0.0,0.0,0.0,0.0,0.0,0.0,0.0,0.0,0.0,0.0,0.0,0.0,0.0,0.0,0.0,0.0,0.0,0.0,0.0,0.0,0.0,0.0,0.0,0.0,0.0,0.0,0.0,0.0,0.0,0.0,0.0,0.0,0.0,0.0,0.0,0.0,0.0,0.0,0.0,0.0,0.0,0.0,0.0,0.0,0.0,0.0,0.0,0.0,0.0,0.0,0.0,0.0,0.0,0.0,0.0,0.0,0.0,0.0,0.0,0.0,0.0,0.0,0.0,0.0,0.0,0.0,0.0,0.0,0.0,0.0,0.0,0.0,0.0,2.0371,2.3593,2.5698,2.5705,2.5684,2.5687,2.5671,2.4044,2.1925,1.9362,0.0,0.0,0.0,0.0,0.0,0.0,0.0,0.0,0.0,0.0,0.0,0.0,0.0,0.0,0.0,0.0,0.0,0.0,0.0,0.0,0.0,0.0,0.0,0.0,0.0,0.0,0.0,0.0,0.0,0.0,0.0,0.0,0.0,0.0,0.0,0.0,0.0,0.0,0.0,0.0,0.0,0.0,0.0,0.0,0.0,0.0,0.0,0.0,0.0,0.0,0.0,0.0,0.0,0.0,0.0,0.0,0.0,0.0,0.0,0.0,1.4806,0.0,0.0,0.0,0.0,0.0,0.0,0.0,0.0,0.0,0.0,0.0,0.0,0.0,0.0,0.0,0.0,0.0,0.0,0.0,0.0,0.0,0.0,0.0,0.0,0.0,0.0,0.0,0.0,0.0,0.0,0.0,0.0,0.0,0.0,0.0,0.0,0.0,0.0,0.0,0.0,0.0,2.0371,2.3589,2.5703,2.5694,2.5654,2.5609,2.5542,2.4497,2.2755,2.0212,1.821,0.0,0.0,0.0,0.0,0.0,0.0,0.0,0.0,0.0,0.0,0.0,0.0,0.0,0.0,0.0,0.0,0.0,0.0,0.0,0.0,0.0,0.0,0.0,0.0,0.0,0.0,0.0,0.0,0.0,0.0,0.0,0.0,0.0,0.0,0.0,0.0,0.0,0.0,0.0,0.0,0.0,0.0,0.0,0.0,0.0,0.0,0.0,0.0,0.0,0.0,0.0,0.0,0.0,0.0,0.0,0.0,0.0,0.0,0.0,0.0,1.6303,0.0,0.0,0.0,0.0,0.0,0.0,0.0,0.0,0.0,0.0,0.0,0.0,0.0,0.0,0.0,0.0,0.0,0.0,0.0,0.0,0.0,0.0,0.0,0.0,0.0,0.0,0.0,0.0,0.0,0.0,0.0,0.0,0.0,0.0,0.0,0.0,0.0,0.0,0.0,0.0,2.0952,2.3845,2.5698,2.5703,2.56,2.5535,2.5502,2.4617,2.3314,2.1613,1.9477,0.0,0.0,0.0,0.0,0.0,0.0,0.0,0.0,0.0,0.0,0.0,0.0,0.0,0.0,0.0,0.0,0.0,0.0,0.0,0.0,0.0,0.0,0.0,0.0,0.0,0.0,0.0,0.0,0.0,0.0,0.0,0.0,0.0,0.0,0.0,0.0,0.0,0.0,0.0,0.0,0.0,0.0,0.0,0.0,0.0,0.0,0.0,0.0,0.0,0.0,0.0,0.0,0.0,2.191,2.0444,2.0094,1.99,2.06,2.1883,2.0653,1.9865,1.9331,1.7692,0.0,0.0,0.0,0.0,0.0,0.0,0.0,0.0,0.0,0.0,0.0,0.0,0.0,0.0,0.0,0.0,0.0,0.0,0.0,0.0,0.0,0.0,0.0,0.0,2.194,2.1772,0.0,0.0,0.0,0.0,0.0,0.0,0.0,0.0,0.0,0.0,0.0,0.0,2.1767,2.4218,2.5705,2.5703,2.5581,2.549,2.5485,2.4703,2.3859,2.3047,2.0828,1.9137,0.0,0.0,0.0,0.0,0.0,0.0,0.0,0.0,0.0,0.0,0.0,0.0,0.0,0.0,0.0,0.0,0.0,0.0,0.0,0.0,0.0,0.0,0.0,0.0,0.0,0.0,0.0,0.0,0.0,0.0,0.0,0.0,1.4081,1.412,0.0,0.0,0.0,0.0,0.0,0.0,0.0,0.0,0.0,0.0,0.0,0.0,0.0,1.9748,2.2722,2.4035,2.4692,2.4692,2.4198,2.3167,2.1748,2.3195,2.4082,2.4517,2.4553,0.0,2.1182,2.0,0.0,0.0,0.0,0.0,0.0,0.0,0.0,0.0,0.0,0.0,0.0,0.0,0.0,0.0,0.0,0.0,0.0,0.0,0.0,0.0,0.0,0.0,2.5611,2.4977,2.5483,2.5808,0.0,2.1488,1.8823,1.8426,1.7225,0.0,0.0,0.0,0.0,0.0,0.0,0.0,2.2616,2.4551,2.5702,2.571,2.5585,2.5479,2.5418,2.5187,2.4675,2.3798,2.2776,2.1511,1.9931,1.8037,0.0,0.0,0.0,0.0,0.0,0.0,0.0,0.0,0.0,0.0,0.0,0.0,0.0,0.0,0.0,0.0,0.0,0.0,0.0,0.0,0.0,0.0,0.0,0.0,0.0,0.0,0.0,0.0,0.0,1.3179,1.498,1.5725,1.6385,1.6356,0.0,0.0,0.0,0.0,0.0,0.0,0.0,0.0,0.0,1.749,2.0712,2.3157,2.4564,2.4582,2.4582,2.4582,2.4599,2.4642,2.4779,2.5539,2.6214,2.6826,2.7038,2.6378,2.5034,2.3573,2.1541,1.9287,0.0,0.0,0.0,0.0,2.0169,2.1159,2.2087,2.3058,0.0,2.2183,0.0,0.0,0.0,0.0,0.0,0.0,0.0,0.0,0.0,0.0,0.0,2.6881,2.7199,2.7373,2.6989,2.5464,2.3315,0.0,1.968,1.8809,1.6525,0.0,0.0,0.0,0.0,2.15,2.3574,2.492,2.5689,2.5649,2.5518,2.5414,2.5339,2.5262,2.5053,2.4648,2.3828,2.3064,2.2364,2.0252,1.8374,0.0,0.0,0.0,0.0,0.0,0.0,0.0,0.0,0.0,0.0,0.0,0.0,0.0,0.0,0.0,0.0,0.0,0.0,0.0,0.0,0.0,0.0,0.0,0.0,0.0,0.0,0.0,0.0,1.4137,1.5748,1.6942,1.8199,1.8534,0.0,0.0,0.0,0.0,0.0,0.0,1.9713,2.1431,2.2338,2.2248,2.3814,2.504,2.5834,2.5763,2.5745,2.5764,2.5981,2.6682,2.7821,2.8164,2.8734,2.9436,2.9582,2.9378,2.8752,2.6515,2.4471,2.2719,2.238,2.2345,2.2546,2.3176,2.3724,2.4319,2.5601,2.6449,2.667,2.4773,0.0,2.3091,2.073,0.0,0.0,0.0,0.0,2.423,2.5747,2.6738,2.7522,2.8178,2.8333,2.8335,2.8335,2.8205,2.6963,0.0,2.2559,2.1861,1.9117,0.0,0.0,0.0,0.0,2.281,2.4512,2.5279,2.5648,2.5568,2.5441,2.534,2.5293,2.5228,2.5203,2.5195,2.4594,2.4251,2.4293,2.2287,2.0576,1.9331,0.0,0.0,0.0,0.0,0.0,0.0,0.0,0.0,0.0,0.0,0.0,0.0,0.0,0.0,0.0,0.0,0.0,0.0,0.0,0.0,0.0,0.0,0.0,0.0,0.0,0.0,0.0,0.0,0.0,1.8301,1.98,0.0,0.0,0.0,0.0,1.8452,2.1111,2.2967,2.3411,2.4143,2.4629,2.481,2.4678,2.6163,2.942,2.9247,2.9147,2.9147,2.9813,3.0143,3.0266,3.1622,3.2422,3.2752,3.2764,3.237,3.1431,2.7823,2.6491,2.6764,2.7313,2.7873,2.8375,2.8362,2.8014,2.7572,2.7717,2.7753,2.7712,2.7607,2.6525,2.5395,2.6044,2.5159,0.0,0.0,2.6494,2.671,2.7644,2.8526,2.9186,2.9224,2.9224,2.9224,2.9224,2.8635,2.8025,0.0,2.6403,2.5027,2.4083,0.0,2.1906,2.2781,2.2986,2.3662,2.5408,2.5613,2.5587,2.5504,2.5398,2.5305,2.5303,2.5228,2.5191,2.5191,2.5157,2.5152,2.5135,2.4282,2.2642,2.0192,1.8417,0.0,0.0,0.0,0.0,0.0,0.0,0.0,0.0,0.0,0.0,0.0,0.0,0.0,0.0,0.0,0.0,0.0,0.0,0.0,0.0,0.0,0.0,0.0,0.0,0.0,0.0,0.0,0.0,2.0695,2.1826,0.0,2.1128,2.2224,2.2843,2.252,2.4706,2.5981,2.582,2.6129,2.611,2.571,2.5963,2.6153,2.6355,3.0432,3.2488,3.2493,3.169,3.1426,3.1645,3.215,3.2609,3.3004,3.3004,3.2743,3.2254,3.0933,2.9898,2.9156,2.9454,2.9697,2.9901,2.9871,3.0083,3.0383,3.0413,3.076,3.1127,3.0558,2.9612,2.8734,2.9041,2.8758,2.8562,2.9696,3.0025,3.0238,3.1125,3.1572,3.1815,3.1814,3.1814,3.1659,3.109,3.075,3.0372,2.9818,2.8338,2.6893,2.6055,2.5886,2.5775,2.5582,2.6014,2.6618,2.7225,2.7288,2.7207,2.7055,2.6486,2.6118,2.6074,2.5551,2.5203,2.5195,2.5198,2.5231,2.5252,2.4985,2.4178,2.2735,2.048,1.7891,0.0,0.0,0.0,0.0,0.0,0.0,0.0,0.0,0.0,0.0,0.0,0.0,0.0,0.0,0.0,0.0,0.0,0.0,0.0,0.0,0.0,0.0,0.0,0.0,0.0,0.0,2.1206,2.2431,2.3764,2.4304,2.3606,2.4654,2.5415,2.5485,2.6674,2.7529,2.783,2.7922,2.7922,2.7904,2.8145,2.8124,2.7848,3.2065,3.4197,3.4179,3.2844,3.2327,3.2524,3.2674,3.292,3.3223,3.3544,3.3562,3.3408,3.3408,3.2821,3.1856,3.1472,3.1306,3.1306,3.1306,3.1684,3.2166,3.2166,3.2543,3.2943,3.2385,3.1815,3.133,3.1342,3.1391,3.1554,3.2087,3.229,3.2473,3.3052,3.3199,3.3209,3.3188,3.3188,3.3044,3.2453,3.2346,3.2083,3.1204,2.9666,2.8318,2.7736,2.7908,2.7932,2.7429,2.7811,2.8173,2.8164,2.8134,2.8028,2.7884,2.7338,2.6836,2.6496,2.596,2.5512,2.5214,2.519,2.5222,2.5252,2.5004,2.4466,2.364,2.1078,1.8947,1.7271,0.0,0.0,0.0,0.0,0.0,0.0,0.0,0.0,0.0,0.0,0.0,0.0,0.0,0.0,0.0,0.0,0.0,0.0,0.0,0.0,0.0,0.0,0.0,1.8424,2.1201,2.3273,2.3388,2.5484,2.6656,2.594,2.6432,2.6891,2.7084,2.7008,2.7713,2.9472,2.9524,3.0091,3.1393,3.1194,3.2128,3.4367,3.4269,3.4197,3.4179,3.3449,3.3086,3.3105,3.3507,3.3694,3.375,3.4659,3.5056,3.5075,3.5056,3.5075,3.4939,3.3527,3.2968,3.2987,3.2987,3.2994,3.2974,3.2974,3.2981,3.2981,3.306,3.3072,3.3084,3.3068,3.3121,3.318,3.317,3.3229,3.3275,3.3275,3.3276,3.3286,3.3285,3.3276,3.3267,3.3255,3.3236,3.2975,3.2115,3.0576,2.9403,2.9345,2.8692,2.8201,2.8257,2.8218,0.0,2.817,2.8053,2.7952,2.7879,2.78,2.7395,2.6548,2.6481,2.614,2.5298,2.5228,2.5192,2.5192,2.4455,2.363,2.2758,2.0265,1.8989,1.9039,0.0,0.0,0.0,0.0,0.0,0.0,0.0,0.0,0.0,0.0,0.0,0.0,0.0,0.0,0.0,0.0,0.0,0.0,0.0,0.0,0.0,1.9723,2.1568,2.175,2.2975,2.4358,2.569,2.6794,2.7435,2.7318,2.8614,2.9487,2.953,3.0089,3.0587,3.0987,3.1243,3.1645,3.2254,3.2398,3.3029,3.4227,3.4221,3.4197,3.4197,3.4675,3.489,3.4909,3.5642,3.5987,3.5987,3.6208,3.6389,3.6524,3.6462,3.6547,3.6539,3.5181,3.4635,3.4669,3.4796,3.4853,3.486,3.486,3.4873,3.4866,3.4882,3.4894,3.4894,3.4889,3.4911,3.4921,3.4911,3.493,3.493,3.4932,3.4981,3.502,3.5001,3.5057,3.4919,3.429,3.4135,3.3876,3.2958,3.2387,3.1671,3.0452,3.0056,2.9902,2.9872,2.9851,0.0,2.9778,2.974,2.9697,2.9627,2.9021,2.8549,2.8312,2.7139,2.6366,2.622,2.5587,2.5233,2.5264,2.5061,2.4523,2.3669,2.1769,2.0472,0.0,0.0,0.0,0.0,0.0,0.0,0.0,0.0,0.0,0.0,0.0,0.0,0.0,0.0,0.0,0.0,0.0,0.0,0.0,0.0,0.0,0.0,2.1917,2.3856,2.5332,2.5605,2.6174,2.7567,2.8349,2.8952,2.9324,3.0296,3.0872,3.0914,3.1409,3.1839,3.2144,3.2307,3.284,3.3836,3.3975,3.4465,3.5317,3.5311,3.5281,3.5237,3.5808,3.605,3.6043,3.6565,3.6814,0.0,3.6782,3.682,3.6924,3.6876,3.6929,0.0,0.0,0.0,0.0,0.0,3.6652,3.6633,3.6627,3.6607,3.6665,3.6646,3.6658,3.6651,3.6644,3.6667,3.669,3.669,3.6458,3.6187,3.6179,3.5927,3.5657,3.5669,3.5689,3.5582,3.5059,3.4972,3.473,3.3819,0.0,0.0,3.1844,3.1622,3.1536,3.1177,3.1081,3.0907,3.049,3.0394,3.0324,3.0272,2.98,2.9359,2.8989,2.807,0.0,0.0,0.0,2.5463,2.4734,2.4704,0.0,0.0,0.0,0.0,0.0,0.0,0.0,0.0,2.0914,2.0443,0.0,0.0,0.0,0.0,0.0,0.0,0.0,0.0,0.0,0.0,0.0,0.0,0.0,0.0,0.0,0.0,2.389,2.563,2.8503,2.8494,2.8443,2.9177,3.0013,3.0785,3.1469,3.1623,3.1728,3.1753,3.1918,3.2342,3.3087,0.0,0.0,0.0,0.0,3.5987,3.682,3.6789,3.6738,3.666,3.6779,3.6809,3.6747,3.6928,3.6991,3.6991,3.6991,3.6991,3.6991,3.6965,3.6991,3.7063,3.749,3.767,3.7704,3.7873,3.7938,3.7932,3.7767,0.0,0.0,3.7808,3.7822,3.7797,3.7797,3.7836,3.7904,3.7904,3.7386,3.6817,3.6817,3.6292,3.5736,3.5731,3.5828,3.5875,3.5762,3.5794,3.5581,3.4698,3.4574,3.4342,3.3442,3.3175,3.288,3.2203,3.1999,3.1626,3.0861,3.065,3.0554,3.0499,0.0,0.0,2.9281,2.9225,2.8509,2.6797,2.6726,2.602,2.4402,2.4345,2.4345,2.4345,2.5163,2.6011,2.6881,2.7662,2.8136,2.8161,2.3449,2.2527,0.0,0.0,0.0,0.0,0.0,0.0,0.0,0.0,0.0,0.0,0.0,0.0,0.0,0.0,0.0,2.3635,2.6115,2.8122,2.8814,2.9844,3.0655,3.0901,3.1506,3.2001,3.2271,3.2963,3.3434,3.3434,3.4146,3.4589,3.4595,3.5248,3.5726,3.6019,3.6019,3.6168,3.6343,3.6436,3.6463,3.6463,0.0,0.0,3.7761,3.8536,3.888,3.888,3.8763,3.8718,3.8718,3.8664,3.8742,3.885,3.7785,3.749,3.7577,3.7122,3.6964,3.6867,3.6219,3.5988,3.6001,3.6001,3.6001,3.6001,3.6001,3.6015,0.0,3.6028,3.5913,3.5791,3.5791,3.6183,3.6581,3.664,3.7226,3.7568,3.6811,3.6696,3.6463,3.5488,3.5333,3.5307,3.5065,3.3948,3.3012,3.2762,3.2692,3.2602,3.2371,3.2338,3.2305,3.2305,3.2305,3.1979,3.1142,3.0471,2.9615,2.8561,2.7915,2.7386,2.6974,2.7029,2.7041,2.7041,2.7225,2.7758,2.8632,2.8837,2.9322,2.996,2.7611,2.7171,0.0,0.0,0.0,0.0,0.0,0.0,0.0,0.0,0.0,0.0,0.0,2.0345,2.2008,0.0,2.4999,2.6242,2.8122,2.971,3.0588,3.1367,3.1897,3.1957,3.2218,3.2739,3.3625,3.4219,3.4696,3.4981,3.5469,3.569,3.5567,3.5923,3.6307,3.674,3.6787,3.7048,3.7529,3.7587,3.7569,3.7511,3.8581,3.9073,3.911,4.0141,4.0614,4.0614,4.0522,4.0495,4.0495,4.0467,4.0592,4.0734,4.0094,3.947,3.891,3.8575,3.8535,3.8584,3.8157,3.8017,3.8045,3.8036,3.805,3.8045,3.8045,3.8045,3.8045,3.8045,3.7453,3.6804,3.6804,3.6491,3.6157,3.6189,3.6562,3.6876,3.6813,3.6856,3.6876,3.6768,3.6813,3.6691,3.6183,3.5463,3.4639,3.3737,3.3577,3.3378,3.2903,3.279,3.2747,3.2747,3.2747,3.2594,3.2173,3.1369,3.0726,3.0337,2.95,2.9046,2.9002,2.9027,2.9058,2.9058,2.9509,2.9979,3.0447,3.0914,3.139,3.1816,3.0955,3.0568,0.0,0.0,0.0,0.0,0.0,0.0,0.0,0.0,1.8298,2.0105,2.1442,2.2811,2.4476,2.5874,2.731,2.881,2.9856,3.0958,3.2334,3.2765,3.2966,3.2975,3.2966,3.3552,3.4979,3.5265,3.5569,3.6058,3.6271,3.6362,3.6321,3.6395,3.6809,3.7534,3.7729,3.8212,3.9013,3.9178,3.9191,3.9111,4.003,4.0433,4.0422,4.1381,4.181,4.181,4.181,4.181,4.181,4.181,4.1919,4.2058,4.229,4.1679,4.069,4.0572,4.0652,4.0771,4.0404,4.04,4.0521,4.0203,4.0217,4.0323,4.0149,4.0092,4.0092,4.0092,3.9119,3.8084,3.8084,3.717,3.6238,3.6252,3.6367,3.6579,3.6887,3.7011,3.7198,3.7651,3.7803,3.7642,3.7046,3.6991,3.6473,3.4764,3.4475,3.4186,3.3473,3.3293,3.32,3.3215,3.32,3.3142,3.2955,3.2201,3.1766,3.1814,3.1155,3.0759,3.0759,3.0759,3.0772,3.0785,3.1532,3.2035,3.2273,3.3139,3.3693,3.3926,3.4061,3.3587,1.5275,1.4286,1.3956,1.6182,1.6414,1.7098,0.0,0.0,2.168,2.4129,2.4771,2.5374,2.6918,2.7981,2.8905,2.9801,3.1228,3.2316,3.2551,3.3771,3.4641,3.4715,3.4687,3.4979,3.5875,3.5908,3.5962,3.6095,3.6711,3.707,3.707,3.7699,3.8071,3.8194,3.89,3.9319,3.9443,4.0372,4.0836,4.0836,4.1255,4.1441,4.1441,4.1689,4.181,4.181,4.181,4.181,4.181,4.181,4.181,4.1846,4.2115,4.22,4.2115,4.1757,4.1627,4.1447,3.995,3.9908,4.0273,3.8772,3.8811,3.9292,3.8522,3.8291,3.8291,3.8291,3.8157,3.8022,3.8022,3.843,3.8888,3.894,3.9494,3.9629,3.8175,3.7899,3.7726,3.6978,3.6858,3.7046,3.7655,3.782,3.7276,3.5542,3.5259,3.524,3.5144,3.5062,3.5028,3.5096,3.5047,3.4711,3.3915,3.3047,3.2573,3.2588,3.2492,3.242,3.242,3.242,3.2465,3.2516,3.2617,3.3081,3.3923,3.4863,3.572,3.6513,3.7327,3.6833,1.7913,1.7568,0.0,0.0,1.9297,2.0276,2.2736,2.3113,2.354,2.5633,2.6402,2.7039,2.8145,2.9387,3.0501,0.0,3.2811,3.3872,3.3982,3.4522,3.508,3.5575,3.5677,3.6036,3.6842,3.6826,3.6979,3.7467,3.8159,3.8601,3.8601,3.9316,3.9753,3.9753,4.0081,4.0263,4.0263,4.0693,4.0943,4.0943,4.1714,4.2063,4.2081,4.276,4.3133,4.3268,4.3268,4.3296,4.3381,4.3381,4.3444,4.3578,4.3662,4.3862,4.3937,4.2794,4.246,4.247,4.1758,4.172,4.1893,4.12,4.12,4.1431,4.1085,4.0969,4.0969,4.0969,4.0604,4.0085,3.9585,3.9373,3.9176,3.8705,3.8854,3.9032,3.8787,3.8782,3.8821,3.8896,3.8896,3.8719,3.807,3.7973,3.743,3.571,3.6286,3.6901,3.6901,3.6901,3.6868,3.6853,3.6838,3.6462,3.5588,3.5645,3.5285,3.4278,3.473,3.4768,3.424,3.4202,3.4481,3.5057,3.5119,3.5565,3.6479,3.6858,3.7266,3.771,3.8081,3.8151,1.9313,0.0,0.0,2.0396,2.1481,2.2691,2.375,2.4345,2.5095,2.6606,2.7336,2.8082,2.9326,3.0465,3.1597,3.2682,3.3963,3.4877,3.499,3.5145,3.5436,3.6022,3.619,3.6567,3.7374,3.7571,3.7948,3.8752,3.9258,3.9662,3.9914,4.0461,4.0805,4.0805,4.1042,4.1204,4.1204,4.1405,4.1549,4.1549,4.239,4.2783,4.2802,4.3632,4.4097,4.4237,4.4237,4.4325,4.4458,4.4458,4.4524,4.4685,4.4726,4.4862,4.4944,4.3866,4.3635,4.3758,4.3508,4.3585,4.3701,4.3258,4.3258,4.3393,4.3162,4.3104,4.3104,4.3104,4.2643,4.2008,4.1373,4.0777,4.0181,3.9565,3.9219,3.9161,3.9546,3.945,3.9469,4.0046,4.0162,3.9854,3.8854,3.8681,3.8277,3.7065,3.7945,3.8464,3.7723,3.7839,3.7954,3.7909,3.7909,3.7644,3.7018,3.7533,3.736,3.6102,3.6669,3.6727,3.6044,3.6025,3.6328,3.7026,3.7084,3.7415,3.8059,3.8357,3.8547,3.8634,3.8855,3.946,0.0,0.0,1.906,2.0745,2.2166,2.3389,2.4284,2.5488,2.6655,2.7496,2.7679,2.8434,3.0789,3.1265,3.184,3.3495,3.4394,3.4916,3.499,3.5593,3.6076,3.6095,3.6095,3.6442,0.0,3.799,3.8692,3.9513,3.9537,3.9883,4.0698,4.0805,4.0805,4.0805,4.1677,4.2166,4.2166,4.3004,4.3424,4.3424,4.3649,4.3767,4.3767,4.391,4.4048,4.4109,4.4109,4.4188,4.4314,4.4314,4.4314,4.4325,4.453,4.4565,4.4572,4.5039,4.5343,4.5393,4.4566,4.4816,4.5259,4.3624,4.3624,4.4124,4.3335,4.3104,4.3104,4.3104,4.3085,4.3047,4.3028,4.3008,4.2989,4.2951,4.2297,4.147,4.0642,3.9835,3.9296,3.9315,3.9335,3.9565,4.0296,4.0412,4.0412,4.0354,4.0442,3.9615,3.7079,3.741,3.7909,3.7901,3.7894,3.7894,3.7862,3.7881,3.7881,3.7824,3.7843,3.7843,3.7824,3.7824,3.784,3.7851,3.7871,3.792,3.8007,3.8968,3.9468,3.9487,4.0392,4.1296,0.0,0.0,2.0579,2.2392,2.338,2.4279,2.5911,2.6812,2.7537,2.8384,2.8549,2.8975,3.0332,3.0961,3.1858,3.3532,3.4814,3.5864,3.6578,3.6753,3.6857,3.6936,3.6918,0.0,0.0,0.0,0.0,3.9615,4.013,4.0753,4.1677,4.2276,4.2603,4.2603,4.2913,4.3059,4.3059,4.3351,4.3497,4.3497,4.3566,4.36,4.36,4.3667,4.3749,4.3897,4.3961,4.4036,4.4188,4.4266,4.4285,4.4314,4.4364,4.4439,4.4511,4.4701,4.4915,4.508,4.5131,4.5336,4.5509,4.4932,4.4932,4.5105,4.4836,4.4759,4.4759,4.4759,4.4759,4.4624,4.4047,4.3893,4.3758,4.3239,4.2874,4.2585,4.2297,4.2008,4.1816,4.1816,4.1816,4.1546,4.0642,4.0489,4.0315,3.9777,4.0211,4.028,3.9394,3.9509,3.9687,3.9696,3.9696,3.945,3.8831,3.9288,3.9135,3.7977,3.8434,3.8508,3.792,3.7901,3.8166,3.875,3.877,3.9054,3.9662,4.0048,4.025,4.0319,4.1253,4.1888,1.9994,2.0661,2.1625,2.3078,2.4104,2.5162,2.6684,2.7464,2.8038,2.8453,2.8553,2.8833,2.9622,3.0137,3.1181,3.344,3.4814,3.6029,3.7253,3.7339,3.7296,3.7326,3.7339,3.7418,0.0,0.0,0.0,4.0068,4.0857,4.1695,4.2622,4.3188,4.3497,4.3497,4.3497,4.3497,4.3497,4.3497,4.3497,4.3497,4.3497,4.3497,4.3497,4.3497,4.36,4.3804,4.3869,4.3961,4.4079,4.4177,4.4177,4.4177,4.4177,4.4248,4.4336,4.443,4.4565,4.4726,4.5263,4.5476,4.5457,4.5568,4.5586,4.5586,4.5586,4.5586,4.5586,4.5586,4.5586,4.547,4.4913,4.4759,4.4624,4.4124,4.3758,4.3528,4.3528,4.3297,4.3104,4.3104,4.3104,4.2739,4.1623,4.1431,4.1239,4.0739,4.1135,4.1266,4.0641,4.0559,4.0564,4.0554,4.0573,4.0312,3.9707,4.0181,4.0011,3.8908,3.9346,3.9404,3.885,3.8831,3.908,3.965,3.965,4.0088,4.095,4.1027,4.1266,4.1641,4.2276,4.2759,2.05,2.1399,2.2132,2.2945,2.4461,2.5962,2.6588,2.7504,2.8124,2.7752,2.7724,2.797,0.0,0.0,3.0003,3.3238,3.4431,3.5528,3.7211,3.7467,3.7473,0.0,0.0,0.0,0.0,0.0,0.0,4.0823,0.0,4.2585,4.3442,4.3497,4.3497,4.3497,4.3497,4.3497,4.3497,4.3497,4.3497,4.3497,4.3497,4.3497,4.3497,4.3497,4.36,4.3771,4.3804,4.3883,4.4005,4.4005,4.4005,4.4005,4.4005,4.4005,4.4048,4.4308,4.4402,4.4465,4.5007,4.518,4.5222,4.5476,4.5568,4.5586,4.5586,4.5586,4.5586,4.5586,4.5586,4.5586,4.5586,4.5586,4.5586,4.5586,4.497,4.4374,4.4374,4.3778,4.322,4.322,4.3181,4.3162,4.3162,4.3124,4.3104,4.3104,4.3104,4.2489,4.0835,4.0623,4.0623,4.0623,4.0623,4.0623,4.0623,4.0623,4.0623,4.0623,4.0623,4.0623,4.0623,4.0623,4.0623,4.0623,4.0623,4.1046,4.1873,4.1932,4.2411,4.3305,4.3407,4.3932,2.1451,2.2136,2.2955,2.4616,2.538,2.6038,2.7186,2.7405,2.7407,2.7477,2.7177,2.6979,0.0,0.0,0.0,3.257,3.4485,0.0,3.8915,3.9132,0.0,4.0006,0.0,4.0156,4.0357,4.1156,0.0,0.0,4.204,4.2585,4.3442,4.3497,4.3497,4.3497,4.3497,4.3497,4.3497,4.3497,4.3497,4.3497,4.3497,4.3497,4.3497,4.3497,4.3532,4.3566,4.3634,4.3753,4.3851,4.3897,4.3992,4.4135,4.4135,4.4135,4.4165,4.4296,4.4277,4.4325,4.47,4.4862,4.4896,4.4985,4.514,4.5302,4.5302,4.5438,4.5586,4.5586,4.5586,4.5586,4.5586,4.5586,4.5586,4.5586,4.5432,4.5259,4.5259,4.5105,4.4951,4.4951,4.4432,4.3989,4.3989,4.3508,4.3104,4.3104,4.3104,4.2931,4.2489,4.2431,4.2431,4.2431,4.2431,4.2431,4.2431,4.2431,4.2431,4.2431,4.2431,4.2431,4.2431,4.2431,4.2431,4.2431,4.2431,4.2547,4.2777,4.2838,4.298,4.3241,4.4002,4.4502,2.2182,2.3088,2.4115,2.5178,2.5681,2.6131,2.6946,2.6957,2.671,2.6517,2.6307,0.0,0.0,0.0,0.0,0.0,0.0,0.0,3.9452,3.9786,4.0046,0.0,4.1357,0.0,4.1577,4.2326,4.2818,0.0,4.275,4.2986,4.3461,4.3497,4.3497,4.3497,4.3497,4.3497,4.3497,4.3497,4.3497,4.3497,4.3497,4.3497,4.3497,4.3497,4.3532,4.3566,0.0,4.3734,4.3883,4.3929,4.4055,4.4244,4.4244,4.4244,4.4244,4.4304,4.4274,4.4255,4.444,4.4532,4.4576,4.4857,4.5004,4.5096,4.5243,4.5362,4.5495,4.5622,4.5622,4.5586,4.5586,4.5586,4.5586,4.5586,4.5586,4.5586,4.5586,4.5586,4.5586,4.5586,4.5201,4.4874,4.4874,4.4489,4.4201,4.4201,4.4201,4.4201,4.4201,4.3566,4.3104,4.3104,4.3104,4.3104,4.3104,4.3104,4.3104,4.3104,4.3102,4.3099,4.3099,4.3134,4.315,4.315,4.315,4.3134,4.3099,4.3146,4.3351,4.3732,4.4382,4.4853,2.2942,2.4116,2.5178,2.5227,2.5723,2.6216,2.6311,2.63,2.6056,2.5383,0.0,2.5315,2.5237,2.6691,2.8879,3.1953,0.0,3.6153,3.9479,4.0033,4.0364,4.1232,4.2014,4.2451,4.2451,4.3075,4.3497,4.3497,4.3497,4.3497,4.3497,4.3497,4.3497,4.3497,4.3497,4.3497,4.3497,4.3497,4.3497,4.3497,4.3497,4.3497,4.3497,4.3497,4.3513,4.3582,0.0,0.0,4.3974,4.3974,4.4116,4.4285,4.4314,4.4314,4.4314,4.4314,4.4314,4.4314,4.4314,4.4255,4.4304,4.4821,4.4905,4.4872,4.518,4.5243,4.5302,4.5568,4.5586,4.5568,4.5586,4.5586,4.5586,4.5586,4.5586,4.5586,4.5586,4.5586,4.5586,4.5586,4.5586,4.5586,4.5586,4.5586,4.5586,4.5586,4.5586,4.5586,4.5586,4.4335,4.3431,4.3431,4.3431,4.3431,4.3431,4.3431,4.3431,4.3431,4.3426,4.3439,4.3439,4.3489,4.3524,4.3524,4.3524,4.3489,4.3439,4.3439,4.3836,4.4581,4.4722,4.5176,2.4414,2.4911,2.519,2.5872,2.612,2.6164,2.6025,2.5698,0.0,0.0,0.0,2.4431,2.4412,2.6284,2.8668,3.125,0.0,0.0,0.0,0.0,4.1442,0.0,0.0,0.0,0.0,0.0,0.0,0.0,0.0,4.3497,4.3497,4.3497,4.3497,4.3497,4.3497,4.3497,4.3497,4.3497,4.3497,4.3497,4.3497,4.3497,4.3497,4.3497,4.3532,4.3532,4.3532,0.0,4.3818,4.3897,4.4055,4.4314,4.4373,4.4383,4.4383,4.444,4.4401,4.4314,4.4354,4.4314,4.4214,4.4314,4.443,4.4493,4.4572,4.4726,4.4943,4.5222,4.5282,4.5322,4.5531,4.5586,4.5586,4.5586,4.5586,4.5586,4.5586,4.5586,4.5586,4.5586,4.5586,4.5586,4.5586,4.5586,4.5586,4.5586,4.5586,4.5586,4.5586,4.5336,4.5163,4.5163,4.5163,4.5163,4.5163,4.5163,4.5163,4.5163,4.518,4.5161,4.5161,4.518,4.5178,4.5178,4.5178,4.518,4.5161,4.5208,4.5333,4.5484,4.5595,4.5769,2.4812,2.5357,2.5702,2.6085,2.5922,2.5614,2.5562,0.0,0.0,0.0,0.0,2.4192,2.4209,0.0,0.0,0.0,0.0,0.0,0.0,0.0,0.0,0.0,0.0,0.0,0.0,0.0,0.0,0.0,0.0,4.3497,4.3497,4.3497,4.3497,4.3497,4.3497,4.3497,4.3497,4.3497,4.3497,4.3497,4.3497,4.3497,4.3497,4.3497,4.3497,4.3497,4.3497,0.0,4.3804,4.3883,4.4023,4.4188,4.4296,4.4344,4.4344,4.4373,4.4344,4.4314,4.4344,4.4285,4.4184,4.4184,4.4237,4.4317,4.4457,4.4565,4.4701,4.4985,4.503,4.5052,4.5322,4.54,4.5419,4.5568,4.5586,4.5586,4.5586,4.5586,4.5586,4.5586,4.5586,4.5586,4.5586,4.5586,4.5586,4.5586,4.5586,4.5586,4.5586,4.5586,4.5586,4.5586,4.5586,4.5586,4.5586,4.5586,4.5586,4.5586,4.564,4.5657,4.5657,4.5654,4.5651,4.5651,4.5651,4.5423,4.4966,4.5015,4.5028,4.504,4.5156,4.5473,2.4809,2.5587,2.622,2.622,2.5675,2.5195,2.5201,2.4664,0.0,0.0,2.4209,2.4192,2.4228,0.0,0.0,0.0,0.0,0.0,0.0,0.0,0.0,0.0,0.0,0.0,0.0,0.0,0.0,0.0,0.0,0.0,4.3497,4.3497,4.3497,4.3497,4.3497,4.3497,4.3497,4.3497,4.3497,4.3497,4.3497,4.3497,4.3497,4.3497,4.3497,4.3497,4.3497,0.0,0.0,4.38,4.391,4.403,4.4177,4.4255,4.4255,4.4285,4.4285,4.4304,4.4304,4.4244,4.4153,4.4153,4.4153,4.4195,4.4393,4.443,4.4457,4.4726,4.4751,4.4776,4.5052,4.5118,4.518,4.5438,4.5568,4.5586,4.5586,4.5586,4.5586,4.5586,4.5586,4.5586,4.5586,4.5586,4.5586,4.5586,4.5586,4.5586,4.5586,4.5586,4.5586,4.5586,4.5586,4.5586,4.5586,4.5586,4.5586,4.5586,4.564,4.5693,4.5693,4.5687,4.5684,4.5684,4.5684,4.534,4.4655,4.4669,4.4685,4.4677,4.4805,4.5221,2.4825,2.5587,2.622,2.622,2.5831,2.5435,2.5258,0.0,0.0,2.4238,2.4209,2.421,2.4266,2.5004,0.0,0.0,0.0,0.0,0.0,0.0,0.0,0.0,0.0,0.0,0.0,0.0,0.0,0.0,0.0,0.0,4.3497,4.3497,4.3497,4.3497,4.3497,4.3497,4.3497,4.3497,4.3497,4.3497,4.3497,4.3497,4.3497,4.3446,4.3446,4.3497,4.3446,0.0,0.0,4.3631,4.3646,4.3744,4.3955,4.4036,4.4036,4.4237,4.4255,4.4214,4.4214,4.4135,4.4005,4.4005,4.4005,4.4036,4.4048,4.4048,4.4091,4.4374,4.4438,4.4493,4.4751,4.4825,4.4896,4.518,4.5419,4.5586,4.5586,4.5586,4.5586,4.5586,4.5586,4.5586,4.5586,4.5586,4.5586,4.5586,4.5586,4.5586,4.5586,4.5586,4.5586,4.5586,4.5586,4.5586,4.5586,4.5586,4.5586,4.5586,4.5622,4.5622,4.5622,4.5603,4.5603,4.5603,4.5603,4.5565,4.5488,4.5552,4.5584,4.5565,4.5655,4.5764,2.4877,2.5622,2.622,2.622,2.5514,2.489,2.5136,0.0,2.3898,2.4147,2.4209,2.4209,2.4229,2.4505,2.537,0.0,2.8165,2.9958,3.3972,0.0,0.0,0.0,0.0,0.0,0.0,0.0,0.0,0.0,0.0,0.0,4.3497,4.3497,4.3497,4.3497,4.3497,4.3497,4.3497,4.3497,4.3463,4.3446,4.3463,4.3463,4.3304,4.3376,4.3376,4.3322,4.3286,0.0,0.0,4.3391,4.3442,4.3477,4.3649,4.3749,4.3883,4.3979,4.4042,4.4085,4.4085,4.4036,4.4005,4.4005,4.4005,4.4005,4.4005,4.4005,4.4017,4.4121,4.4151,4.4221,4.4493,4.4676,4.4868,4.5137,4.5263,4.54,4.5568,4.5586,4.5586,4.5586,4.5586,4.5586,4.5586,4.5586,4.5586,4.5586,4.5586,4.5586,4.5586,4.5586,4.5586,4.5586,4.5586,4.5586,4.5586,4.5586,4.5586,4.5586,4.5586,4.5586,4.5586,4.5586,4.5586,4.5586,4.5586,4.5586,4.5586,4.5637,4.5921,4.6491,4.6503,4.6834,2.458,2.5291,2.5903,2.6118,2.5379,2.4697,0.0,2.4346,2.3692,2.4113,2.419,2.4209,2.4192,2.4191,2.4743,0.0,2.6878,2.8305,3.2082,3.346,0.0,0.0,0.0,0.0,0.0,0.0,0.0,0.0,0.0,0.0,4.3497,4.3497,4.3497,4.3497,4.3497,4.3497,4.3497,4.3497,4.3463,4.3394,4.3446,4.3393,4.3214,4.3269,4.3269,4.3214,4.3178,0.0,0.0,4.3232,4.3232,4.325,4.3375,4.3497,4.3618,4.3686,4.3818,4.3961,4.3961,4.3974,4.4005,4.4005,4.4005,4.4005,4.4005,4.4005,4.4061,4.4302,4.4575,4.4805,4.498,4.5273,4.5533,4.5726,4.5862,4.6049,4.6244,4.6336,4.6408,4.6408,4.6371,4.6371,4.6371,4.6354,4.6336,4.6336,4.6144,4.6067,4.6297,4.6124,4.6086,4.6297,4.6124,4.5874,4.5605,4.5586,4.5586,4.5586,4.5586,4.5586,4.5586,4.5586,4.5586,4.5586,4.5586,4.572,4.597,4.597,4.6448,4.7328,4.7328,4.7687,2.3786,2.4496,2.5205,2.6002,2.559,2.5027,0.0,2.4581,2.4036,2.417,2.419,2.4209,2.4192,2.4192,2.4763,2.6425,2.7361,2.8993,3.2155,3.3918,0.0,0.0,0.0,0.0,0.0,0.0,0.0,0.0,0.0,0.0,4.3497,4.3497,4.3497,4.3497,4.3497,4.3497,4.3497,4.3497,4.3463,4.3394,4.3394,4.334,4.3214,4.3123,4.3123,0.0,0.0,0.0,0.0,4.3123,4.3104,4.3104,4.3178,4.3196,4.3232,4.3428,4.3652,4.3804,4.3804,4.3883,4.4005,4.4005,4.4005,4.4005,4.4005,4.4005,4.4191,4.5026,4.5908,4.6568,4.6587,4.684,4.7061,4.7089,4.75,4.7872,4.7872,4.8067,4.8265,4.8265,4.8212,4.8176,4.8176,4.8123,4.8067,4.8067,4.7413,4.7182,4.7971,4.7375,4.7201,4.799,4.7355,4.6547,4.5663,4.5586,4.5586,4.5586,4.5586,4.5586,4.5586,4.5586,4.5586,4.5586,4.5586,4.6009,4.6894,4.6894,4.7298,4.8086,4.8086,4.8141,2.3086,2.3976,2.477,2.4991,2.4675,2.4392,2.4721,2.4383,2.4054,2.417,2.419,2.4209,2.4192,2.4191,2.511,2.7896,2.8533,0.0,0.0,0.0,0.0,0.0,0.0,0.0,0.0,0.0,0.0,0.0,0.0,0.0,4.3497,4.3497,4.3497,4.3497,4.3497,4.3497,4.3497,4.3497,4.3428,4.3251,4.3359,4.3269,4.3013,4.3086,4.3049,0.0,0.0,0.0,0.0,4.2975,4.2938,4.2956,4.2975,4.3087,4.3196,4.3428,4.3652,4.3804,4.3897,4.3974,4.4005,4.4005,4.4395,4.4878,4.4941,4.4941,4.5045,4.5927,4.6387,4.6605,4.6663,4.6738,4.6869,4.7071,4.7216,4.7447,4.7829,4.7971,4.8068,4.8214,4.7733,4.7311,4.7314,4.6796,4.6394,4.6394,4.6163,4.6105,4.6355,4.6163,4.6105,4.6355,4.6163,4.6144,4.6471,4.5932,4.5855,4.6451,4.649,4.674,4.7298,4.7317,4.7317,4.7317,4.7317,4.7432,4.7721,4.7721,4.8163,4.899,4.899,4.9335,0.0,2.3311,2.4177,2.4448,2.4298,2.4155,2.4521,2.4332,2.4094,2.417,2.419,2.4209,2.4209,2.419,2.498,2.7359,2.7919,0.0,0.0,0.0,0.0,0.0,0.0,0.0,0.0,0.0,0.0,0.0,0.0,0.0,4.3497,4.3497,4.3497,4.3497,4.3497,4.3497,4.3497,4.3497,4.3428,4.3305,4.3305,4.3178,4.2994,4.3012,4.2994,0.0,0.0,0.0,0.0,4.2882,4.2882,4.2882,4.2882,4.2975,4.3123,4.3304,4.3497,4.3719,4.3865,4.3961,4.4061,4.4408,4.5108,4.5853,4.6214,4.6294,4.6355,4.6857,4.7262,4.7569,4.7647,4.766,4.7754,4.7964,4.807,4.8196,4.8519,4.8745,4.8911,4.901,4.8642,4.8255,4.793,4.7412,4.6913,4.6586,4.6278,4.6201,4.649,4.6278,4.6201,4.6509,4.6259,4.6317,4.6855,4.6105,4.5817,4.6374,4.6413,4.6778,4.7605,4.7663,4.7798,4.8086,4.8105,4.8259,4.8586,4.8586,4.8702,4.8913,4.8913,4.922,0.0,2.2478,2.3384,2.4198,2.4254,2.4212,2.4498,2.436,0.0,2.419,2.419,2.4226,2.4281,2.4245,2.4558,2.5665,2.6374,0.0,0.0,0.0,0.0,0.0,0.0,0.0,0.0,0.0,0.0,0.0,0.0,0.0,4.3497,4.3497,4.3497,4.3497,4.3497,4.3497,4.3497,4.3497,4.3463,4.3394,4.3251,4.3196,4.3104,4.2975,4.292,0.0,0.0,0.0,0.0,4.2882,4.2882,4.2882,4.2882,4.2882,4.292,4.3123,4.3322,4.3532,4.3719,4.3952,4.4278,4.5233,4.6065,4.6848,4.7648,4.7853,4.7783,4.7809,4.8438,4.9135,4.9197,4.9244,4.9308,4.9459,4.9655,4.9776,4.974,5.0135,5.0486,5.0425,5.049,5.0297,4.9622,4.9355,4.8952,4.8144,4.7394,4.7163,4.7836,4.7278,4.7086,4.7836,4.7259,4.6836,4.6894,4.6105,4.5624,4.5682,4.574,4.6163,4.7048,4.7144,4.749,4.8182,4.8125,4.8509,4.9317,4.9317,4.8894,4.8105,4.8105,4.8144,1.9446,0.0,2.2193,2.2349,2.2898,2.3543,0.0,2.4124,0.0,0.0,0.0,2.4372,2.4937,2.4572,2.5273,2.8562,2.9237,3.0461,3.3688,0.0,0.0,0.0,0.0,0.0,0.0,0.0,0.0,0.0,0.0,4.3497,4.3497,4.3497,4.3497,4.3497,4.3446,4.3446,4.3497,4.3497,4.3463,4.3394,4.3376,4.3305,4.3178,4.3086,4.3049,0.0,0.0,0.0,4.2882,4.2882,4.2882,4.2882,4.2882,4.2882,4.292,4.3123,4.3322,4.3532,4.3719,4.4355,4.5307,4.6773,4.7452,4.7802,4.8438,4.8218,4.7865,4.8584,4.8919,4.9135,4.9197,4.9211,4.9211,4.9262,4.9457,4.9693,4.9891,5.0206,5.0446,5.0606,4.9623,4.8929,4.9336,4.8336,4.7432,4.7221,4.7028,4.674,4.624,4.6009,4.597,4.6163,4.6009,4.6182,4.6836,4.6105,4.5874,4.6547,4.7163,4.7894,4.8779,4.9452,4.9586,4.9106,4.8432,4.8202,4.8413,4.8413,4.8298,4.8105,4.8105,4.8469,1.8272,1.9887,2.1718,2.1753,2.2446,2.33,0.0,0.0,0.0,0.0,0.0,0.0,2.4719,0.0,0.0,0.0,2.9428,0.0,0.0,0.0,0.0,0.0,0.0,0.0,0.0,0.0,0.0,0.0,0.0,4.3497,4.3497,4.3463,4.3428,4.3428,4.3376,4.3358,4.3497,4.3463,4.3446,4.3394,4.334,4.3251,4.316,4.3031,4.3012,0.0,0.0,0.0,4.2882,4.2882,4.2882,4.2882,4.2882,4.2882,4.292,4.3123,4.3286,4.3429,4.4057,4.5216,4.6597,4.7504,4.8129,4.8572,4.89,4.8646,4.8351,4.8885,4.9015,4.903,4.915,4.915,4.9164,4.9197,4.9321,4.9469,4.9721,4.9968,5.023,5.0425,4.9856,4.9355,4.9375,4.8644,4.7913,4.7509,4.7798,4.7875,4.7394,4.7336,4.7336,4.7336,4.699,4.6932,4.7413,4.7028,4.6951,4.7432,4.7855,4.849,4.9356,4.9471,4.9279,4.8817,4.8336,4.7932,4.7548,4.7932,4.7913,4.7567,4.7932,4.8373,1.7756,1.96,2.1635,2.162,2.2406,2.3282,0.0,0.0,0.0,0.0,0.0,0.0,0.0,0.0,0.0,0.0,0.0,0.0,0.0,0.0,0.0,0.0,0.0,0.0,0.0,0.0,0.0,0.0,0.0,4.3497,4.3497,4.3446,4.3394,4.3394,4.3269,4.3286,4.3444,4.3411,4.3376,4.3376,4.3251,4.3178,4.3104,4.2994,4.2938,0.0,0.0,0.0,4.2882,4.2882,4.2882,4.2882,4.2882,4.2882,4.292,4.3087,4.3269,4.3597,4.4779,4.6292,4.772,4.7899,4.8472,4.9101,4.9068,4.8996,4.8909,4.8909,4.8909,4.8909,4.9049,4.9068,4.9083,4.9131,4.9179,4.9276,4.9457,4.9712,4.9955,5.0264,5.0495,5.047,4.9989,4.9836,4.9529,4.8798,4.9317,4.974,4.9606,4.9606,4.9606,4.9606,4.8933,4.8548,4.8682,4.8682,4.874,4.8875,4.8509,4.8682,4.9548,4.8759,4.8298,4.8298,4.8163,4.7759,4.7086,4.7778,4.7759,4.7105,4.7932,4.8298,1.8334,2.0096,2.175,2.0975,2.2122,2.3544,0.0,0.0,0.0,0.0,0.0,0.0,0.0,0.0,0.0,0.0,0.0,0.0,0.0,0.0,0.0,0.0,0.0,0.0,0.0,0.0,0.0,0.0,0.0,4.3497,4.3497,4.3446,4.3394,4.3394,4.3196,4.316,4.3251,4.3251,4.3251,4.3251,4.3214,4.3196,4.3178,4.3086,4.3067,0.0,0.0,4.2882,4.2882,4.2882,4.2882,4.2882,4.2882,4.2882,4.2882,4.292,4.356,4.462,4.6447,4.7358,4.7813,4.85,4.8903,4.9068,4.8962,4.8909,4.8909,4.8909,4.8909,4.8909,4.8909,4.8909,4.8943,4.8943,4.916,4.9384,4.9396,4.9627,5.0039,5.0749,5.0563,5.0673,5.1973,5.1806,5.1471,5.1356,5.1433,5.1279,5.0587,5.0491,5.0491,5.0491,5.0375,5.0587,5.126,5.1337,5.1645,5.2375,5.0394,4.9586,5.0452,4.9663,4.9202,4.9202,4.849,4.8048,4.7932,4.8048,4.8048,4.7952,4.8798,4.9202,1.8217,1.9881,2.1597,2.1485,2.3132,0.0,0.0,0.0,0.0,0.0,0.0,0.0,0.0,0.0,0.0,0.0,0.0,0.0,0.0,0.0,0.0,0.0,0.0,0.0,0.0,0.0,0.0,0.0,0.0,0.0,4.3497,4.3358,4.3305,4.3305,4.3105,4.3031,4.316,4.305,4.305,4.316,4.316,4.3105,4.305,4.2994,4.2994,4.2994,0.0,4.2882,4.2882,4.2882,4.2882,4.2882,4.2882,4.2882,4.2974,4.3465,4.4617,4.6048,4.6966,4.7646,4.8216,4.8692,4.8892,4.8946,4.8909,4.8909,4.8909,4.8909,4.8909,4.8909,4.8909,4.8909,4.8909,4.8909,4.9027,4.9305,4.9915,5.0146,5.0503,5.1471,5.1611,5.1787,5.257,5.2647,5.2606,5.2606,5.301,5.3164,5.2799,5.2741,5.2741,5.2741,5.2337,5.2202,5.2568,5.2606,5.2779,5.3164,5.2106,5.1414,5.1356,5.0971,5.0548,5.0106,4.9702,4.949,4.951,4.9952,5.0164,5.0183,5.1048,5.1452,1.8577,2.0058,2.17,0.0,0.0,0.0,0.0,0.0,0.0,0.0,0.0,0.0,0.0,0.0,0.0,0.0,0.0,0.0,0.0,0.0,0.0,0.0,0.0,0.0,0.0,0.0,0.0,0.0,0.0,0.0,4.3463,4.3322,4.3251,4.3214,4.305,4.3013,4.3123,4.3013,4.3031,4.3104,4.3067,4.2994,4.2882,4.2882,4.2882,4.2882,4.2882,4.2882,4.2882,4.2882,4.2882,4.2882,4.2882,4.3047,4.3356,4.4249,4.5603,4.7036,4.7277,4.7868,4.8569,4.8697,4.8787,4.8822,4.8874,4.8909,4.8909,4.8909,4.9039,4.9185,4.8964,4.8909,4.8946,4.915,4.9187,4.948,5.0553,5.0806,5.1096,5.2102,5.2551,5.2894,5.3155,5.3307,5.3409,5.347,5.4068,5.4491,5.4491,5.4664,5.478,5.478,5.4184,5.3799,5.3799,5.3799,5.3799,5.3799,5.3414,5.2895,5.2241,5.2202,5.1914,5.1298,5.1279,5.1279,5.1279,5.1895,5.2202,5.2222,5.2895,5.3203,2.0142,2.1391,0.0,0.0,0.0,0.0,0.0,0.0,0.0,0.0,0.0,0.0,0.0,0.0,0.0,0.0,0.0,0.0,0.0,0.0,0.0,0.0,0.0,0.0,0.0,0.0,0.0,0.0,0.0,0.0,4.3429,4.3394,4.334,4.3196,4.3214,4.316,4.3214,4.316,4.3142,4.3104,4.2994,4.29,4.2882,4.2882,4.2882,4.2882,4.2882,4.2882,4.2882,4.2882,4.2882,4.2882,4.2882,4.3429,4.4286,4.5182,4.6154,4.7128,4.7919,4.8365,4.8605,4.8587,4.875,4.8909,4.8909,4.8909,4.8909,4.8909,4.9536,5.0014,4.9148,4.8909,4.9094,4.9837,5.0023,5.0265,5.1155,5.1341,5.1583,5.2419,5.285,5.3421,5.4473,5.4272,5.4049,5.4374,5.4453,5.4491,5.4491,5.5145,5.5607,5.5607,5.5549,5.5511,5.5511,5.5511,5.5511,5.5511,5.4068,5.3164,5.3106,5.3106,5.3087,5.3029,5.3029,5.3029,5.3029,5.3087,5.3106,5.3106,5.3164,5.3203,1.9917,2.1182,0.0,0.0,0.0,0.0,0.0,0.0,0.0,0.0,0.0,0.0,0.0,0.0,0.0,0.0,0.0,0.0,0.0,0.0,0.0,0.0,0.0,0.0,0.0,0.0,0.0,0.0,0.0,0.0,4.3463,4.3411,4.3394,4.334,4.3251,4.3251,4.334,4.3251,4.3214,4.3287,4.3142,4.3087,4.3087,4.3087,4.3068,4.2994,4.2994,4.2994,4.2882,4.2882,4.2882,4.2936,4.3444,4.4247,4.5219,4.6059,4.6978,4.7864,4.8214,4.8382,4.855,4.8605,4.8714,4.8857,4.8874,4.8909,4.9002,4.961,4.9963,5.0077,4.9726,5.0077,5.0577,5.0841,5.0915,5.1138,5.1974,5.2159,5.2382,5.32,5.3641,5.3973,5.4406,5.4221,5.4033,5.4168,5.3925,5.3683,5.3683,5.3953,5.4357,5.4895,5.5395,5.5703,5.5703,5.5703,5.5703,5.5703,5.5107,5.4741,5.4741,5.4741,5.4741,5.4741,5.4741,5.4741,5.4741,5.4741,5.4741,5.4741,5.4741,5.4741,2.009,2.1185,0.0,0.0,0.0,0.0,0.0,0.0,0.0,0.0,0.0,0.0,0.0,0.0,0.0,0.0,0.0,0.0,0.0,0.0,0.0,0.0,0.0,0.0,0.0,0.0,0.0,0.0,0.0,0.0,0.0,4.3446,4.3411,4.3394,4.3322,4.3322,4.3411,4.3322,4.3322,4.3411,4.3322,4.3268,4.3214,4.3214,4.3142,4.3104,4.3104,4.2994,4.2882,4.2882,4.2882,4.2973,4.3788,4.4701,4.5674,4.6476,4.7435,4.8286,4.8306,4.8401,4.8494,4.8569,4.8697,4.8822,4.8874,4.8909,4.9076,4.9963,5.0373,5.0598,5.0822,5.1174,5.1507,5.1714,5.1788,5.1992,5.281,5.2977,5.3144,5.3701,5.4,5.4177,5.4281,5.3967,5.3734,5.3834,5.3398,5.3039,5.3039,5.3142,5.3433,5.403,5.4838,5.5318,5.5318,5.5549,5.5703,5.5703,5.5703,5.5703,5.5703,5.5703,5.5703,5.5703,5.5703,5.5703,5.5703,5.5703,5.5703,5.5703,5.5703,5.5703,2.1027,0.0,0.0,0.0,0.0,0.0,0.0,0.0,0.0,0.0,0.0,0.0,0.0,0.0,0.0,0.0,0.0,0.0,0.0,0.0,0.0,0.0,0.0,0.0,0.0,0.0,0.0,0.0,0.0,0.0,0.0,4.3463,4.3463,4.3394,4.3481,4.3497,4.3497,4.3497,4.3497,4.3497,4.3497,4.3393,4.3196,4.3196,4.316,4.3104,4.3104,4.2994,4.2882,4.2882,4.2882,4.2973,4.3788,4.4681,4.5633,4.6494,4.7414,4.8226,4.8286,4.8401,4.8494,4.8569,4.8697,4.8822,4.8874,4.8909,4.9076,4.9875,5.0782,5.1691,5.2438,5.2011,5.1621,5.2419,5.2605,5.2828,5.3627,5.3813,5.3813,5.3813,5.3813,5.3907,5.4246,5.3568,5.3118,5.3459,5.3038,5.2704,5.2704,5.2996,5.3222,5.3222,5.3991,5.4511,5.4511,5.5241,5.5703,5.5703,5.5703,5.5703,5.5703,5.5703,5.5703,5.5703,5.5703,5.5703,5.5703,5.5703,5.5703,5.5703,5.5703,5.5703,2.0639,0.0,0.0,0.0,0.0,0.0,0.0,0.0,0.0,0.0,0.0,0.0,0.0,0.0,0.0,0.0,0.0,0.0,0.0,0.0,0.0,0.0,0.0,0.0,0.0,0.0,0.0,0.0,0.0,0.0,0.0,4.3497,4.3497,4.3463,4.3497,4.3497,4.3497,4.3497,4.3497,4.3497,4.3497,4.3463,4.341,4.341,4.3322,4.3178,4.3178,4.3068,4.2882,4.2882,4.2882,4.3027,4.4403,4.521,4.5747,4.7135,4.791,4.8286,4.8306,4.8401,4.8494,4.8569,4.8697,4.8822,4.8874,4.8909,4.9206,5.0652,5.1247,5.1786,5.3219,5.333,5.3144,5.3385,5.3441,5.3515,5.3757,5.3813,5.3813,5.3813,5.3813,5.3832,5.3926,5.3414,5.3019,5.315,5.2691,5.2414,5.266,5.3533,5.4107,5.4107,5.4857,5.5338,5.5338,5.5549,5.5703,5.5703,5.5703,5.5703,5.5703,5.5703,5.5703,5.5703,5.5703,5.5703,5.5703,5.5703,5.5703,5.5703,5.5703,5.5703,0.0,0.0,0.0,0.0,0.0,0.0,0.0,0.0,0.0,0.0,0.0,0.0,0.0,0.0,0.0,0.0,0.0,0.0,0.0,0.0,0.0,0.0,0.0,0.0,0.0,0.0,0.0,0.0,0.0,0.0,0.0,4.3497,4.3497,4.3497,4.3497,4.3497,4.3497,4.3497,4.3497,4.3497,4.3497,4.3497,4.3497,4.3463,4.3358,4.3214,4.3123,4.3013,4.2882,4.2882,4.2882,4.3063,4.4714,4.5467,4.5765,4.7466,4.8169,4.8286,4.8267,4.8363,4.8457,4.855,4.8624,4.8679,4.875,4.8839,4.9208,5.0914,5.1416,5.1769,5.3479,5.3851,5.3813,5.3813,5.3813,5.3813,5.3813,5.3813,5.3813,5.3813,5.3813,5.3813,5.3813,5.3534,5.3323,5.3323,5.2956,5.2656,5.2525,5.3368,5.393,5.3804,5.466,5.5222,5.5222,5.5511,5.5703,5.5703,5.5703,5.5703,5.5703,5.5703,5.5703,5.5703,5.5703,5.5703,5.5703,5.5703,5.5703,5.5703,5.5703,5.5703,0.0,0.0,0.0,0.0,0.0,0.0,0.0,0.0,0.0,0.0,0.0,0.0,0.0,0.0,0.0,0.0,0.0,0.0,0.0,0.0,0.0,0.0,0.0,0.0,0.0,0.0,0.0,0.0,0.0,0.0,0.0,4.3479,4.3497,4.3497,4.3497,4.3497,4.3497,4.3497,4.3497,0.0,4.3497,4.3497,4.3497,4.3446,4.334,4.3214,4.2975,4.2882,4.2882,4.2882,4.2882,4.3083,4.481,4.5485,4.5724,4.7524,4.8187,4.8226,4.8267,4.8306,4.8306,4.8457,4.8513,4.8494,4.8569,4.8697,4.912,5.075,5.1306,5.1732,5.3347,5.3774,5.3813,5.3813,5.3813,5.3813,5.3813,5.3813,5.3813,5.3813,5.3813,5.3813,5.3813,5.3813,5.3831,5.3905,5.3785,5.344,5.271,5.3187,5.3418,5.3072,5.4028,5.4662,5.4607,5.528,5.5703,5.5703,5.5703,5.5703,5.5703,5.5703,5.5703,5.5703,5.5703,5.5703,5.5703,5.5703,5.5703,5.5703,5.5703,5.5703,0.0,0.0,0.0,0.0,0.0,0.0,0.0,0.0,0.0,0.0,0.0,0.0,0.0,0.0,0.0,0.0,0.0,0.0,0.0,0.0,0.0,0.0,0.0,0.0,0.0,0.0,0.0,0.0,0.0,0.0,4.3582,4.3513,4.3497,4.3497,4.3497,4.3463,4.3411,4.3463,4.3463,0.0,4.3463,4.3497,4.3497,4.3497,4.3393,4.3214,4.2975,4.2882,4.2882,4.2882,4.2882,4.3083,4.481,4.5506,4.5804,4.7545,4.8208,4.8267,4.8306,4.8306,4.8306,4.8457,4.8513,4.8494,4.8569,4.8623,4.8993,5.0656,5.1137,5.1545,5.3269,5.3734,5.3716,5.3774,5.3813,5.3813,5.3813,5.3813,5.3813,5.3813,5.3813,5.3813,5.3813,5.3813,5.4055,5.4801,5.5001,5.5262,5.5819,5.6128,5.6178,5.574,5.5906,5.5897,5.547,5.5588,5.5703,5.5703,5.5703,5.5703,5.5703,5.5703,5.5703,5.5703,5.5703,5.5703,5.5703,5.5703,5.5703,5.5703,5.5703,5.5703,0.0,0.0,0.0,0.0,0.0,0.0,0.0,0.0,0.0,0.0,0.0,0.0,0.0,0.0,0.0,0.0,0.0,0.0,0.0,0.0,0.0,0.0,0.0,0.0,0.0,0.0,0.0,0.0,0.0,4.3667,4.3615,4.3548,4.3513,4.3497,4.3497,4.3497,4.3446,4.3497,4.3463,4.3394,4.3446,4.3428,4.3358,4.3358,4.3286,4.316,4.2975,4.2882,4.2882,4.2882,4.2882,4.3083,4.4869,4.5583,4.5842,4.7604,4.8286,4.8306,4.8306,4.8306,4.8306,4.8363,4.8381,4.8381,4.842,4.8458,4.8827,5.0523,5.1042,5.1486,5.3191,5.3598,5.3598,5.3658,5.3736,5.3813,5.3813,5.3813,5.3813,5.3813,5.3813,5.3813,5.3813,5.4167,5.4632,5.5137,5.5805,5.6375,5.6611,5.7031,5.7118,5.6664,5.653,5.6391,5.6117,5.5849,5.5703,5.5703,5.5703,5.5703,5.5703,5.5703,5.5703,5.5703,5.5703,5.5703,5.5703,5.5703,5.5703,5.5703,5.5703,5.5703,0.0,0.0,0.0,0.0,0.0,0.0,0.0,0.0,0.0,0.0,0.0,0.0,0.0,0.0,0.0,0.0,0.0,0.0,0.0,0.0,0.0,0.0,0.0,0.0,0.0,0.0,0.0,0.0,0.0,4.3753,4.3634,4.3615,4.3548,4.3479,4.3497,4.3497,4.3497,4.3532,4.3463,4.3429,4.3429,4.334,4.3251,4.3214,4.3142,4.3104,4.2938,4.2882,4.2882,4.2882,4.2882,4.3083,4.4889,4.5603,4.5824,4.7624,4.8306,4.8306,4.8306,4.8306,4.8288,4.8141,4.8046,4.8007,4.8066,4.8104,4.8471,5.037,5.0964,5.1429,5.3034,5.3459,5.3481,5.3481,5.3658,5.3774,5.3774,5.3774,5.3774,5.3813,5.3924,5.4092,5.426,5.4912,5.5491,5.5566,5.6459,5.7073,5.691,5.7312,5.7498,5.7079,5.6917,5.6813,5.6714,5.6376,5.6145,5.6145,5.6145,5.6145,5.6145,5.6145,5.6069,5.5934,5.578,5.5703,5.5703,5.5703,5.5703,5.5703,5.5703,5.5703,0.0,0.0,0.0,0.0,0.0,0.0,0.0,0.0,0.0,0.0,0.0,0.0,0.0,0.0,0.0,0.0,0.0,0.0,0.0,0.0,0.0,0.0,0.0,0.0,0.0,0.0,0.0,0.0,4.3929,4.3851,4.3771,4.3667,4.3548,4.3479,4.3497,4.3497,4.3497,4.3548,4.3548,4.3497,4.3497,4.3446,4.3376,4.3251,4.3142,4.3104,4.2938,4.2882,4.2882,4.2882,4.2882,4.3083,4.4889,4.5603,4.5824,4.7624,4.8306,4.8306,4.8306,4.8306,4.8196,4.7498,4.7241,4.7241,4.7241,4.7278,4.7774,5.0123,5.0842,5.1231,5.2895,5.3318,5.3359,5.3481,5.3598,5.3695,5.3695,5.3695,5.3734,5.3774,5.4465,5.5267,5.6108,5.6313,5.6594,5.7118,5.7248,5.7659,5.8784,5.8706,5.8508,5.8446,5.8288,5.8049,5.7565,5.7772,5.7953,5.7953,5.7953,5.7953,5.7953,5.7953,5.7607,5.6838,5.6069,5.5703,5.5703,5.5703,5.5703,5.5703,5.5703,5.5703,0.0,0.0,0.0,0.0,0.0,0.0,0.0,0.0,0.0,0.0,0.0,0.0,0.0,0.0,0.0,0.0,0.0,0.0,0.0,0.0,0.0,0.0,0.0,0.0,0.0,0.0,0.0,0.0,4.3974,4.3897,4.3804,4.3753,4.3652,4.3479,4.3497,4.3532,4.3548,4.3582,4.3548,4.3497,4.3426,4.3339,4.3215,4.316,4.3141,4.3104,4.2938,4.2882,4.2882,4.2882,4.2882,4.3083,4.4889,4.5603,4.5824,4.7624,4.8306,4.8306,4.8306,4.8306,4.8177,4.737,4.7094,4.7056,4.7094,4.7094,4.7569,5.0065,5.0802,5.1169,5.2808,5.3254,5.3272,5.3314,5.3396,5.3499,5.3637,5.3716,5.3923,5.4484,5.5323,5.6127,5.6538,5.7024,5.7417,5.7492,5.8034,5.8615,5.9121,5.9003,5.8803,5.8698,5.8409,5.8193,5.8144,5.802,5.8059,5.8277,5.83,5.83,5.83,5.83,5.8127,5.7742,5.6857,5.6184,5.5703,5.6184,5.6415,5.6434,5.6934,5.7165,0.0,0.0,0.0,0.0,0.0,0.0,0.0,0.0,0.0,0.0,0.0,0.0,0.0,0.0,0.0,0.0,0.0,0.0,0.0,0.0,0.0,0.0,0.0,0.0,0.0,0.0,0.0,0.0,4.3974,4.3929,4.3804,4.3771,4.3686,4.3497,4.3532,4.3566,4.3667,4.3667,4.3649,4.36,4.3461,4.3304,4.316,4.3123,4.3086,4.3049,4.2938,4.2882,4.2882,4.2882,4.2882,4.3083,4.4889,4.5603,4.5824,4.7624,4.8306,4.8306,4.8306,4.8267,4.8102,4.7094,4.6891,4.6962,4.6837,4.6891,4.7549,5.0083,5.0802,5.1169,5.2784,5.3206,5.3206,5.323,5.3484,5.3736,5.3915,5.4071,5.4502,5.5697,5.6482,5.7005,5.7248,5.7866,5.8241,5.7997,5.8709,5.9272,5.9101,5.9042,5.8884,5.8698,5.8463,5.8405,5.8679,5.841,5.8402,5.8779,5.8822,5.8846,5.8934,5.8934,5.8838,5.8607,5.7973,5.7203,5.6357,5.7011,5.7319,5.7338,5.7992,5.83,0.0,0.0,0.0,0.0,0.0,0.0,0.0,0.0,0.0,0.0,0.0,0.0,0.0,0.0,0.0,0.0,0.0,0.0,0.0,0.0,0.0,0.0,0.0,0.0,0.0,0.0,0.0,0.0,4.3961,4.3883,4.3804,4.3667,4.36,4.3479,4.3548,4.3667,4.3804,4.3851,4.3865,4.3865,4.3682,4.3461,4.3267,4.3232,4.3087,4.292,4.2882,4.2882,4.2882,4.2882,4.2882,4.3083,4.4889,4.5603,4.5824,4.7624,4.8306,4.8306,4.8306,4.8247,4.797,4.6452,4.6433,4.6852,4.6159,4.6507,4.7589,5.0105,5.0802,5.1169,5.2784,5.3206,5.3206,5.3277,5.4072,5.4846,5.4927,5.5023,5.5697,5.7492,5.7885,5.8184,5.9009,5.9215,5.9234,5.9215,5.9253,5.9215,5.9024,5.8964,5.8843,5.8698,5.8949,5.914,5.9177,5.9511,5.9836,6.016,6.0207,6.036,6.0666,6.0666,6.0281,5.9454,5.9396,5.8973,5.8165,5.8204,5.8223,5.8223,5.828,5.83,0.0,0.0,0.0,0.0,0.0,0.0,0.0,3.2893,3.4941,3.4854,3.563,0.0,0.0,0.0,0.0,0.0,0.0,0.0,0.0,0.0,0.0,0.0,0.0,0.0,0.0,0.0,0.0,0.0,0.0,4.3929,4.3883,4.3786,4.3686,4.3548,4.3582,4.3701,4.3851,4.3929,4.3961,4.3897,4.3832,4.3615,4.3303,4.3286,4.3142,4.2882,4.2882,4.2882,4.2882,4.2882,4.2882,4.3083,4.4889,4.5603,4.5824,4.7624,4.8306,4.8306,4.8247,4.8226,4.8004,4.685,4.6704,4.6943,4.6689,4.6818,4.7627,5.0105,5.0802,5.1169,5.2784,5.3206,5.3206,5.3277,5.3621,5.4112,5.4791,5.6012,5.7192,5.7866,5.8465,5.8934,5.9253,5.929,5.929,5.929,5.929,5.9215,5.8964,5.8964,5.8884,5.8698,5.8803,5.8947,5.9178,5.9325,5.9571,5.995,6.0179,6.0349,6.0475,6.0685,6.0646,6.0339,6.0319,5.9665,5.83,5.8819,5.9069,5.9088,5.9646,5.9896,0.0,0.0,0.0,0.0,0.0,0.0,0.0,0.0,3.3369,3.3775,3.4648,3.5525,3.626,0.0,0.0,0.0,0.0,0.0,0.0,0.0,0.0,0.0,0.0,0.0,0.0,0.0,0.0,0.0,0.0,0.0,4.3865,4.3753,4.3686,4.3582,4.3582,4.3701,4.3915,4.3942,4.3942,4.3897,4.3883,4.3701,4.3356,4.3286,4.316,4.2938,4.2938,4.2882,4.2882,4.2938,4.2938,4.3083,4.4927,4.5641,4.5824,4.7624,4.8286,4.8247,4.8226,4.8166,4.7959,4.708,4.7046,4.7307,4.709,4.7258,4.7976,5.0178,5.0802,5.1169,5.2784,5.3206,5.3327,5.3691,5.3846,5.4168,5.5161,5.6459,5.7548,5.7866,5.8672,5.929,5.929,5.929,5.929,5.929,5.9253,5.914,5.8964,5.8964,5.8902,5.8716,5.8716,5.8803,5.9006,5.9006,5.9178,5.9571,5.9931,6.016,6.0293,6.0616,6.08,6.08,6.08,6.0242,5.9146,5.9685,5.9935,5.9954,6.0531,6.08,0.0,0.0,0.0,0.0,0.0,0.0,0.0,0.0,3.0269,3.2538,3.3627,3.4499,3.565,3.589,0.0,0.0,0.0,0.0,0.0,0.0,0.0,0.0,0.0,0.0,0.0,0.0,0.0,0.0,4.253,4.2802,4.3767,4.36,4.3513,4.3582,4.3582,4.3701,4.3915,4.3915,4.3915,4.3915,4.3837,4.3686,4.3479,4.3268,4.3178,4.3104,4.2938,4.29,4.2938,4.3049,4.3012,4.3083,4.5039,4.5697,4.5824,4.7624,4.8247,4.8187,4.8187,4.8046,4.7775,4.7077,4.7372,4.7886,4.7234,4.7642,4.8655,5.0325,5.0802,5.1169,5.2784,5.3272,5.3521,5.4418,5.4763,5.5106,5.6023,5.6288,5.6666,5.7621,5.8634,5.929,5.929,5.9309,5.929,5.929,5.9101,5.8984,5.9003,5.8961,5.8859,5.8698,5.8716,5.8716,5.8716,5.8716,5.8825,5.9178,5.9571,5.9918,6.0265,6.0616,6.08,6.08,6.08,6.08,6.08,6.08,6.08,6.08,6.08,6.08,1.6197,0.0,0.0,0.0,0.0,0.0,0.0,0.0,2.8157,3.0281,3.1799,3.3136,3.4442,3.5116,3.5554,0.0,0.0,0.0,0.0,0.0,0.0,0.0,0.0,0.0,0.0,0.0,0.0,0.0,4.2567,4.2918,4.3767,4.3652,4.3582,4.3582,4.3582,4.3667,4.3837,4.3837,4.3837,4.3837,4.3804,4.3686,4.3479,4.3356,4.3232,4.3178,4.3086,4.3068,4.3087,4.3013,4.2938,4.3083,4.4927,4.5641,4.5824,4.7624,4.8247,4.8187,4.809,4.7988,4.7866,4.7529,4.7706,4.7955,4.7776,4.7986,4.8655,5.0325,5.0802,5.1169,5.2784,5.3206,5.3285,5.3548,5.3645,5.376,5.3981,5.5269,5.6606,5.7621,5.8634,5.929,5.929,5.9234,5.9158,5.9101,5.9003,5.8942,5.8921,5.8899,5.8859,5.8698,5.8716,5.8716,5.8716,5.8716,5.8739,5.8825,5.9159,5.9537,5.9918,6.0265,6.0546,6.08,6.08,6.08,6.08,6.08,6.08,6.08,6.08,6.08,0.0,0.0,0.0,0.0,0.0,0.0,2.261,2.412,0.0,0.0,2.9844,3.1244,3.3085,3.3688,3.4147,3.4841,0.0,0.0,0.0,0.0,0.0,0.0,0.0,0.0,0.0,4.0197,4.0622,4.1446,4.1802,4.247,4.3612,4.36,4.3548,4.3548,4.3548,4.36,4.3719,4.3719,4.3719,4.3719,4.3719,4.3634,4.3497,4.3375,4.3322,4.3305,4.3196,4.3142,4.3196,4.3087,4.3013,4.3157,4.4983,4.5641,4.5842,4.7604,4.8208,4.809,4.7988,4.7884,4.7801,4.7717,4.7847,4.7992,4.7992,4.8151,4.8581,4.9921,5.0784,5.1591,5.2876,5.3206,5.3206,5.3206,5.3206,5.3206,5.3206,5.4474,5.5946,5.6962,5.8315,5.929,5.9234,5.9158,5.9081,5.8964,5.8884,5.884,5.8899,5.8859,5.8799,5.8716,5.8716,5.8716,5.8716,5.8716,5.8716,5.8716,5.9006,5.9325,5.9537,6.0023,6.0395,6.0572,6.0734,6.08,6.08,6.08,6.08,6.08,6.08,6.08,0.0,0.0,0.0,0.0,0.0,0.0,2.2805,2.3193,2.371,0.0,2.7671,2.8913,3.1297,3.1756,3.2219,3.3634,3.4098,0.0,0.0,0.0,0.0,0.0,0.0,0.0,3.8068,3.8401,3.9019,3.9933,4.074,4.1864,4.3311,4.3442,4.3497,4.3497,4.3497,4.3513,4.3582,4.3582,4.3582,4.3582,4.3582,4.3548,4.3497,4.3411,4.3376,4.3411,4.3286,4.3251,4.3232,4.3251,4.3196,4.3305,4.5076,4.5697,4.5804,4.7545,4.809,4.797,4.7943,4.7819,4.7717,4.7717,4.7847,4.7992,4.7992,4.8151,4.8508,4.9444,5.082,5.2179,5.3004,5.3206,5.3206,5.3206,5.3206,5.3206,5.3206,5.3981,5.4985,5.5946,5.7658,5.9009,5.9082,5.9006,5.8891,5.8884,5.8781,5.8758,5.8859,5.8758,5.8716,5.8716,5.8716,5.8716,5.8716,5.8716,5.8716,5.8716,5.8986,5.9178,5.9215,5.9817,6.0237,6.0293,6.0641,6.08,6.08,6.08,6.08,6.08,6.08,6.08,0.0,0.0,2.0628,0.0,0.0,0.0,1.9127,2.074,2.2719,0.0,2.5159,2.6623,2.8166,2.9458,3.0163,2.975,3.1873,3.41,0.0,0.0,0.0,0.0,0.0,0.0,3.8016,3.8186,3.8678,3.9827,4.124,4.2246,4.2573,4.3164,4.3497,4.3497,4.3497,4.3532,4.3513,4.3513,4.3513,4.3513,4.3513,4.3513,4.3497,4.3411,4.3411,4.3463,4.3411,4.3411,4.3463,4.3376,4.3305,4.3342,4.4983,4.5641,4.5804,4.7448,4.7988,4.7943,4.7902,4.7819,4.7717,4.7717,4.7847,4.7992,4.7992,4.8151,4.8618,5.0141,5.1261,5.2179,5.3004,5.3206,5.3206,5.3206,5.3206,5.3206,5.3206,5.3981,5.4778,5.4985,5.602,5.7355,5.8838,5.8364,5.8018,5.8646,5.8716,5.8716,5.8758,5.8716,5.8716,5.8716,5.8716,5.8716,5.8716,5.8716,5.8716,5.8716,5.8762,5.8926,5.9178,5.9342,5.9687,6.0293,6.0641,6.08,6.08,6.08,6.08,6.08,6.08,6.08,0.0,0.0,2.1657,2.0797,0.0,0.0,0.0,0.0,2.1507,2.2895,2.318,2.3852,2.6101,2.677,2.7353,2.8535,3.0,3.1402,3.273,0.0,0.0,0.0,0.0,0.0,3.7415,3.7879,3.8613,3.9795,4.0666,4.1507,4.2316,4.2739,4.3109,4.3479,4.3497,4.3497,4.3497,4.3497,4.3497,4.3497,4.3497,4.3497,4.3497,4.3481,4.3463,4.3497,4.3463,4.3463,4.3497,4.3463,4.3631,4.4071,4.526,4.5641,4.5785,4.7408,4.7947,4.7902,4.7819,4.7759,4.7717,4.7759,4.7907,4.7992,4.809,4.819,4.8655,5.0325,5.1096,5.1683,5.2894,5.3206,5.3206,5.3206,5.3206,5.3206,5.3206,5.3603,5.3944,5.3944,5.4377,5.5358,5.7255,5.7159,5.7056,5.7872,5.7983,5.8192,5.8661,5.8716,5.8716,5.8716,5.8716,5.8716,5.8716,5.8716,5.8716,5.8716,5.8716,5.8762,5.8966,5.9103,5.9553,6.0293,6.0468,6.0641,6.08,6.08,6.08,6.08,6.08,6.08,0.0,0.0,0.0,0.0,0.0,2.2044,0.0,0.0,0.0,0.0,0.0,0.0,0.0,0.0,0.0,0.0,0.0,0.0,0.0,3.1365,0.0,0.0,0.0,0.0,0.0,3.7023,3.8049,3.957,3.943,4.0068,4.1801,4.2187,4.2665,4.3275,4.344,4.3497,4.3497,4.3497,4.3497,4.3497,4.3497,4.3497,4.3497,4.3497,4.3497,4.3497,4.3497,4.3497,4.3497,4.3497,4.3975,4.4782,4.5498,4.5789,4.6004,4.7463,4.7907,4.7861,4.7759,4.7717,4.7717,4.7861,4.7947,4.8032,4.8169,4.8247,4.8655,5.0325,5.0802,5.1169,5.2784,5.3206,5.3243,5.339,5.3445,5.3482,5.3628,5.3665,5.3628,5.3463,5.3445,5.3934,5.5558,5.5821,5.608,5.6918,5.7047,5.7386,5.8322,5.8415,5.8489,5.8698,5.8716,5.8716,5.8716,5.8716,5.8716,5.8716,5.8716,5.8716,5.8716,5.9025,5.9518,6.0208,6.0265,6.0449,6.08,6.08,6.08,6.08,6.08,6.08,0.0,0.0,0.0,0.0,2.359,0.0,0.0,0.0,0.0,0.0,0.0,0.0,0.0,0.0,0.0,0.0,0.0,0.0,2.4979,2.6942,2.9059,0.0,0.0,0.0,0.0,3.4878,3.603,3.8725,3.7555,3.7787,4.0228,4.1613,4.2375,4.2533,4.3146,4.3497,4.3497,4.3497,4.3497,4.3497,4.3497,4.3497,4.3497,4.3497,4.3497,4.3497,4.3497,4.3497,4.3497,4.3497,4.3975,4.4782,4.5498,4.6136,4.6749,4.7597,4.7842,4.7717,4.7717,4.7717,4.7717,4.7861,4.8006,4.8187,4.8286,4.8306,4.8655,5.0325,5.0802,5.1169,5.2784,5.3206,5.339,5.4087,5.4252,5.4454,5.517,5.5317,5.5115,5.4399,5.4252,5.4369,5.4723,5.4759,5.5059,5.5942,5.6071,5.6409,5.7367,5.746,5.7798,5.8624,5.8716,5.8716,5.8716,5.8716,5.8716,5.8716,5.8716,5.8716,5.8716,5.9025,5.9432,5.9855,6.015,6.0468,6.08,6.08,6.08,6.08,6.08,6.08,0.0,0.0,0.0,0.0,0.0,0.0,2.2754,0.0,2.2204,0.0,0.0,0.0,0.0,0.0,0.0,0.0,0.0,0.0,0.0,0.0,2.664,0.0,0.0,0.0,0.0,0.0,0.0,0.0,3.601,3.6567,3.922,4.0406,4.1443,4.2368,4.2684,4.3054,4.3497,4.3497,4.3497,4.3497,4.3497,4.3497,4.3497,4.3497,4.3497,4.3497,4.3497,4.3463,4.3446,4.3446,4.4198,4.5389,4.57,4.5954,4.63,4.7101,4.7274,4.7112,4.7112,4.736,4.7741,4.7907,4.809,4.8247,4.8306,4.8306,4.8655,5.0325,5.0802,5.1169,5.2784,5.3206,5.3408,5.4216,5.4399,5.462,5.5427,5.5225,5.4803,5.4473,5.4014,5.3702,5.3763,5.3805,5.4123,5.5023,5.5152,5.547,5.6372,5.6483,5.6612,5.7006,5.7552,5.7891,5.7891,5.8378,5.8716,5.8716,5.8716,5.8716,5.8716,5.9025,5.9397,5.9791,6.015,6.0449,6.08,6.08,6.08,6.08,6.08,6.08,2.5562,0.0,0.0,0.0,0.0,0.0,0.0,0.0,0.0,0.0,0.0,0.0,0.0,0.0,0.0,0.0,0.0,0.0,0.0,0.0,0.0,0.0,0.0,0.0,0.0,0.0,0.0,0.0,0.0,3.4906,3.8295,3.9275,4.0363,4.1751,4.2198,4.268,4.3183,4.3422,4.3497,4.3497,4.3497,4.3497,4.3497,4.3497,4.3497,4.3497,4.3497,4.3463,4.3412,4.3667,4.4436,4.548,4.5736,4.5681,4.5627,4.6632,4.6754,4.6415,4.6415,4.6884,4.7575,4.7937,4.8169,4.8306,4.8306,4.8306,4.8655,5.0325,5.0802,5.1169,5.2784,5.3206,5.3463,5.4491,5.4564,5.4675,5.5702,5.5299,5.4656,5.4436,5.394,5.3463,5.3243,5.3206,5.345,5.4123,5.4215,5.4533,5.5433,5.5526,5.571,5.6153,5.6853,5.7362,5.7542,5.8262,5.8716,5.8716,5.8716,5.8716,5.8716,5.9025,5.9397,5.9791,6.015,6.0449,6.08,6.08,6.08,6.08,6.08,6.08,0.0,0.0,0.0,2.5486,0.0,0.0,0.0,0.0,2.533,0.0,0.0,0.0,0.0,0.0,0.0,0.0,0.0,0.0,0.0,0.0,0.0,0.0,0.0,0.0,0.0,0.0,0.0,0.0,0.0,0.0,3.7374,3.8387,3.9257,4.0148,4.1622,4.2404,4.2441,4.3128,4.3497,4.3497,4.3497,4.3497,4.3497,4.3497,4.3497,4.3497,4.3497,4.3463,4.3449,4.4325,4.4637,4.4711,4.5572,4.5424,4.4912,4.645,4.6428,4.5638,4.5638,4.6243,4.7124,4.7949,4.8247,4.8306,4.8306,4.8306,4.8655,5.0325,5.0802,5.1169,5.2784,5.3206,5.361,5.5188,5.4968,5.484,5.6436,5.6124,5.5317,5.4546,5.4381,5.4106,5.3335,5.3206,5.3225,5.3243,5.3243,5.3579,5.4515,5.4625,5.5233,5.6798,5.7162,5.7542,5.8208,5.8535,5.8716,5.8716,5.8716,5.8716,5.8716,5.9025,5.9397,5.9791,6.015,6.0449,6.08,6.08,6.08,6.08,6.08,6.08,0.0,0.0,3.1455,2.8335,0.0,0.0,0.0,0.0,0.0,0.0,0.0,0.0,0.0,0.0,0.0,0.0,0.0,0.0,0.0,0.0,0.0,0.0,0.0,0.0,0.0,0.0,0.0,0.0,3.0223,0.0,0.0,3.7645,3.8966,4.0756,4.1396,4.2124,4.3109,4.3385,4.3497,4.3497,4.3497,4.3497,4.3497,4.3497,4.3497,4.3497,4.3446,4.3376,4.3324,4.4145,4.4474,4.4565,4.5461,4.5352,4.4782,4.5297,4.526,4.5076,4.6059,4.6645,4.7145,4.7931,4.8247,4.8306,4.8306,4.8691,4.9389,5.049,5.1187,5.183,5.2931,5.3206,5.3463,5.4595,5.4675,5.4785,5.5882,5.5484,5.4779,5.4436,5.3977,5.3537,5.3261,5.3206,5.3206,5.3206,5.3206,5.3298,5.3616,5.3653,5.4075,5.5053,5.5754,5.6528,5.7357,5.8214,5.8716,5.8716,5.8716,5.8716,5.8716,5.9025,5.9397,5.9791,6.015,6.0449,6.08,6.08,6.08,6.08,6.08,6.08,3.1715,3.2476,0.0,3.017,2.9474,0.0,2.6124,0.0,0.0,0.0,0.0,0.0,0.0,0.0,0.0,0.0,0.0,0.0,0.0,0.0,0.0,0.0,0.0,0.0,0.0,0.0,2.5244,2.9233,0.0,0.0,0.0,0.0,3.8274,4.0314,4.1003,4.188,4.3091,4.3385,4.3497,4.3497,4.3204,4.3057,4.3057,4.3057,4.3075,4.3059,4.3283,4.3505,4.367,4.4236,4.4492,4.4528,4.515,4.5114,4.4709,4.4709,4.4691,4.4821,4.6046,4.6724,4.7165,4.7952,4.8286,4.8306,4.8306,4.8912,4.9756,5.0563,5.1371,5.2179,5.3004,5.3206,5.3432,5.4265,5.4252,5.4312,5.5135,5.4614,5.4026,5.3977,5.3555,5.3206,5.3206,5.3206,5.3206,5.3206,5.3206,5.3206,5.3206,5.3206,5.3543,5.4473,5.5192,5.6121,5.7357,5.8233,5.8716,5.8716,5.8716,5.8716,5.8716,5.9025,5.9306,5.9571,5.995,6.0293,6.0616,6.0616,6.0666,6.08,6.08,6.08]},{"header":{"parameterUnit":"m.s-1","parameterCategory":1,"la1":30.6,"la2":29.2853,"lo1":-89.7004,"lo2":-87.6739,"dy":0.0162,"dx":0.0183,"nx":112,"ny":82,"refTime":"2025-01-22T06:00:00:Z","depth":0,"parameterNumber":3,"parameterNumberName":"V-component_of_WINDS"},"data":[0.0,0.0,0.0,0.0,0.0,0.0,0.0,0.0,0.0,0.0,0.0,0.0,0.0,0.0,0.0,0.0,0.0,0.0,0.0,0.0,0.0,0.0,0.0,0.0,0.0,0.0,0.0,0.0,0.0,0.0,0.0,0.0,0.0,0.0,0.0,0.0,0.0,0.0,0.0,0.0,0.0,0.0,0.0,0.0,0.0,0.0,0.0,0.0,0.0,0.0,0.0,0.0,0.0,0.0,0.0,0.0,0.0,0.0,0.0,0.0,0.0,0.0,0.0,0.0,0.0,0.0,0.0,0.0,0.0,0.0,0.0,0.0,0.0,0.0,0.0,0.0,0.0,0.0,0.0,0.0,0.0,0.0,0.0,0.0,0.0,0.0,0.0,0.0,0.0,0.0,0.057,0.0731,0.1116,0.1532,0.1825,0.1755,0.1658,0.1707,0.0,0.0,0.0,0.0,0.0,0.0,0.0,0.0,0.0,0.0,0.0,0.0,0.0,0.0,0.0,0.0,0.0,0.0,0.0,0.0,0.0,0.0,0.0,0.0,0.0,0.0,0.0,0.0,0.0,0.0,0.0,0.0,0.0,0.0,0.0,0.0,0.0,0.0,0.0,0.0,0.0,0.0,0.0,0.0,0.0,0.0,0.0,0.0,0.0,0.0,0.0,0.0,0.0,0.0,0.0,0.0,0.0,0.0,0.0,0.0,0.0,0.0,0.0,0.0,0.0,0.0,0.0,0.0,0.0,0.0,0.0,0.0,0.0,0.0,0.0,0.0,0.0,0.0,0.0,0.0,0.0,0.0,0.0,0.0,0.0,0.0,0.0,0.0,0.0,0.0,0.0,0.0,0.0,0.0,0.0,0.0,0.0,0.0,0.0,0.0,0.0,0.0,0.0,0.0,0.0734,0.0865,0.1355,0.1629,0.132,0.1413,0.144,0.137,0.0,0.0,0.0,0.0,0.0,0.0,0.0,0.0,0.0,0.0,0.0,0.0,0.0,0.0,0.0,0.0,0.0,0.0,0.0,0.0,0.0,0.0,0.0,0.0,0.0,0.0,0.0,0.0,0.0,0.0,0.0,0.0,0.0,0.0,0.0,0.0,0.0,0.0,0.0,0.0,0.0,0.0,0.0,0.0,0.0,0.0,0.0,0.0,0.0,0.0,0.0,0.0,0.0,0.0,0.0,0.0,0.0,0.0,0.0,0.0,0.0,0.0,0.0,0.0,0.0,0.0,0.0,0.0,0.0,0.0,0.0,0.0,0.0,0.0,0.0,0.0,0.0,0.0,0.0,0.0,0.0,0.0,0.0,0.0,0.0,0.0,0.0,0.0,0.0,0.0,0.0,0.0,0.0,0.0,0.0,0.0,0.0,0.0,0.0,0.0,0.0,0.0,0.0,0.0613,0.0777,0.1348,0.1446,0.1486,0.1463,0.1559,0.1491,0.1146,0.1571,0.0,0.0,0.0,0.0,0.0,0.0,0.0,0.0,0.0,0.0,0.0,0.0,0.0,0.0,0.0,0.0,0.0,0.0,0.0,0.0,0.0,0.0,0.0,0.0,0.0,0.0,0.0,0.0,0.0,0.0,0.0,0.0,0.0,0.0,0.0,0.0,0.0,0.0,0.0,0.0,0.0,0.0,0.0,0.0,0.0,0.0,0.0,0.0,0.0,0.0,0.0,0.0,0.0,0.0,0.0,0.0,0.0,0.0,0.0,0.0,0.0,0.0,0.0,0.0,0.0,0.0,0.0,0.0,0.0,0.0,0.0,0.0,0.0,0.0,0.0,0.0,0.0,0.0,0.0,0.0,0.0,0.0,0.0,0.0,0.0,0.0,0.0,0.0,0.0,0.0,0.0,0.0,0.0,0.0,0.0,0.0,0.0,0.0,0.0,0.0,0.0,0.0,0.056,0.0806,0.1556,0.1459,0.1439,0.1658,0.1675,0.1502,0.1111,0.1455,0.0,0.0,0.0,0.0,0.0,0.0,0.0,0.0,0.0,0.0,0.0,0.0,0.0,0.0,0.0,0.0,0.0,0.0,0.0,0.0,0.0,0.0,0.0,0.0,0.0,0.0,0.0,0.0,0.0,0.0,0.0,0.0,0.0,0.0,0.0,0.0,0.0,0.0,0.0,0.0,0.0,0.0,0.0,0.0,0.0,0.0,0.0,0.0,0.0,0.0,0.0,0.0,0.0,0.0,0.0,0.0,0.0,0.0,0.0,0.0,0.0,0.0,0.0,0.0,0.0,0.0,0.0,0.0,0.0,0.0,0.0,0.0,0.0,0.0,0.0,0.0,0.0,0.0,0.0,0.0,0.0,0.0,0.0,0.0,0.0,0.0,0.0,0.0,0.0,0.0,0.0,0.0,0.0,0.0,0.0,0.0,0.0,0.0,0.0,0.0,0.0,0.0,0.061,0.088,0.1113,0.1347,0.1495,0.1496,0.145,0.1367,0.129,0.1319,0.0,0.0,0.0,0.0,0.0,0.0,0.0,0.0,0.0,0.0,0.0,0.0,0.0,0.0,0.0,0.0,0.0,0.0,0.0,0.0,0.0,0.0,0.0,0.0,0.0,0.0,0.0,0.0,0.0,0.0,0.0,0.0,0.0,0.0,0.0,0.0,0.0,0.0,0.0,0.0,0.0,0.0,0.0,0.0,0.0,0.0,0.0,0.0,0.0,0.0,0.0,0.0,0.0,0.0,0.0,0.0,0.0,0.0,0.0,0.0,0.0,0.0,0.0,0.0,0.0,0.0,0.0,0.0,0.0,0.0,0.0,0.0,0.0,0.0,0.0,0.0,0.0,0.0,0.0,0.0,0.0,0.0,0.0,0.0,0.0,0.0,0.0,0.0,0.0,0.0,0.0,0.0,0.0,0.0,0.0,0.0,0.0,0.0,0.0,0.0,0.0,0.0,0.0423,0.0467,0.0,0.1178,0.1564,0.1654,0.1579,0.1499,0.135,0.0,0.0,0.0,0.0,0.0,0.0,0.0,0.0,0.0,0.0,0.0,0.0,0.0,0.0,0.0,0.0,0.0,0.0,0.0,0.0,0.0,0.0,0.0,0.0,0.0,0.0,0.0,0.0,0.0,0.0,0.0,0.0,0.0,0.0,0.0,0.0,0.0,0.0,0.0,0.0,0.0,0.0,0.0,0.0,0.0,0.0,0.0,0.0,0.0,0.0,0.0,0.0,0.0,0.0,0.0,0.0,0.0,0.0,0.0,0.0,0.0,0.0,0.0,0.0,0.0,0.0,0.0,0.0,0.0,0.0,0.0,0.0,0.0,0.0,0.0,0.0,0.0,0.0,0.0,0.0,0.0,0.0,0.0,0.0,0.0,0.0,0.0,0.0,0.0,0.0,0.0,0.0,0.0,0.0,0.0,0.0,0.0,0.0,0.0,0.0,0.0,0.0,0.0211,0.0335,0.042,0.0,0.1178,0.1629,0.1797,0.1753,0.1699,0.1542,0.0,0.0,0.0,0.0,0.0,0.0,0.0,0.0,0.0,0.0,0.0,0.0,0.0,0.0,0.0,0.0,0.0,0.0,0.0,0.0,0.0,0.0,0.0,0.0,0.0,0.0,0.0,0.0,0.0,0.0,0.0,0.0,0.0,0.0,0.0,0.0,0.0,0.0,0.0,0.0,0.0,0.0,0.0,0.0,0.0,0.0,0.0,0.0,0.0,0.0,0.0,0.0,0.0,0.0,0.0,0.0,0.0,0.0,0.0,0.0,0.0,0.0,0.0,0.0,0.0,0.0,0.0,0.0,0.0,0.0,0.0,0.0,0.0,0.0,0.0,0.0,0.0,0.0,0.0,0.0,0.0,0.0,0.0,0.0,0.0,0.0,0.0,0.0,0.0,0.0,0.0,0.0,0.0,0.0,0.0,0.0,0.0,0.0,0.0,0.0,0.0,0.0,-0.0309,0.0349,0.081,0.0894,0.1459,0.1797,0.1797,0.1964,0.2027,0.0,0.0,0.0,0.0,0.0,0.0,0.0,0.0,0.0,0.0,0.0,0.0,0.0,0.0,0.0,0.0,0.0,0.0,0.0,0.0,0.0,0.0,0.0,0.0,0.0,0.0,0.0,0.0,0.0,0.0,0.0,0.0,0.0,0.0,0.0,0.0,0.0,0.0,0.0,0.0,0.0,0.0,0.0,0.0,0.0,0.0,0.0,0.0,0.0,0.0,0.0,0.0,0.0,0.0,0.0,0.0,0.0,0.0,0.0,0.0,0.0,0.0,0.0,0.0,0.0,0.0,0.0,0.0,0.0,0.0,0.0,0.0,0.0,0.0,0.0,0.0,0.0,0.0,0.0,0.0,0.0,0.0,0.0,0.0,0.0,0.0,0.0,0.0,0.0,0.0,0.0,0.0,0.0,0.0,0.0,0.0,0.0,0.0,0.0,0.0,0.0,0.0,0.0,-0.0666,-0.0153,0.0555,0.1457,0.1685,0.1741,0.1628,0.201,0.2113,0.1741,0.0,0.0,0.0,0.0,0.0,0.0,0.0,0.0,0.0,0.0,0.0,0.0,0.0,0.0,0.0,0.0,0.0,0.0,0.0,0.0,0.0,0.0,0.0,0.0,0.0,0.0,0.0,0.0,0.0,0.0,0.0,0.0,0.0,0.0,0.0,0.0,0.0,0.0,0.0,0.0,0.0,0.0,0.0,0.0,0.0,0.0,0.0,0.0,0.0,0.0,0.0,0.0,0.0,0.0,0.0,0.0,0.0,0.0,0.0,0.0,0.0,0.0,0.0,0.0,0.0,0.0,0.0,0.0,0.0,0.0,0.0,0.0,0.0,0.0,0.0,0.0,0.0,0.0,0.0,0.0,0.0,0.0,0.0,0.0,0.0,0.0,0.0,0.0,0.0,0.0,0.0,0.0,0.0,0.0,0.0,0.0,0.0,0.0,0.0,0.0,0.0,0.0,-0.0534,-0.0154,0.0449,0.1347,0.1628,0.1685,0.1515,0.2102,0.2324,0.1871,0.0,0.0,0.0,0.0,0.0,0.0,0.0,0.0,0.0,0.0,0.0,0.0,0.0,0.0,0.0,0.0,0.0,0.0,0.0,0.0,0.0,0.0,0.0,0.0,0.0,0.0,0.0,0.0,0.0,0.0,0.0,0.0,0.0,0.0,0.0,0.0,0.0,0.0,0.0,0.0,0.0,0.0,0.0,0.0,0.0,0.0,0.0,0.0,0.0,0.0,0.0,0.0,0.0,0.0,0.0,0.0,0.0,0.0,0.0,0.0,0.0,0.0,0.0,0.0,0.0,0.0,0.0,0.0,0.0,0.0,0.0,0.0,0.0,0.0,0.0,0.0,0.0,0.0,0.0,0.0,0.0,0.0,0.0,0.0,0.0,0.0,0.0,0.0,0.0,0.0,0.0,0.0,0.0,0.0,0.0,0.0,0.0,0.0,0.0,0.0,0.0,0.0,-0.0044,0.0206,0.0505,0.0954,0.1402,0.1684,0.1626,0.2368,0.2692,0.2249,0.0,0.0,0.0,0.0,0.0,0.0,0.0,0.0,0.0,0.0,0.0,0.0,0.0,0.0,0.0,0.0,0.0,0.0,0.0,0.0,0.0,0.0,0.0,0.0,0.0,0.0,0.0,0.0,0.0,0.0,0.0,0.0,0.0,0.0,0.0,0.0,0.0,0.0,0.0,0.0,0.0,0.0,0.0,0.0,0.0,0.0,0.0,0.0,0.0,0.0,0.0,0.0,0.0,0.0,0.0,0.0,0.0,0.0,0.0,0.0,0.3147,0.0,0.0,0.0,0.0,0.0,0.0,0.0,0.0,0.0,0.0,0.0,0.0,0.0,0.0,0.0,0.0,0.0,0.0,0.0,0.0,0.0,0.0,0.0,0.0,0.0,0.0,0.0,0.0,0.0,0.0,0.0,0.0,0.0,0.0,0.0,0.0,0.0,0.0,0.0,0.0,0.0,-0.0044,0.0463,0.101,0.1572,0.2132,0.241,0.2291,0.3062,0.3401,0.2976,0.3129,0.0,0.0,0.0,0.0,0.0,0.0,0.0,0.0,0.0,0.0,0.0,0.0,0.0,0.0,0.0,0.0,0.0,0.0,0.0,0.0,0.0,0.0,0.0,0.0,0.0,0.0,0.0,0.0,0.0,0.0,0.0,0.0,0.0,0.0,0.0,0.0,0.0,0.0,0.0,0.0,0.0,0.0,0.0,0.0,0.0,0.0,0.0,0.0,0.0,0.0,0.0,0.0,0.0,0.0,0.0,0.0,0.0,0.0,0.0,0.0,0.3132,0.0,0.0,0.0,0.0,0.0,0.0,0.0,0.0,0.0,0.0,0.0,0.0,0.0,0.0,0.0,0.0,0.0,0.0,0.0,0.0,0.0,0.0,0.0,0.0,0.0,0.0,0.0,0.0,0.0,0.0,0.0,0.0,0.0,0.0,0.0,0.0,0.0,0.0,0.0,0.0,-0.0457,0.0364,0.1122,0.1741,0.2296,0.2571,0.2512,0.335,0.3745,0.3375,0.3478,0.0,0.0,0.0,0.0,0.0,0.0,0.0,0.0,0.0,0.0,0.0,0.0,0.0,0.0,0.0,0.0,0.0,0.0,0.0,0.0,0.0,0.0,0.0,0.0,0.0,0.0,0.0,0.0,0.0,0.0,0.0,0.0,0.0,0.0,0.0,0.0,0.0,0.0,0.0,0.0,0.0,0.0,0.0,0.0,0.0,0.0,0.0,0.0,0.0,0.0,0.0,0.0,0.0,0.649,0.6007,0.5952,0.5193,0.4803,0.4701,0.3781,0.3413,0.3409,0.3359,0.0,0.0,0.0,0.0,0.0,0.0,0.0,0.0,0.0,0.0,0.0,0.0,0.0,0.0,0.0,0.0,0.0,0.0,0.0,0.0,0.0,0.0,0.0,0.0,0.2888,0.2963,0.0,0.0,0.0,0.0,0.0,0.0,0.0,0.0,0.0,0.0,0.0,0.0,-0.0665,0.0106,0.0954,0.1741,0.2294,0.2623,0.2679,0.3582,0.4046,0.3805,0.3907,0.3807,0.0,0.0,0.0,0.0,0.0,0.0,0.0,0.0,0.0,0.0,0.0,0.0,0.0,0.0,0.0,0.0,0.0,0.0,0.0,0.0,0.0,0.0,0.0,0.0,0.0,0.0,0.0,0.0,0.0,0.0,0.0,0.0,0.4507,0.4384,0.0,0.0,0.0,0.0,0.0,0.0,0.0,0.0,0.0,0.0,0.0,0.0,0.0,0.6085,0.6569,0.6949,0.7139,0.7139,0.7225,0.7193,0.7014,0.7036,0.6565,0.5548,0.4385,0.0,0.3592,0.4069,0.0,0.0,0.0,0.0,0.0,0.0,0.0,0.0,0.0,0.0,0.0,0.0,0.0,0.0,0.0,0.0,0.0,0.0,0.0,0.0,0.0,0.0,0.3429,0.3455,0.3355,0.3283,0.0,0.2877,0.2311,0.2181,0.1848,0.0,0.0,0.0,0.0,0.0,0.0,0.0,0.0197,-0.0054,0.028,0.1629,0.2464,0.3072,0.3403,0.4271,0.4796,0.4896,0.4531,0.4181,0.3919,0.3424,0.0,0.0,0.0,0.0,0.0,0.0,0.0,0.0,0.0,0.0,0.0,0.0,0.0,0.0,0.0,0.0,0.0,0.0,0.0,0.0,0.0,0.0,0.0,0.0,0.0,0.0,0.0,0.0,0.0,0.4314,0.458,0.4324,0.4352,0.4154,0.0,0.0,0.0,0.0,0.0,0.0,0.0,0.0,0.0,0.4974,0.6135,0.7025,0.7568,0.7574,0.7574,0.7574,0.7521,0.7711,0.8051,0.8114,0.7641,0.6564,0.5624,0.4829,0.4358,0.4422,0.4236,0.3749,0.0,0.0,0.0,0.0,0.3375,0.3493,0.3746,0.3859,0.0,0.3762,0.0,0.0,0.0,0.0,0.0,0.0,0.0,0.0,0.0,0.0,0.0,0.3658,0.3641,0.3664,0.3733,0.3352,0.2914,0.0,0.2547,0.2101,0.1119,0.0,0.0,0.0,0.0,-0.0422,0.0103,0.0272,0.0841,0.2188,0.2907,0.3572,0.407,0.4739,0.5097,0.5127,0.4848,0.4588,0.4297,0.3799,0.3323,0.0,0.0,0.0,0.0,0.0,0.0,0.0,0.0,0.0,0.0,0.0,0.0,0.0,0.0,0.0,0.0,0.0,0.0,0.0,0.0,0.0,0.0,0.0,0.0,0.0,0.0,0.0,0.0,0.4525,0.4739,0.446,0.4749,0.4621,0.0,0.0,0.0,0.0,0.0,0.0,0.5653,0.5592,0.5829,0.6379,0.6941,0.7477,0.8022,0.8247,0.8303,0.8309,0.7389,0.7274,0.7846,0.8209,0.7767,0.6728,0.6153,0.5577,0.5199,0.5154,0.4923,0.4519,0.3997,0.3739,0.3722,0.3982,0.4023,0.4015,0.4284,0.4426,0.4403,0.4146,0.0,0.3657,0.333,0.0,0.0,0.0,0.0,0.3298,0.3447,0.3698,0.3868,0.3835,0.3856,0.3982,0.3982,0.3776,0.349,0.0,0.312,0.2733,0.1547,0.0,0.0,0.0,0.0,-0.0299,0.0053,0.0828,0.1681,0.2631,0.3519,0.4184,0.446,0.5018,0.5242,0.5183,0.5004,0.4824,0.4612,0.4181,0.3767,0.3409,0.0,0.0,0.0,0.0,0.0,0.0,0.0,0.0,0.0,0.0,0.0,0.0,0.0,0.0,0.0,0.0,0.0,0.0,0.0,0.0,0.0,0.0,0.0,0.0,0.0,0.0,0.0,0.0,0.0,0.5334,0.5912,0.0,0.0,0.0,0.0,0.5161,0.5805,0.6047,0.5729,0.6413,0.6484,0.5842,0.6902,0.7812,0.8436,0.9082,0.94,0.94,0.6746,0.5519,0.5609,0.6794,0.6596,0.5334,0.5263,0.5489,0.5967,0.668,0.6116,0.4779,0.4816,0.4789,0.4748,0.4937,0.5003,0.4924,0.4887,0.5019,0.5136,0.5054,0.4558,0.3965,0.3718,0.3424,0.0,0.0,0.3606,0.3754,0.3701,0.3882,0.4102,0.4107,0.4107,0.4107,0.4107,0.4088,0.3939,0.0,0.3242,0.3073,0.2904,0.0,0.11,0.1194,0.1004,0.0671,0.0333,0.1623,0.2633,0.2681,0.4193,0.5033,0.4519,0.5018,0.5297,0.5297,0.5175,0.5003,0.4886,0.4665,0.4299,0.3697,0.3413,0.0,0.0,0.0,0.0,0.0,0.0,0.0,0.0,0.0,0.0,0.0,0.0,0.0,0.0,0.0,0.0,0.0,0.0,0.0,0.0,0.0,0.0,0.0,0.0,0.0,0.0,0.0,0.0,0.5983,0.6362,0.0,0.5513,0.5955,0.6281,0.6351,0.7436,0.7943,0.7526,0.7369,0.7364,0.7555,0.8,0.8246,0.8121,0.9741,1.0556,1.0479,0.9162,0.8054,0.7233,0.7644,0.7829,0.7771,0.7771,0.7334,0.6635,0.6928,0.6355,0.5272,0.4929,0.477,0.4736,0.4798,0.4832,0.4812,0.4749,0.4803,0.486,0.4703,0.4558,0.4358,0.4146,0.3914,0.376,0.3975,0.402,0.4048,0.3891,0.4087,0.4189,0.4047,0.4047,0.4028,0.4162,0.4048,0.3931,0.3793,0.3668,0.3421,0.3026,0.2778,0.2085,0.0447,0.0284,0.1104,0.3282,0.3411,0.3582,0.4346,0.467,0.4841,0.5068,0.5198,0.5242,0.5183,0.5069,0.4904,0.4794,0.4631,0.4372,0.4009,0.375,0.3356,0.0,0.0,0.0,0.0,0.0,0.0,0.0,0.0,0.0,0.0,0.0,0.0,0.0,0.0,0.0,0.0,0.0,0.0,0.0,0.0,0.0,0.0,0.0,0.0,0.0,0.0,0.6788,0.6591,0.7039,0.7142,0.638,0.7128,0.7589,0.7489,0.8474,0.8945,0.8708,0.8337,0.8271,0.8398,0.8942,0.907,0.878,1.0341,1.1111,1.1105,1.0277,0.9422,0.8563,0.8298,0.8437,0.8824,0.8831,0.829,0.7406,0.7406,0.6976,0.6337,0.5408,0.5099,0.5099,0.5099,0.5089,0.5167,0.5167,0.5154,0.4997,0.4768,0.4755,0.4822,0.4614,0.4412,0.4224,0.4367,0.4323,0.4131,0.4058,0.415,0.4225,0.4075,0.4075,0.413,0.4129,0.4043,0.3939,0.4039,0.3906,0.3665,0.3283,0.3488,0.3121,0.1318,0.1093,0.197,0.4335,0.4142,0.4189,0.5168,0.5005,0.5034,0.5451,0.5341,0.5191,0.5187,0.5011,0.4846,0.4794,0.4634,0.4424,0.4275,0.3954,0.3554,0.3162,0.0,0.0,0.0,0.0,0.0,0.0,0.0,0.0,0.0,0.0,0.0,0.0,0.0,0.0,0.0,0.0,0.0,0.0,0.0,0.0,0.0,0.0,0.0,0.612,0.6991,0.7506,0.7206,0.8157,0.8533,0.7807,0.8716,0.9128,0.8605,0.8841,0.9071,0.9081,0.9309,0.9128,0.8412,0.9463,1.0207,1.0507,1.0887,1.1111,1.1105,0.9829,0.9253,0.9259,0.8588,0.8323,0.8259,0.8241,0.8174,0.8178,0.8174,0.8178,0.7986,0.6441,0.5813,0.5817,0.5817,0.5892,0.6111,0.6111,0.5964,0.5741,0.5384,0.5312,0.524,0.509,0.4729,0.4442,0.4662,0.4375,0.4012,0.4012,0.416,0.4235,0.4087,0.416,0.4232,0.401,0.4007,0.4049,0.4157,0.4025,0.3806,0.3798,0.3969,0.4089,0.3971,0.3527,0.0,0.3272,0.388,0.4427,0.4979,0.5404,0.5636,0.5582,0.5327,0.514,0.5262,0.5018,0.4897,0.4897,0.4698,0.454,0.4424,0.3939,0.3648,0.3486,0.0,0.0,0.0,0.0,0.0,0.0,0.0,0.0,0.0,0.0,0.0,0.0,0.0,0.0,0.0,0.0,0.0,0.0,0.0,0.0,0.0,0.7423,0.801,0.7383,0.8023,0.8506,0.8471,0.9291,0.9648,0.9207,0.9644,0.9866,0.9737,0.9849,1.0086,1.0368,0.9701,0.9524,0.9938,0.9597,0.994,1.0956,1.1037,1.1111,1.1111,1.0767,1.0667,1.0673,1.0473,1.0404,1.0404,1.0554,1.0349,0.9787,0.9941,0.9622,0.8941,0.7238,0.6576,0.6504,0.5901,0.5676,0.5755,0.5755,0.5679,0.56,0.5369,0.5293,0.5293,0.5059,0.4906,0.483,0.4906,0.4909,0.4909,0.4754,0.4683,0.4533,0.4375,0.4072,0.3901,0.3907,0.3889,0.4084,0.4485,0.448,0.4381,0.4212,0.4224,0.4336,0.4665,0.3996,0.0,0.5117,0.5445,0.5571,0.5625,0.5773,0.5744,0.5632,0.5522,0.5304,0.5037,0.4916,0.4791,0.4625,0.4645,0.4656,0.4547,0.4084,0.3794,0.0,0.0,0.0,0.0,0.0,0.0,0.0,0.0,0.0,0.0,0.0,0.0,0.0,0.0,0.0,0.0,0.0,0.0,0.0,0.0,0.0,0.0,0.8304,0.8919,0.9033,0.9256,0.9462,0.9627,1.0109,1.0395,1.0456,1.058,1.0706,1.0645,1.0585,1.0653,1.0911,1.0419,1.0354,1.0831,1.0387,1.0455,1.1135,1.1218,1.1378,1.1449,1.1462,1.154,1.1624,1.1529,1.1519,0.0,1.1686,1.1433,1.1025,1.1186,1.0939,0.0,0.0,0.0,0.0,0.0,0.5805,0.5802,0.5965,0.5962,0.5725,0.5722,0.5642,0.5559,0.5476,0.5317,0.5156,0.5156,0.5124,0.5086,0.5004,0.4969,0.4932,0.4696,0.454,0.4448,0.4382,0.4294,0.4341,0.4678,0.0,0.0,0.4688,0.4585,0.4502,0.4659,0.4368,0.4481,0.5789,0.5977,0.6032,0.609,0.6063,0.5973,0.5832,0.5647,0.0,0.0,0.0,0.4834,0.4696,0.4746,0.0,0.0,0.0,0.0,0.0,0.0,0.0,0.0,0.2893,0.2737,0.0,0.0,0.0,0.0,0.0,0.0,0.0,0.0,0.0,0.0,0.0,0.0,0.0,0.0,0.0,0.0,0.9051,0.9583,1.0657,1.0512,1.0423,1.0692,1.085,1.1129,1.1532,1.151,1.1391,1.1322,1.1146,1.1057,1.1232,0.0,0.0,0.0,0.0,1.1606,1.1433,1.1599,1.176,1.2,1.195,1.2049,1.2296,1.1999,1.193,1.193,1.193,1.193,1.193,1.2011,1.193,1.1508,0.8914,0.7835,0.7671,0.6678,0.6179,0.6093,0.649,0.0,0.0,0.6242,0.616,0.6071,0.6071,0.5823,0.5496,0.5496,0.5254,0.5092,0.5092,0.5181,0.5341,0.5101,0.5115,0.5202,0.5026,0.4792,0.4763,0.4876,0.4629,0.4597,0.5222,0.5032,0.4621,0.4526,0.4711,0.508,0.572,0.5888,0.6078,0.6344,0.0,0.0,0.6157,0.5747,0.5542,0.5635,0.5195,0.494,0.4965,0.4953,0.4953,0.4953,0.4948,0.488,0.4679,0.4629,0.4393,0.3958,0.3243,0.3066,0.0,0.0,0.0,0.0,0.0,0.0,0.0,0.0,0.0,0.0,0.0,0.0,0.0,0.0,0.0,0.8896,0.9959,1.0725,1.0773,1.1307,1.1538,1.1323,1.1937,1.2284,1.2066,1.1997,1.184,1.184,1.1757,1.191,1.2421,1.2569,1.2739,1.3021,1.3021,1.2897,1.287,1.2546,1.2466,1.2466,0.0,0.0,1.2087,1.1966,1.198,1.198,1.2222,1.2301,1.2301,1.2469,1.203,1.1048,0.9596,0.8569,0.7902,0.688,0.6435,0.6418,0.6386,0.6346,0.6267,0.6267,0.6267,0.6267,0.6267,0.6189,0.0,0.611,0.609,0.5989,0.5989,0.5893,0.563,0.5231,0.4984,0.4779,0.4846,0.4668,0.48,0.5541,0.5517,0.5434,0.5711,0.5149,0.4934,0.563,0.5691,0.5749,0.6146,0.6213,0.628,0.628,0.628,0.6216,0.6124,0.5992,0.5891,0.5681,0.5426,0.5385,0.5549,0.5376,0.5317,0.5317,0.5292,0.5207,0.4984,0.4826,0.4644,0.4478,0.3942,0.3698,0.0,0.0,0.0,0.0,0.0,0.0,0.0,0.0,0.0,0.0,0.0,0.7657,0.8228,0.0,0.9596,1.0008,1.0725,1.133,1.1436,1.1806,1.2005,1.179,1.2206,1.2485,1.2572,1.237,1.2372,1.2732,1.2647,1.2726,1.3121,1.3342,1.3484,1.3554,1.3481,1.3393,1.3382,1.3218,1.3212,1.3375,1.2909,1.279,1.2802,1.2464,1.232,1.232,1.2486,1.2574,1.2574,1.2662,1.212,1.1201,1.0183,0.9022,0.7916,0.7498,0.6968,0.6457,0.6642,0.6533,0.6367,0.6536,0.6453,0.6367,0.6367,0.6367,0.6367,0.6367,0.6352,0.6324,0.6324,0.6188,0.6051,0.5732,0.5627,0.5511,0.5666,0.5508,0.5511,0.607,0.5913,0.5811,0.6136,0.5696,0.5409,0.5721,0.5845,0.5961,0.6172,0.6448,0.6662,0.6662,0.6662,0.6631,0.6546,0.6382,0.6112,0.576,0.5667,0.5646,0.5769,0.5642,0.5583,0.5583,0.5403,0.5219,0.5027,0.4827,0.4551,0.433,0.4282,0.4228,0.0,0.0,0.0,0.0,0.0,0.0,0.0,0.0,0.6887,0.7517,0.8124,0.8699,0.9212,0.9932,1.0552,1.1059,1.1386,1.1729,1.2009,1.225,1.2326,1.2247,1.2326,1.2545,1.3078,1.2923,1.2946,1.3482,1.3471,1.3505,1.367,1.3971,1.4037,1.394,1.3919,1.3908,1.3815,1.3874,1.4071,1.4235,1.3686,1.3529,1.3623,1.2948,1.2683,1.2683,1.2683,1.2683,1.2683,1.2683,1.2318,1.1763,1.074,0.9527,0.8278,0.807,0.7443,0.664,0.6943,0.6851,0.6599,0.6728,0.664,0.6477,0.6449,0.644,0.644,0.644,0.6459,0.6373,0.6373,0.6387,0.639,0.6311,0.6331,0.6368,0.6421,0.6276,0.6225,0.647,0.6157,0.6046,0.6532,0.6273,0.594,0.574,0.5924,0.6105,0.6204,0.6622,0.6981,0.6909,0.6981,0.6969,0.7005,0.6698,0.6391,0.604,0.6056,0.6049,0.6049,0.6049,0.5981,0.5914,0.5631,0.5361,0.5112,0.4879,0.4585,0.4316,0.4484,0.4496,0.9315,0.8457,0.7976,0.8379,0.805,0.7837,0.0,0.0,0.8431,0.9081,0.9261,0.9487,1.0265,1.0601,1.0807,1.1142,1.1676,1.2002,1.1928,1.2459,1.2866,1.2721,1.2797,1.3078,1.3413,1.3604,1.3625,1.3495,1.3909,1.423,1.423,1.466,1.4996,1.4949,1.5128,1.529,1.524,1.4994,1.4863,1.4863,1.3904,1.3465,1.3465,1.2945,1.2683,1.2683,1.2683,1.2683,1.2683,1.2683,1.2683,1.2495,1.1482,1.0619,0.9723,0.8117,0.7434,0.7215,0.7044,0.6947,0.7011,0.6749,0.6756,0.684,0.6706,0.6666,0.6666,0.6666,0.6642,0.6619,0.6619,0.6776,0.677,0.6342,0.6344,0.6365,0.6303,0.6172,0.6144,0.6687,0.6582,0.6532,0.6894,0.6754,0.6573,0.6507,0.6535,0.6531,0.6513,0.6736,0.6809,0.6663,0.6812,0.6904,0.69,0.6949,0.6924,0.6853,0.6832,0.6891,0.6891,0.6891,0.6679,0.6321,0.6414,0.6281,0.5905,0.5366,0.5179,0.5294,0.4666,0.4359,1.1139,1.0504,0.0,0.0,0.9621,0.9294,0.9418,0.9163,0.9036,0.952,0.9806,1.0109,1.0663,1.1134,1.1556,0.0,1.2349,1.2748,1.2452,1.2736,1.3029,1.3212,1.3162,1.3205,1.3501,1.3769,1.3918,1.4008,1.4552,1.4818,1.4818,1.519,1.5359,1.5359,1.5486,1.5556,1.5556,1.5417,1.5308,1.5308,1.467,1.4381,1.4387,1.3894,1.3496,1.3125,1.3125,1.3031,1.2747,1.2747,1.2457,1.1983,1.1597,1.0733,0.954,0.8512,0.787,0.7489,0.7363,0.7356,0.7387,0.7265,0.7265,0.7305,0.7244,0.7224,0.7224,0.7224,0.716,0.7068,0.698,0.6943,0.682,0.6564,0.6502,0.6619,0.6665,0.6577,0.6583,0.6946,0.6946,0.6827,0.6798,0.6781,0.66,0.6457,0.6562,0.6673,0.6673,0.6673,0.675,0.683,0.6911,0.7005,0.6998,0.7009,0.7019,0.6974,0.6908,0.6916,0.6966,0.6958,0.6859,0.6656,0.643,0.6271,0.6023,0.5755,0.5403,0.5048,0.4929,0.4684,1.2068,0.0,0.0,1.1306,1.0886,1.0401,1.0081,0.9713,0.9508,0.9816,1.0152,1.0499,1.0964,1.1542,1.1971,1.2138,1.2783,1.3127,1.2822,1.2966,1.3249,1.3468,1.3351,1.34,1.3696,1.3954,1.4283,1.4585,1.507,1.5324,1.5322,1.5532,1.5562,1.5562,1.5652,1.5611,1.5611,1.5687,1.5638,1.5638,1.5219,1.5045,1.5052,1.4493,1.401,1.363,1.363,1.334,1.2958,1.2958,1.2662,1.2078,1.1775,1.1082,0.9964,0.9124,0.8284,0.7716,0.7672,0.7685,0.7706,0.7628,0.7628,0.7651,0.7611,0.76,0.76,0.76,0.7519,0.7407,0.7295,0.719,0.7085,0.6976,0.6915,0.6905,0.6973,0.6956,0.6959,0.7061,0.7082,0.7027,0.6851,0.682,0.6749,0.6536,0.6605,0.6696,0.6737,0.6757,0.6778,0.7026,0.7026,0.7062,0.7112,0.7126,0.7093,0.7017,0.6962,0.6973,0.7006,0.7003,0.6979,0.6862,0.6539,0.6345,0.6284,0.5904,0.5417,0.4915,0.5029,0.4758,0.0,0.0,1.1509,1.2037,1.1477,1.0845,1.1003,1.0428,0.9966,1.028,1.0349,1.056,1.1512,1.169,1.1825,1.2191,1.2689,1.2968,1.2822,1.3219,1.3488,1.3495,1.3495,1.3625,0.0,1.4393,1.4853,1.5168,1.5375,1.551,1.5623,1.5562,1.5562,1.5562,1.5686,1.5661,1.5661,1.5759,1.5805,1.5805,1.535,1.507,1.507,1.4586,1.41,1.3908,1.3908,1.3721,1.3443,1.3443,1.3443,1.334,1.2349,1.215,1.2047,0.9985,0.8711,0.8004,0.7858,0.7902,0.798,0.7692,0.7692,0.778,0.7641,0.76,0.76,0.76,0.7597,0.759,0.7587,0.7584,0.758,0.7573,0.7458,0.7312,0.7166,0.7024,0.6929,0.6932,0.6936,0.6976,0.7105,0.7126,0.7126,0.7115,0.6949,0.6807,0.6789,0.6933,0.7026,0.7281,0.7109,0.7109,0.7274,0.7278,0.7278,0.7267,0.727,0.727,0.7267,0.7267,0.7184,0.7015,0.7019,0.6857,0.6702,0.5911,0.5459,0.5462,0.4691,0.434,0.0,0.0,1.2243,1.254,1.1977,1.1386,1.1334,1.0697,1.0227,1.0471,1.0532,1.0618,1.1115,1.1499,1.1832,1.2204,1.3016,1.3498,1.3313,1.3742,1.3964,1.381,1.3803,0.0,0.0,0.0,0.0,1.5009,1.5304,1.5644,1.5686,1.5701,1.5717,1.5717,1.5725,1.5779,1.5779,1.5778,1.5832,1.5832,1.5642,1.5547,1.5547,1.5356,1.5064,1.4688,1.4496,1.4202,1.3721,1.3534,1.3539,1.3443,1.3141,1.2743,1.2344,1.156,1.0783,0.9891,0.8466,0.7994,0.8024,0.7923,0.7923,0.7953,0.7906,0.7892,0.7892,0.7892,0.7892,0.7868,0.7767,0.774,0.7716,0.7624,0.756,0.7509,0.7458,0.7407,0.7373,0.7373,0.7373,0.7326,0.7166,0.7139,0.7109,0.7014,0.691,0.6741,0.6592,0.6612,0.673,0.691,0.691,0.6956,0.7197,0.7193,0.7165,0.7296,0.7297,0.7224,0.7285,0.7281,0.7246,0.7095,0.7098,0.7062,0.6993,0.6343,0.5926,0.5577,0.5065,0.468,1.2192,1.2599,1.2929,1.319,1.2952,1.2477,1.195,1.1376,1.0833,1.0567,1.0463,1.0494,1.0782,1.1193,1.158,1.2171,1.3016,1.356,1.3743,1.396,1.413,1.4049,1.396,1.4083,0.0,0.0,0.0,1.5081,1.5479,1.5693,1.5724,1.5826,1.5832,1.5832,1.5832,1.5832,1.5832,1.5832,1.5832,1.5832,1.5832,1.5832,1.5832,1.5832,1.5547,1.5083,1.4892,1.4496,1.4004,1.3823,1.3823,1.3823,1.3823,1.3528,1.3028,1.2635,1.215,1.1463,0.9312,0.8531,0.8528,0.8137,0.8038,0.8038,0.8038,0.8038,0.8038,0.8038,0.8038,0.8018,0.7919,0.7892,0.7868,0.778,0.7716,0.7675,0.7675,0.7634,0.76,0.76,0.76,0.7536,0.7339,0.7305,0.7272,0.7183,0.7068,0.6998,0.671,0.6605,0.6697,0.6877,0.6881,0.7017,0.718,0.7085,0.7145,0.7211,0.7204,0.7214,0.72,0.7197,0.7243,0.717,0.717,0.7159,0.7221,0.6774,0.6259,0.5852,0.5378,0.4966,1.2562,1.3113,1.3562,1.3992,1.4194,1.395,1.2896,1.2318,1.1721,1.0653,1.0228,1.018,0.0,0.0,1.1218,1.2098,1.2702,1.3283,1.3913,1.4008,1.4104,0.0,0.0,0.0,0.0,0.0,0.0,1.5569,0.0,1.571,1.5812,1.5832,1.5832,1.5832,1.5832,1.5832,1.5832,1.5832,1.5832,1.5832,1.5832,1.5832,1.5832,1.5832,1.5547,1.5178,1.5083,1.479,1.4298,1.4298,1.4298,1.4298,1.4298,1.4298,1.41,1.3125,1.2732,1.2436,1.0391,0.9706,0.9509,0.8531,0.8137,0.8038,0.8038,0.8038,0.8038,0.8038,0.8038,0.8038,0.8038,0.8038,0.8038,0.8038,0.7929,0.7824,0.7824,0.7719,0.7621,0.7621,0.7614,0.7611,0.7611,0.7604,0.76,0.76,0.76,0.7492,0.72,0.7163,0.7163,0.7163,0.7163,0.7163,0.7163,0.7163,0.7163,0.7163,0.7163,0.7163,0.7163,0.7163,0.7163,0.7163,0.7163,0.7238,0.7383,0.6923,0.6528,0.6086,0.5618,0.52,1.2953,1.3631,1.4274,1.4356,1.4359,1.4138,1.3407,1.2489,1.1563,1.1032,1.0297,0.982,0.0,0.0,0.0,1.1935,1.2893,0.0,1.426,1.4631,0.0,1.4858,0.0,1.5014,1.5089,1.5183,0.0,0.0,1.5718,1.571,1.5812,1.5832,1.5832,1.5832,1.5832,1.5832,1.5832,1.5832,1.5832,1.5832,1.5832,1.5832,1.5832,1.5832,1.5737,1.5642,1.5452,1.5172,1.4885,1.4688,1.44,1.4022,1.4022,1.4022,1.3925,1.3437,1.3431,1.334,1.1873,1.1082,1.0779,1.0489,0.9801,0.9217,0.9217,0.8627,0.8038,0.8038,0.8038,0.8038,0.8038,0.8038,0.8038,0.8038,0.8011,0.798,0.798,0.7953,0.7926,0.7926,0.7834,0.7756,0.7756,0.7672,0.76,0.76,0.76,0.757,0.7492,0.7482,0.7482,0.7482,0.7482,0.7482,0.7482,0.7482,0.7482,0.7482,0.7482,0.7482,0.7482,0.7482,0.7482,0.7482,0.7482,0.7502,0.7543,0.7073,0.6807,0.6655,0.5891,0.5366,1.3593,1.4357,1.4923,1.4979,1.5127,1.4935,1.3582,1.2714,1.1892,1.0646,0.9836,0.0,0.0,0.0,0.0,0.0,0.0,0.0,1.4554,1.4776,1.4973,0.0,1.5258,0.0,1.5339,1.551,1.5585,0.0,1.5771,1.5752,1.5818,1.5832,1.5832,1.5832,1.5832,1.5832,1.5832,1.5832,1.5832,1.5832,1.5832,1.5832,1.5832,1.5832,1.5737,1.5642,0.0,1.5166,1.479,1.4592,1.4208,1.3738,1.3738,1.3738,1.3738,1.3545,1.3642,1.3636,1.2953,1.2559,1.2257,1.1184,1.0493,0.9998,0.941,0.892,0.8432,0.7942,0.7942,0.8038,0.8038,0.8038,0.8038,0.8038,0.8038,0.8038,0.8038,0.8038,0.8038,0.8038,0.797,0.7913,0.7913,0.7845,0.7794,0.7794,0.7794,0.7794,0.7794,0.7682,0.76,0.76,0.76,0.76,0.76,0.76,0.76,0.76,0.7503,0.7406,0.7406,0.7315,0.7221,0.7221,0.7221,0.7315,0.7406,0.7123,0.6963,0.6926,0.6139,0.5706,1.4405,1.507,1.5581,1.5687,1.6073,1.583,1.3624,1.3041,1.2289,1.0063,0.0,0.8965,0.9123,0.9583,1.0368,1.163,0.0,1.3338,1.4761,1.467,1.4791,1.5314,1.5396,1.5451,1.5451,1.5678,1.5832,1.5832,1.5832,1.5832,1.5832,1.5832,1.5832,1.5832,1.5832,1.5832,1.5832,1.5832,1.5832,1.5832,1.5832,1.5832,1.5832,1.5832,1.573,1.554,0.0,0.0,1.4394,1.4394,1.4016,1.3539,1.3443,1.3443,1.3443,1.3443,1.3443,1.3443,1.3443,1.3636,1.3545,1.1487,1.0988,1.0877,0.9706,0.941,0.9217,0.8137,0.8038,0.8137,0.8038,0.8038,0.8038,0.8038,0.8038,0.8038,0.8038,0.8038,0.8038,0.8038,0.8038,0.8038,0.8038,0.8038,0.8038,0.8038,0.8038,0.8038,0.8038,0.7818,0.7658,0.7658,0.7658,0.7658,0.7658,0.7658,0.7658,0.7658,0.7462,0.7269,0.7269,0.7083,0.6991,0.6991,0.6991,0.7083,0.7269,0.7269,0.7139,0.7061,0.6385,0.5948,1.5108,1.5566,1.5894,1.6167,1.6322,1.5955,1.4204,1.3235,0.0,0.0,0.0,0.8652,0.8705,0.9502,1.0434,1.122,0.0,0.0,0.0,0.0,1.5084,0.0,0.0,0.0,0.0,0.0,0.0,0.0,0.0,1.5832,1.5832,1.5832,1.5832,1.5832,1.5832,1.5832,1.5832,1.5832,1.5832,1.5832,1.5832,1.5832,1.5832,1.5832,1.5737,1.5737,1.5737,0.0,1.4981,1.4688,1.4208,1.3443,1.3249,1.3147,1.3147,1.2953,1.3152,1.3443,1.3244,1.3443,1.3835,1.3443,1.2845,1.2339,1.2047,1.1463,1.0583,0.9509,0.9316,0.9118,0.8233,0.8038,0.8038,0.8038,0.8038,0.8038,0.8038,0.8038,0.8038,0.8038,0.8038,0.8038,0.8038,0.8038,0.8038,0.8038,0.8038,0.8038,0.8038,0.7994,0.7963,0.7963,0.7963,0.7963,0.7963,0.7963,0.7963,0.7963,0.7865,0.7861,0.7861,0.7865,0.7763,0.7763,0.7763,0.7865,0.7861,0.7464,0.718,0.7102,0.6205,0.562,1.5504,1.5922,1.6217,1.6379,1.6198,1.5543,1.3663,0.0,0.0,0.0,0.0,0.8626,0.8692,0.0,0.0,0.0,0.0,0.0,0.0,0.0,0.0,0.0,0.0,0.0,0.0,0.0,0.0,0.0,0.0,1.5832,1.5832,1.5832,1.5832,1.5832,1.5832,1.5832,1.5832,1.5832,1.5832,1.5832,1.5832,1.5832,1.5832,1.5832,1.5832,1.5832,1.5832,0.0,1.5083,1.479,1.4304,1.3721,1.3437,1.3346,1.3346,1.3249,1.3346,1.3443,1.3346,1.3539,1.3931,1.3931,1.363,1.3232,1.2538,1.215,1.156,1.0489,1.0293,1.0194,0.9118,0.8825,0.8726,0.8137,0.8038,0.8038,0.8038,0.8038,0.8038,0.8038,0.8038,0.8038,0.8038,0.8038,0.8038,0.8038,0.8038,0.8038,0.8038,0.8038,0.8038,0.8038,0.8038,0.8038,0.8038,0.8038,0.8038,0.8038,0.7842,0.7743,0.7743,0.764,0.7537,0.7537,0.7537,0.7601,0.7727,0.7432,0.7233,0.7033,0.6246,0.5785,1.5729,1.6144,1.6384,1.6384,1.5966,1.4989,1.3049,1.2163,0.0,0.0,0.8692,0.8626,0.8699,0.0,0.0,0.0,0.0,0.0,0.0,0.0,0.0,0.0,0.0,0.0,0.0,0.0,0.0,0.0,0.0,0.0,1.5832,1.5832,1.5832,1.5832,1.5832,1.5832,1.5832,1.5832,1.5832,1.5832,1.5832,1.5832,1.5832,1.5832,1.5832,1.5832,1.5832,0.0,0.0,1.4975,1.4586,1.4094,1.3823,1.3636,1.3636,1.3539,1.3539,1.3545,1.3545,1.3738,1.4027,1.4027,1.4027,1.3829,1.2834,1.2635,1.2538,1.1463,1.1365,1.1268,1.0194,0.9899,0.9706,0.8627,0.8137,0.8038,0.8038,0.8038,0.8038,0.8038,0.8038,0.8038,0.8038,0.8038,0.8038,0.8038,0.8038,0.8038,0.8038,0.8038,0.8038,0.8038,0.8038,0.8038,0.8038,0.8038,0.8038,0.8038,0.7842,0.7646,0.7646,0.7441,0.7338,0.7338,0.7338,0.7384,0.7573,0.7375,0.7277,0.7076,0.6496,0.6054,1.574,1.6144,1.6384,1.6384,1.5675,1.4538,1.2939,0.0,0.0,0.9123,0.8692,0.8573,0.8474,0.8671,0.0,0.0,0.0,0.0,0.0,0.0,0.0,0.0,0.0,0.0,0.0,0.0,0.0,0.0,0.0,0.0,1.5832,1.5832,1.5832,1.5832,1.5832,1.5832,1.5832,1.5832,1.5832,1.5832,1.5832,1.5832,1.5832,1.6028,1.6028,1.5832,1.6028,0.0,0.0,1.5343,1.5242,1.4956,1.4388,1.4202,1.4202,1.363,1.3636,1.3835,1.3835,1.4022,1.4298,1.4298,1.4298,1.4202,1.41,1.41,1.3902,1.2829,1.2533,1.2339,1.1365,1.1072,1.0779,0.9706,0.8726,0.8038,0.8038,0.8038,0.8038,0.8038,0.8038,0.8038,0.8038,0.8038,0.8038,0.8038,0.8038,0.8038,0.8038,0.8038,0.8038,0.8038,0.8038,0.8038,0.8038,0.8038,0.8038,0.8038,0.7942,0.7942,0.7942,0.7939,0.7939,0.7939,0.7939,0.7932,0.7918,0.7419,0.722,0.7217,0.662,0.6126,1.5621,1.6088,1.6384,1.6384,1.5406,1.4154,1.2877,0.0,1.0329,0.9088,0.8752,0.8692,0.8521,0.8678,0.8984,0.0,1.0043,1.083,1.2365,0.0,0.0,0.0,0.0,0.0,0.0,0.0,0.0,0.0,0.0,0.0,1.5832,1.5832,1.5832,1.5832,1.5832,1.5832,1.5832,1.5832,1.5927,1.6028,1.5927,1.5927,1.6298,1.6218,1.6218,1.6305,1.64,0.0,0.0,1.6008,1.5812,1.5717,1.535,1.5064,1.479,1.4502,1.431,1.4112,1.4112,1.4202,1.4298,1.4298,1.4298,1.4298,1.4298,1.4298,1.4196,1.3806,1.3709,1.3414,1.2339,1.1658,1.0979,0.9903,0.9312,0.8825,0.8137,0.8038,0.8038,0.8038,0.8038,0.8038,0.8038,0.8038,0.8038,0.8038,0.8038,0.8038,0.8038,0.8038,0.8038,0.8038,0.8038,0.8038,0.8038,0.8038,0.8038,0.8038,0.8038,0.8038,0.8038,0.8038,0.8038,0.8038,0.8038,0.8038,0.8038,0.7739,0.7582,0.7363,0.7158,0.6791,1.5359,1.588,1.6265,1.64,1.5099,1.3619,0.0,1.1288,0.9814,0.8956,0.8804,0.8752,0.8626,0.8685,0.8883,0.0,0.9584,1.0232,1.1677,1.2344,0.0,0.0,0.0,0.0,0.0,0.0,0.0,0.0,0.0,0.0,1.5832,1.5832,1.5832,1.5832,1.5832,1.5832,1.5832,1.5832,1.5927,1.6224,1.6028,1.6116,1.6588,1.6501,1.6501,1.6588,1.6683,0.0,0.0,1.6487,1.6487,1.6386,1.6109,1.5832,1.5553,1.5363,1.4981,1.4496,1.4496,1.4394,1.4298,1.4298,1.4298,1.4298,1.4298,1.4298,1.4316,1.4395,1.4376,1.4234,1.3537,1.2449,1.1458,1.0662,1.0062,0.9369,0.8571,0.817,0.787,0.787,0.7968,0.7968,0.7968,0.8069,0.817,0.817,0.8136,0.8123,0.8163,0.8133,0.8126,0.8163,0.8133,0.8089,0.8041,0.8038,0.8038,0.8038,0.8038,0.8038,0.8038,0.8038,0.8038,0.8038,0.8038,0.8062,0.8106,0.8106,0.7981,0.7814,0.7814,0.7553,1.4935,1.5456,1.598,1.6327,1.47,1.2959,0.0,1.0816,0.9106,0.8857,0.8804,0.8752,0.8626,0.8626,0.8708,0.9163,0.9622,1.0338,1.1703,1.2513,0.0,0.0,0.0,0.0,0.0,0.0,0.0,0.0,0.0,0.0,1.5832,1.5832,1.5832,1.5832,1.5832,1.5832,1.5832,1.5832,1.5927,1.6224,1.6224,1.6312,1.6588,1.6878,1.6878,0.0,0.0,0.0,0.0,1.6878,1.6979,1.6979,1.6683,1.6581,1.6487,1.6021,1.5458,1.5083,1.5083,1.479,1.4298,1.4298,1.4298,1.4298,1.4298,1.4298,1.4358,1.463,1.4695,1.4683,1.4689,1.3653,1.272,1.2617,1.0966,0.9414,0.9414,0.8476,0.7644,0.7644,0.7852,0.7954,0.7954,0.8269,0.8476,0.8476,0.836,0.8319,0.8459,0.8353,0.8323,0.8462,0.835,0.8208,0.8052,0.8038,0.8038,0.8038,0.8038,0.8038,0.8038,0.8038,0.8038,0.8038,0.8038,0.8113,0.8269,0.8269,0.834,0.8479,0.8479,0.8164,1.4286,1.4477,1.4518,1.4721,1.3537,1.2228,1.1593,1.0287,0.9113,0.8857,0.8804,0.8752,0.8626,0.8685,0.9015,0.981,1.0174,0.0,0.0,0.0,0.0,0.0,0.0,0.0,0.0,0.0,0.0,0.0,0.0,0.0,1.5832,1.5832,1.5832,1.5832,1.5832,1.5832,1.5832,1.5832,1.6021,1.6494,1.6319,1.6501,1.7052,1.6972,1.7066,0.0,0.0,0.0,0.0,1.7145,1.7239,1.7246,1.7145,1.6864,1.6581,1.6021,1.5458,1.5083,1.4688,1.4394,1.4298,1.4298,1.4425,1.4582,1.4386,1.4386,1.4636,1.4701,1.4737,1.4695,1.4378,1.4066,1.355,1.2833,1.2211,1.1282,0.9731,0.9108,0.8692,0.796,0.7881,0.7917,0.813,0.8146,0.818,0.818,0.814,0.813,0.8174,0.814,0.813,0.8174,0.814,0.8136,0.8194,0.8099,0.8085,0.8191,0.8197,0.8241,0.834,0.8343,0.8343,0.8343,0.8343,0.8364,0.8414,0.8414,0.8492,0.8638,0.8638,0.8366,0.0,1.38,1.3748,1.3903,1.292,1.1781,1.1046,0.9954,0.9008,0.8857,0.8804,0.8752,0.8692,0.8745,0.903,0.9688,1.0093,0.0,0.0,0.0,0.0,0.0,0.0,0.0,0.0,0.0,0.0,0.0,0.0,0.0,1.5832,1.5832,1.5832,1.5832,1.5832,1.5832,1.5832,1.5832,1.6021,1.6407,1.6407,1.6683,1.7153,1.716,1.7153,0.0,0.0,0.0,0.0,1.7326,1.7326,1.7326,1.7326,1.7145,1.677,1.6298,1.5832,1.5267,1.4783,1.4496,1.4316,1.4322,1.4439,1.4678,1.4571,1.4708,1.4838,1.4999,1.5015,1.4885,1.4567,1.4458,1.4145,1.3414,1.288,1.224,1.0979,1.0028,0.9286,0.8752,0.8358,0.8075,0.8236,0.8253,0.8272,0.8214,0.816,0.8147,0.8197,0.816,0.8147,0.8201,0.8157,0.8167,0.8262,0.813,0.8079,0.8177,0.8184,0.8248,0.8394,0.8404,0.8428,0.8479,0.8482,0.8509,0.8567,0.8567,0.8587,0.8625,0.8625,0.8458,0.0,1.3175,1.3365,1.3552,1.2626,1.1484,1.0907,0.978,0.0,0.8804,0.8804,0.8818,0.8838,0.8824,0.8878,0.9088,0.9599,0.0,0.0,0.0,0.0,0.0,0.0,0.0,0.0,0.0,0.0,0.0,0.0,0.0,1.5832,1.5832,1.5832,1.5832,1.5832,1.5832,1.5832,1.5832,1.5927,1.6224,1.6494,1.669,1.6979,1.7145,1.7232,0.0,0.0,0.0,0.0,1.7326,1.7326,1.7326,1.7326,1.7326,1.7232,1.677,1.6305,1.5737,1.5267,1.4706,1.428,1.437,1.4524,1.4771,1.5024,1.5088,1.5181,1.5419,1.5505,1.5374,1.5041,1.4821,1.4606,1.4299,1.3305,1.2526,1.2748,1.1,0.9471,0.9688,0.9016,0.8417,0.8304,0.8481,0.8632,0.8489,0.8357,0.8316,0.8435,0.8336,0.8303,0.8435,0.8333,0.8258,0.8269,0.813,0.8045,0.8055,0.8065,0.814,0.8296,0.8313,0.8374,0.8496,0.8486,0.8554,0.8696,0.8696,0.8621,0.8482,0.8482,0.8489,1.1512,0.0,1.1553,1.1759,1.1416,1.0791,0.0,0.926,0.0,0.0,0.0,0.8931,0.9262,0.9065,0.9198,1.0325,1.0641,1.1162,1.2345,0.0,0.0,0.0,0.0,0.0,0.0,0.0,0.0,0.0,0.0,1.5832,1.5832,1.5832,1.5832,1.5832,1.6028,1.6028,1.5832,1.5832,1.5927,1.6224,1.6218,1.6407,1.6683,1.6972,1.7066,0.0,0.0,0.0,1.7326,1.7326,1.7326,1.7326,1.7326,1.7326,1.7232,1.677,1.6305,1.5737,1.5267,1.4734,1.4394,1.4747,1.4734,1.4729,1.5505,1.5551,1.5437,1.5435,1.5541,1.5374,1.5041,1.4928,1.4928,1.4826,1.3948,1.2852,1.1978,1.0672,0.9578,0.8923,0.8415,0.8188,0.8588,0.8523,0.8364,0.8326,0.8292,0.8241,0.8153,0.8113,0.8106,0.814,0.8113,0.8143,0.8258,0.813,0.8089,0.8208,0.8316,0.8445,0.8601,0.872,0.8743,0.8659,0.854,0.8499,0.8537,0.8537,0.8516,0.8482,0.8482,0.8329,1.0925,1.1137,1.1066,1.1084,1.1008,1.0618,0.0,0.0,0.0,0.0,0.0,0.0,0.9119,0.0,0.0,0.0,1.0857,0.0,0.0,0.0,0.0,0.0,0.0,0.0,0.0,0.0,0.0,0.0,0.0,1.5832,1.5832,1.5927,1.6021,1.6021,1.6218,1.6211,1.5832,1.5927,1.6028,1.6224,1.6312,1.6494,1.6784,1.7059,1.716,0.0,0.0,0.0,1.7326,1.7326,1.7326,1.7326,1.7326,1.7326,1.7232,1.677,1.64,1.613,1.5602,1.5239,1.4916,1.5092,1.506,1.5082,1.5535,1.5689,1.571,1.5648,1.569,1.5577,1.5261,1.5261,1.5148,1.5041,1.4493,1.3835,1.2743,1.1651,1.0562,0.9688,0.8903,0.8481,0.8706,0.8577,0.8448,0.8377,0.8428,0.8442,0.8357,0.8347,0.8347,0.8347,0.8286,0.8275,0.836,0.8292,0.8279,0.8364,0.8438,0.855,0.8703,0.8723,0.8689,0.8608,0.8523,0.8452,0.8384,0.8452,0.8448,0.8387,0.8452,0.8312,1.0722,1.1089,1.1143,1.0957,1.0868,1.061,0.0,0.0,0.0,0.0,0.0,0.0,0.0,0.0,0.0,0.0,0.0,0.0,0.0,0.0,0.0,0.0,0.0,0.0,0.0,0.0,0.0,0.0,0.0,1.5832,1.5832,1.6028,1.6224,1.6224,1.6501,1.64,1.592,1.6123,1.6218,1.6218,1.6494,1.6683,1.6979,1.7153,1.7239,0.0,0.0,0.0,1.7326,1.7326,1.7326,1.7326,1.7326,1.7326,1.7232,1.6864,1.6609,1.6517,1.6077,1.5714,1.5505,1.5332,1.5399,1.5482,1.5589,1.5684,1.5891,1.5891,1.5891,1.5891,1.5583,1.5589,1.5476,1.5256,1.5035,1.4713,1.3948,1.2856,1.1878,1.1143,1.0044,0.9127,0.9152,0.89,0.8733,0.8604,0.8696,0.8771,0.8747,0.8747,0.8747,0.8747,0.8628,0.856,0.8584,0.8584,0.8594,0.8618,0.8554,0.8584,0.8737,0.8598,0.8516,0.8516,0.8492,0.8421,0.8303,0.8425,0.8421,0.8306,0.8452,0.8516,1.1125,1.1082,1.0608,1.0458,1.0374,1.0115,0.0,0.0,0.0,0.0,0.0,0.0,0.0,0.0,0.0,0.0,0.0,0.0,0.0,0.0,0.0,0.0,0.0,0.0,0.0,0.0,0.0,0.0,0.0,1.5832,1.5832,1.6028,1.6224,1.6224,1.669,1.6784,1.6494,1.6494,1.6494,1.6494,1.6588,1.6581,1.6683,1.6972,1.7073,0.0,0.0,1.7326,1.7326,1.7326,1.7326,1.7326,1.7326,1.7326,1.7326,1.7232,1.694,1.6572,1.6106,1.5731,1.5535,1.5759,1.5654,1.5589,1.5791,1.5891,1.5891,1.5891,1.5891,1.5891,1.5891,1.5891,1.5785,1.5785,1.503,1.4277,1.4164,1.3181,1.236,1.2418,1.1325,1.054,1.081,0.9953,0.9076,0.9055,0.9069,0.9042,0.892,0.8903,0.8903,0.8903,0.8882,0.892,0.9039,0.9052,0.9106,0.9235,0.8886,0.8743,0.8896,0.8757,0.8676,0.8676,0.855,0.8472,0.8452,0.8472,0.8472,0.8455,0.8604,0.8676,1.0518,1.024,0.9786,1.0076,1.042,0.0,0.0,0.0,0.0,0.0,0.0,0.0,0.0,0.0,0.0,0.0,0.0,0.0,0.0,0.0,0.0,0.0,0.0,0.0,0.0,0.0,0.0,0.0,0.0,0.0,1.5832,1.6211,1.6407,1.6407,1.6871,1.7059,1.6784,1.6958,1.6958,1.6784,1.6784,1.6871,1.6958,1.7153,1.7153,1.7153,0.0,1.7326,1.7326,1.7326,1.7326,1.7326,1.7326,1.7326,1.7254,1.7341,1.7239,1.6988,1.6632,1.6522,1.6367,1.6174,1.6004,1.5903,1.5891,1.5891,1.5891,1.5891,1.5891,1.5891,1.5891,1.5891,1.5891,1.5891,1.5458,1.4956,1.4549,1.4025,1.3532,1.3072,1.1915,1.1126,1.1294,1.0234,0.9276,0.9276,0.9347,0.9374,0.931,0.93,0.93,0.93,0.9228,0.9205,0.9269,0.9276,0.9306,0.9374,0.9188,0.9066,0.9055,0.8988,0.8913,0.8835,0.8764,0.8726,0.873,0.8808,0.8845,0.8849,0.9001,0.9072,1.0034,0.9621,0.9211,0.0,0.0,0.0,0.0,0.0,0.0,0.0,0.0,0.0,0.0,0.0,0.0,0.0,0.0,0.0,0.0,0.0,0.0,0.0,0.0,0.0,0.0,0.0,0.0,0.0,0.0,0.0,1.5927,1.6305,1.6494,1.6588,1.6958,1.7052,1.6878,1.7052,1.7059,1.6979,1.7073,1.7153,1.7326,1.7326,1.7326,1.7326,1.7326,1.7326,1.7326,1.7326,1.7326,1.7326,1.7326,1.7283,1.7297,1.743,1.7505,1.7469,1.7324,1.7186,1.6961,1.653,1.6324,1.6217,1.5998,1.5891,1.5891,1.5891,1.5934,1.5863,1.591,1.5891,1.5903,1.597,1.5982,1.5839,1.5215,1.5049,1.4893,1.4205,1.3102,1.209,1.1906,1.0724,0.9778,0.9549,0.9534,0.9608,0.9608,0.9639,0.9659,0.9659,0.9554,0.9486,0.9486,0.9486,0.9486,0.9486,0.9418,0.9327,0.9211,0.9205,0.9154,0.9045,0.9042,0.9042,0.9042,0.915,0.9205,0.9208,0.9327,0.9381,1.0374,0.9861,0.0,0.0,0.0,0.0,0.0,0.0,0.0,0.0,0.0,0.0,0.0,0.0,0.0,0.0,0.0,0.0,0.0,0.0,0.0,0.0,0.0,0.0,0.0,0.0,0.0,0.0,0.0,0.0,1.613,1.6224,1.6312,1.6581,1.6588,1.6676,1.6588,1.6676,1.6777,1.6979,1.7153,1.7333,1.7326,1.7326,1.7326,1.7326,1.7326,1.7326,1.7326,1.7326,1.7326,1.7326,1.7326,1.7326,1.7445,1.7457,1.7486,1.7503,1.756,1.7246,1.6736,1.673,1.6311,1.5891,1.5891,1.5891,1.5891,1.5891,1.5856,1.5769,1.5851,1.5891,1.5952,1.6193,1.6254,1.6332,1.6498,1.6558,1.6636,1.6779,1.5781,1.4564,1.3708,1.2281,1.0996,0.971,0.9602,0.9608,0.9608,0.9724,0.9805,0.9805,0.9795,0.9788,0.9788,0.9788,0.9788,0.9788,0.9534,0.9374,0.9364,0.9364,0.9361,0.9351,0.9351,0.9351,0.9351,0.9361,0.9364,0.9364,0.9374,0.9381,0.9822,0.9709,0.0,0.0,0.0,0.0,0.0,0.0,0.0,0.0,0.0,0.0,0.0,0.0,0.0,0.0,0.0,0.0,0.0,0.0,0.0,0.0,0.0,0.0,0.0,0.0,0.0,0.0,0.0,0.0,1.5927,1.6123,1.6224,1.6312,1.6494,1.6494,1.6312,1.6494,1.6588,1.6508,1.6777,1.6864,1.6864,1.6864,1.6965,1.7153,1.7153,1.7153,1.7326,1.7326,1.7326,1.7347,1.7552,1.7541,1.7471,1.768,1.7681,1.7539,1.7549,1.7371,1.6955,1.6736,1.6418,1.6111,1.5998,1.5891,1.5922,1.588,1.5993,1.615,1.6157,1.615,1.619,1.6519,1.6543,1.6616,1.6887,1.6948,1.702,1.7286,1.6272,1.5349,1.496,1.3017,1.1362,1.0898,0.9994,0.9466,0.9466,0.9513,0.9585,0.968,0.9768,0.9822,0.9822,0.9822,0.9822,0.9822,0.9717,0.9652,0.9652,0.9652,0.9652,0.9652,0.9652,0.9652,0.9652,0.9652,0.9652,0.9652,0.9652,0.9652,0.969,0.9655,0.0,0.0,0.0,0.0,0.0,0.0,0.0,0.0,0.0,0.0,0.0,0.0,0.0,0.0,0.0,0.0,0.0,0.0,0.0,0.0,0.0,0.0,0.0,0.0,0.0,0.0,0.0,0.0,0.0,1.6028,1.6123,1.6224,1.6305,1.6305,1.6123,1.6305,1.6305,1.6123,1.6305,1.6393,1.6588,1.6588,1.6777,1.6979,1.6979,1.7153,1.7326,1.7326,1.7326,1.7362,1.7691,1.7721,1.7647,1.7957,1.7853,1.7694,1.7582,1.7378,1.7173,1.6842,1.653,1.6217,1.5998,1.5891,1.5946,1.5993,1.6124,1.6318,1.6513,1.6504,1.6488,1.6803,1.6827,1.6893,1.7159,1.7213,1.7267,1.7449,1.6767,1.6048,1.5693,1.3957,1.2529,1.2181,1.0864,0.995,0.995,0.961,0.9422,0.9527,0.9669,0.9754,0.9754,0.9795,0.9822,0.9822,0.9822,0.9822,0.9822,0.9822,0.9822,0.9822,0.9822,0.9822,0.9822,0.9822,0.9822,0.9822,0.9822,0.9822,1.0086,0.0,0.0,0.0,0.0,0.0,0.0,0.0,0.0,0.0,0.0,0.0,0.0,0.0,0.0,0.0,0.0,0.0,0.0,0.0,0.0,0.0,0.0,0.0,0.0,0.0,0.0,0.0,0.0,0.0,0.0,1.5927,1.5927,1.6224,1.5933,1.5832,1.5832,1.5832,1.5832,1.5832,1.5832,1.6116,1.6581,1.6581,1.6784,1.6979,1.6979,1.7153,1.7326,1.7326,1.7326,1.7362,1.7691,1.7826,1.786,1.7964,1.7964,1.7911,1.7694,1.7378,1.7173,1.6842,1.653,1.6217,1.5998,1.5891,1.5946,1.6205,1.6255,1.6298,1.6912,1.6899,1.6773,1.7032,1.7092,1.7165,1.7424,1.7485,1.7485,1.7485,1.7485,1.7126,1.5811,1.5487,1.4856,1.3577,1.2245,1.1323,1.1323,1.0181,0.9384,0.9384,0.952,0.9612,0.9612,0.9741,0.9822,0.9822,0.9822,0.9822,0.9822,0.9822,0.9822,0.9822,0.9822,0.9822,0.9822,0.9822,0.9822,0.9822,0.9822,0.9822,1.0516,0.0,0.0,0.0,0.0,0.0,0.0,0.0,0.0,0.0,0.0,0.0,0.0,0.0,0.0,0.0,0.0,0.0,0.0,0.0,0.0,0.0,0.0,0.0,0.0,0.0,0.0,0.0,0.0,0.0,0.0,1.5832,1.5832,1.5927,1.5832,1.5832,1.5832,1.5832,1.5832,1.5832,1.5832,1.5927,1.6015,1.6015,1.6305,1.6683,1.6683,1.6965,1.7326,1.7326,1.7326,1.7384,1.794,1.7923,1.7675,1.8093,1.8032,1.7694,1.7582,1.7378,1.7173,1.6842,1.653,1.6217,1.5998,1.5891,1.5988,1.6214,1.6404,1.6577,1.6907,1.7199,1.7267,1.7346,1.7364,1.7388,1.7467,1.7485,1.7485,1.7485,1.7485,1.7361,1.7003,1.6076,1.5203,1.474,1.3504,1.2342,1.1434,1.0285,0.954,0.954,0.9673,0.9758,0.9758,0.9795,0.9822,0.9822,0.9822,0.9822,0.9822,0.9822,0.9822,0.9822,0.9822,0.9822,0.9822,0.9822,0.9822,0.9822,0.9822,0.9822,0.0,0.0,0.0,0.0,0.0,0.0,0.0,0.0,0.0,0.0,0.0,0.0,0.0,0.0,0.0,0.0,0.0,0.0,0.0,0.0,0.0,0.0,0.0,0.0,0.0,0.0,0.0,0.0,0.0,0.0,0.0,1.5832,1.5832,1.5832,1.5832,1.5832,1.5832,1.5832,1.5832,1.5832,1.5832,1.5832,1.5832,1.5927,1.6211,1.6588,1.677,1.7052,1.7326,1.7326,1.7326,1.7399,1.7952,1.791,1.7682,1.8102,1.801,1.7694,1.7687,1.7483,1.7279,1.6955,1.6743,1.6643,1.6311,1.6105,1.6107,1.642,1.6582,1.6821,1.7119,1.7367,1.7485,1.7485,1.7485,1.7485,1.7485,1.7485,1.7485,1.7485,1.7485,1.7485,1.7485,1.6751,1.6175,1.6175,1.4562,1.3007,1.2126,1.0616,0.9752,1.0215,0.9884,0.9737,0.9737,0.9788,0.9822,0.9822,0.9822,0.9822,0.9822,0.9822,0.9822,0.9822,0.9822,0.9822,0.9822,0.9822,0.9822,0.9822,0.9822,0.9822,0.0,0.0,0.0,0.0,0.0,0.0,0.0,0.0,0.0,0.0,0.0,0.0,0.0,0.0,0.0,0.0,0.0,0.0,0.0,0.0,0.0,0.0,0.0,0.0,0.0,0.0,0.0,0.0,0.0,0.0,0.0,1.5825,1.5832,1.5832,1.5832,1.5832,1.5832,1.5832,1.5832,0.0,1.5832,1.5832,1.5832,1.6028,1.6312,1.6588,1.7145,1.7326,1.7326,1.7326,1.7326,1.7297,1.7764,1.7917,1.7896,1.8005,1.8016,1.7911,1.7687,1.7582,1.7582,1.7279,1.7179,1.7173,1.6842,1.653,1.6435,1.6981,1.6918,1.6934,1.7462,1.7602,1.7485,1.7485,1.7485,1.7485,1.7485,1.7485,1.7485,1.7485,1.7485,1.7485,1.7485,1.7485,1.7491,1.7515,1.5296,1.3572,1.3509,1.1305,1.0262,1.1281,1.0502,0.9761,0.9629,0.9747,0.9822,0.9822,0.9822,0.9822,0.9822,0.9822,0.9822,0.9822,0.9822,0.9822,0.9822,0.9822,0.9822,0.9822,0.9822,0.9822,0.0,0.0,0.0,0.0,0.0,0.0,0.0,0.0,0.0,0.0,0.0,0.0,0.0,0.0,0.0,0.0,0.0,0.0,0.0,0.0,0.0,0.0,0.0,0.0,0.0,0.0,0.0,0.0,0.0,0.0,1.554,1.573,1.5832,1.5832,1.5832,1.5927,1.6123,1.5927,1.5927,0.0,1.5927,1.5832,1.5832,1.5832,1.6116,1.6588,1.7145,1.7326,1.7326,1.7326,1.7326,1.7297,1.7764,1.7811,1.7582,1.7895,1.7905,1.7687,1.7582,1.7582,1.7582,1.7279,1.7179,1.7173,1.6842,1.6624,1.675,1.7319,1.7483,1.7497,1.7824,1.7849,1.7843,1.7602,1.7485,1.7485,1.7485,1.7485,1.7485,1.7485,1.7485,1.7485,1.7485,1.7485,1.7433,1.741,1.6292,1.5455,1.5349,1.4255,1.297,1.1975,1.1756,1.1119,0.9906,0.9802,0.9822,0.9822,0.9822,0.9822,0.9822,0.9822,0.9822,0.9822,0.9822,0.9822,0.9822,0.9822,0.9822,0.9822,0.9822,0.9822,0.0,0.0,0.0,0.0,0.0,0.0,0.0,0.0,0.0,0.0,0.0,0.0,0.0,0.0,0.0,0.0,0.0,0.0,0.0,0.0,0.0,0.0,0.0,0.0,0.0,0.0,0.0,0.0,0.0,1.5356,1.5445,1.5635,1.573,1.5832,1.5832,1.5832,1.6028,1.5832,1.5927,1.6224,1.6028,1.6021,1.6211,1.6211,1.64,1.6784,1.7145,1.7326,1.7326,1.7326,1.7326,1.7297,1.7561,1.7612,1.7482,1.768,1.7694,1.7582,1.7582,1.7582,1.7582,1.7483,1.749,1.749,1.7265,1.716,1.7171,1.7644,1.77,1.7728,1.8056,1.8194,1.8194,1.7954,1.7719,1.7485,1.7485,1.7485,1.7485,1.7485,1.7485,1.7485,1.7485,1.7469,1.7488,1.7385,1.6398,1.5899,1.6769,1.5281,1.4241,1.4128,1.2921,1.1729,1.0908,1.0225,0.9822,0.9822,0.9822,0.9822,0.9822,0.9822,0.9822,0.9822,0.9822,0.9822,0.9822,0.9822,0.9822,0.9822,0.9822,0.9822,0.0,0.0,0.0,0.0,0.0,0.0,0.0,0.0,0.0,0.0,0.0,0.0,0.0,0.0,0.0,0.0,0.0,0.0,0.0,0.0,0.0,0.0,0.0,0.0,0.0,0.0,0.0,0.0,0.0,1.5172,1.5452,1.5445,1.5635,1.5825,1.5832,1.5832,1.5832,1.5737,1.5927,1.613,1.613,1.6312,1.6494,1.6588,1.6777,1.6979,1.7239,1.7326,1.7326,1.7326,1.7326,1.7297,1.7456,1.7505,1.7475,1.7569,1.7582,1.7582,1.7582,1.7582,1.7575,1.7522,1.7725,1.783,1.7613,1.7508,1.7642,1.7961,1.7922,1.7834,1.8391,1.8538,1.8415,1.8415,1.7954,1.7602,1.7602,1.7602,1.7602,1.7485,1.7521,1.7445,1.7499,1.7446,1.7363,1.7387,1.6456,1.6231,1.7535,1.6029,1.5272,1.6772,1.4323,1.2465,1.2184,1.0703,0.99,0.99,0.99,0.99,0.99,0.99,0.9886,0.9863,0.9836,0.9822,0.9822,0.9822,0.9822,0.9822,0.9822,0.9822,0.0,0.0,0.0,0.0,0.0,0.0,0.0,0.0,0.0,0.0,0.0,0.0,0.0,0.0,0.0,0.0,0.0,0.0,0.0,0.0,0.0,0.0,0.0,0.0,0.0,0.0,0.0,0.0,1.4592,1.4885,1.5178,1.5356,1.5635,1.5825,1.5832,1.5832,1.5832,1.5635,1.5635,1.5832,1.5832,1.6028,1.6218,1.6494,1.6777,1.6979,1.7239,1.7326,1.7326,1.7326,1.7326,1.7297,1.7456,1.7505,1.7475,1.7569,1.7582,1.7582,1.7582,1.7582,1.7542,1.7288,1.7311,1.7311,1.7311,1.7208,1.7388,1.8243,1.838,1.8394,1.8731,1.8881,1.8765,1.8415,1.8194,1.7966,1.7966,1.7966,1.7849,1.7602,1.7434,1.7426,1.7288,1.7351,1.7302,1.719,1.7366,1.7491,1.7134,1.7808,1.8448,1.8709,1.6165,1.3803,1.2499,1.1099,1.0219,1.0219,1.0219,1.0219,1.0219,1.0219,1.0158,1.0022,0.9886,0.9822,0.9822,0.9822,0.9822,0.9822,0.9822,0.9822,0.0,0.0,0.0,0.0,0.0,0.0,0.0,0.0,0.0,0.0,0.0,0.0,0.0,0.0,0.0,0.0,0.0,0.0,0.0,0.0,0.0,0.0,0.0,0.0,0.0,0.0,0.0,0.0,1.4394,1.4688,1.5083,1.5172,1.5458,1.5825,1.5832,1.5737,1.5635,1.554,1.5635,1.5832,1.5913,1.6204,1.6697,1.6784,1.6885,1.6979,1.7239,1.7326,1.7326,1.7326,1.7326,1.7297,1.7456,1.7505,1.7475,1.7569,1.7582,1.7582,1.7582,1.7582,1.7535,1.7241,1.7257,1.736,1.7257,1.7257,1.7549,1.8346,1.849,1.8624,1.909,1.912,1.9127,1.901,1.8777,1.8421,1.8077,1.7843,1.7651,1.744,1.7443,1.7294,1.7285,1.7298,1.7144,1.7166,1.7328,1.7363,1.7372,1.8039,1.8682,1.9072,1.7163,1.5321,1.3825,1.2333,1.1154,1.0407,1.028,1.028,1.028,1.028,1.0249,1.0181,1.0025,0.9907,0.9822,0.9907,0.9947,0.9951,1.0039,1.008,0.0,0.0,0.0,0.0,0.0,0.0,0.0,0.0,0.0,0.0,0.0,0.0,0.0,0.0,0.0,0.0,0.0,0.0,0.0,0.0,0.0,0.0,0.0,0.0,0.0,0.0,0.0,0.0,1.4394,1.4592,1.5083,1.5178,1.5363,1.5832,1.5737,1.5642,1.5356,1.5356,1.535,1.5547,1.5818,1.6298,1.6784,1.6878,1.6972,1.7066,1.7239,1.7326,1.7326,1.7326,1.7326,1.7297,1.7456,1.7505,1.7475,1.7569,1.7582,1.7582,1.7582,1.7687,1.7627,1.7257,1.7299,1.7558,1.7163,1.7299,1.766,1.8353,1.849,1.8624,1.9212,1.9366,1.9366,1.9243,1.894,1.8634,1.8171,1.7699,1.7446,1.7294,1.7268,1.7292,1.723,1.7141,1.7114,1.718,1.7112,1.7136,1.7647,1.791,1.8425,1.9072,1.7735,1.6472,1.5312,1.3888,1.2414,1.1027,1.0902,1.0774,1.0392,1.0392,1.0375,1.0334,1.0222,1.0086,0.9937,1.0053,1.0107,1.011,1.0226,1.028,0.0,0.0,0.0,0.0,0.0,0.0,0.0,0.0,0.0,0.0,0.0,0.0,0.0,0.0,0.0,0.0,0.0,0.0,0.0,0.0,0.0,0.0,0.0,0.0,0.0,0.0,0.0,0.0,1.4496,1.479,1.5083,1.5356,1.5547,1.5825,1.5635,1.5356,1.5083,1.4885,1.4783,1.4783,1.5255,1.5818,1.6285,1.6487,1.6864,1.7232,1.7326,1.7326,1.7326,1.7326,1.7326,1.7297,1.7456,1.7505,1.7475,1.7569,1.7582,1.7582,1.7582,1.7799,1.7816,1.7022,1.713,1.7517,1.6914,1.6927,1.7439,1.8237,1.849,1.8624,1.9212,1.9366,1.9366,1.8997,1.8618,1.8218,1.7847,1.7613,1.7294,1.7166,1.7146,1.7097,1.706,1.698,1.6985,1.698,1.699,1.726,1.7905,1.8168,1.8553,1.9072,1.7882,1.6958,1.6829,1.5529,1.4227,1.2787,1.266,1.2006,1.0697,1.0697,1.0629,1.0483,1.0473,1.0399,1.0256,1.0263,1.0266,1.0266,1.0276,1.028,0.0,0.0,0.0,0.0,0.0,0.0,0.0,1.861,1.9269,2.0022,2.0159,0.0,0.0,0.0,0.0,0.0,0.0,0.0,0.0,0.0,0.0,0.0,0.0,0.0,0.0,0.0,0.0,0.0,0.0,1.4592,1.479,1.5077,1.5363,1.5635,1.554,1.5261,1.4885,1.4592,1.4496,1.4688,1.4879,1.5445,1.619,1.6292,1.6669,1.7326,1.7326,1.7326,1.7326,1.7326,1.7326,1.7297,1.7456,1.7505,1.7475,1.7569,1.7582,1.7582,1.7799,1.7911,1.7948,1.7633,1.7578,1.7551,1.734,1.7272,1.7335,1.8237,1.849,1.8624,1.9212,1.9366,1.9366,1.8997,1.8725,1.85,1.82,1.7661,1.7213,1.7141,1.7041,1.7038,1.699,1.7001,1.7001,1.7001,1.7001,1.726,1.8168,1.8168,1.8425,1.9072,1.8682,1.8022,1.7109,1.6592,1.5684,1.4254,1.3341,1.2553,1.2029,1.1247,1.0694,1.0639,1.0636,1.0521,1.028,1.0371,1.0415,1.0419,1.0517,1.0561,0.0,0.0,0.0,0.0,0.0,0.0,0.0,0.0,1.8879,1.9895,2.0105,2.0304,2.0829,0.0,0.0,0.0,0.0,0.0,0.0,0.0,0.0,0.0,0.0,0.0,0.0,0.0,0.0,0.0,0.0,0.0,1.4783,1.5172,1.5363,1.554,1.554,1.5261,1.4694,1.449,1.449,1.4688,1.479,1.5261,1.6103,1.6292,1.6676,1.7239,1.7239,1.7326,1.7326,1.7239,1.7239,1.7297,1.7358,1.7406,1.7475,1.7569,1.7694,1.7799,1.7911,1.8128,1.829,1.8072,1.7942,1.7805,1.7606,1.7434,1.7462,1.8263,1.849,1.8624,1.9212,1.9366,1.9146,1.8881,1.8672,1.8519,1.8323,1.7802,1.732,1.7278,1.7101,1.7001,1.7001,1.7001,1.7001,1.7001,1.713,1.7518,1.8168,1.8168,1.8431,1.9078,1.9078,1.8682,1.7759,1.7759,1.7109,1.5684,1.425,1.3337,1.2816,1.1508,1.0721,1.0721,1.0721,1.0622,1.0429,1.0524,1.0568,1.0571,1.0673,1.0721,0.0,0.0,0.0,0.0,0.0,0.0,0.0,0.0,1.8187,1.9454,2.0106,2.0321,1.9965,1.9894,0.0,0.0,0.0,0.0,0.0,0.0,0.0,0.0,0.0,0.0,0.0,0.0,0.0,0.0,1.4644,1.5052,1.507,1.5547,1.573,1.554,1.554,1.5261,1.4694,1.4694,1.4694,1.4694,1.4987,1.5363,1.5825,1.6393,1.6683,1.6979,1.7239,1.7333,1.7239,1.7066,1.716,1.7297,1.7176,1.7313,1.7475,1.7569,1.7799,1.8016,1.8016,1.8443,1.8819,1.8189,1.8184,1.8262,1.7778,1.7576,1.7709,1.8317,1.849,1.8624,1.9212,1.9127,1.8953,1.8871,1.8589,1.8305,1.8203,1.8018,1.7731,1.7616,1.7229,1.7001,1.7001,1.7007,1.7001,1.7001,1.7647,1.8033,1.8039,1.8308,1.8699,1.9072,1.9078,1.9078,1.9078,1.9078,1.8547,1.7109,1.5684,1.4385,1.2947,1.1508,1.0721,1.0721,1.0721,1.0721,1.0721,1.0721,1.0721,1.0721,1.0721,1.0721,0.9446,0.0,0.0,0.0,0.0,0.0,0.0,0.0,1.6503,1.8015,1.8825,1.9518,2.0187,2.0582,2.0839,0.0,0.0,0.0,0.0,0.0,0.0,0.0,0.0,0.0,0.0,0.0,0.0,0.0,1.4657,1.4778,1.507,1.5458,1.554,1.554,1.554,1.5356,1.4987,1.4987,1.4987,1.4987,1.5083,1.5363,1.5825,1.6103,1.6487,1.6683,1.6972,1.6965,1.6864,1.7052,1.7239,1.7297,1.7358,1.7406,1.7475,1.7569,1.7799,1.8016,1.822,1.8541,1.8855,1.8962,1.8672,1.8408,1.822,1.7941,1.7709,1.8317,1.849,1.8624,1.9212,1.9366,1.9263,1.9226,1.9128,1.9037,1.9116,1.8493,1.7984,1.7616,1.7229,1.7001,1.7001,1.7265,1.7523,1.7647,1.8039,1.8302,1.8437,1.8571,1.8699,1.9072,1.9078,1.9078,1.9078,1.9078,1.8944,1.8547,1.7243,1.5814,1.4385,1.2947,1.1769,1.0721,1.0721,1.0721,1.0721,1.0721,1.0721,1.0721,1.0721,1.0721,0.0,0.0,0.0,0.0,0.0,0.0,1.3451,1.435,0.0,0.0,1.7755,1.8496,1.9489,2.0042,2.0416,2.0625,0.0,0.0,0.0,0.0,0.0,0.0,0.0,0.0,0.0,1.4333,1.4186,1.4372,1.4598,1.4935,1.5337,1.5547,1.5635,1.5635,1.5635,1.5547,1.5267,1.5267,1.5267,1.5267,1.5267,1.5452,1.5832,1.6109,1.6305,1.6407,1.669,1.6777,1.6581,1.6864,1.7052,1.7218,1.7267,1.7406,1.7482,1.768,1.7905,1.822,1.8541,1.8862,1.9071,1.9279,1.8848,1.8422,1.8422,1.8003,1.7682,1.817,1.8484,1.8778,1.9245,1.9366,1.9366,1.9366,1.9366,1.9366,1.9366,1.889,1.8313,1.796,1.7412,1.7001,1.7265,1.7523,1.7781,1.8168,1.8425,1.8693,1.8571,1.8699,1.8822,1.9078,1.9078,1.9078,1.9078,1.9078,1.9078,1.9078,1.7759,1.6592,1.5814,1.3857,1.2425,1.1637,1.0982,1.0721,1.0721,1.0721,1.0721,1.0721,1.0721,1.0721,0.0,0.0,0.0,0.0,0.0,0.0,1.3771,1.4074,1.4388,0.0,1.6709,1.7372,1.8252,1.8706,1.9073,1.9517,1.9885,0.0,0.0,0.0,0.0,0.0,0.0,0.0,1.5477,1.4741,1.4202,1.4141,1.4728,1.5237,1.5657,1.5812,1.5832,1.5832,1.5832,1.573,1.554,1.554,1.554,1.554,1.554,1.5635,1.5832,1.6123,1.6218,1.6123,1.64,1.6494,1.6487,1.6494,1.669,1.6949,1.7078,1.7313,1.7582,1.7895,1.822,1.8534,1.8764,1.9078,1.9279,1.9279,1.8848,1.8422,1.8422,1.8003,1.7655,1.7996,1.8497,1.8991,1.9292,1.9366,1.9366,1.9366,1.9366,1.9366,1.9366,1.9116,1.8665,1.8313,1.7628,1.72,1.7641,1.7759,1.8005,1.8425,1.8816,1.895,1.8699,1.895,1.9078,1.9078,1.9078,1.9078,1.9078,1.9078,1.9078,1.9078,1.7893,1.7109,1.698,1.4637,1.3079,1.2816,1.1376,1.0721,1.0721,1.0721,1.0721,1.0721,1.0721,1.0721,0.0,0.0,1.1612,0.0,0.0,0.0,1.155,1.2278,1.3382,0.0,1.482,1.5604,1.6757,1.7526,1.7945,1.7875,1.8775,1.9687,0.0,0.0,0.0,0.0,0.0,0.0,1.5553,1.5235,1.4944,1.4496,1.501,1.5272,1.5285,1.5604,1.5832,1.5832,1.5832,1.5737,1.573,1.573,1.573,1.573,1.573,1.573,1.5832,1.6123,1.6123,1.5927,1.6123,1.6123,1.5927,1.6218,1.6407,1.6746,1.7267,1.7406,1.7582,1.8095,1.8541,1.8764,1.8869,1.9078,1.9279,1.9279,1.8848,1.8422,1.8422,1.8003,1.7695,1.825,1.8657,1.8991,1.9292,1.9366,1.9366,1.9366,1.9366,1.9366,1.9366,1.9116,1.8728,1.8665,1.8337,1.7947,1.7708,1.8123,1.8572,1.8914,1.9078,1.9078,1.895,1.9078,1.9078,1.9078,1.9078,1.9078,1.9078,1.9078,1.9078,1.9078,1.881,1.8156,1.7109,1.6457,1.5159,1.2816,1.1376,1.0721,1.0721,1.0721,1.0721,1.0721,1.0721,1.0721,0.0,0.0,1.2253,1.1947,0.0,0.0,0.0,0.0,1.2669,1.3621,1.3791,1.419,1.5528,1.6085,1.6517,1.6976,1.776,1.8497,1.8896,0.0,0.0,0.0,0.0,0.0,1.6756,1.5884,1.5113,1.4583,1.4701,1.4903,1.5193,1.5345,1.5584,1.5825,1.5832,1.5832,1.5832,1.5832,1.5832,1.5832,1.5832,1.5832,1.5832,1.5933,1.5927,1.5832,1.5927,1.5927,1.5832,1.5927,1.6205,1.6477,1.7035,1.7406,1.7575,1.8198,1.8646,1.8869,1.9078,1.9175,1.9279,1.9175,1.875,1.8422,1.822,1.7898,1.7709,1.8317,1.8597,1.8811,1.9252,1.9366,1.9366,1.9366,1.9366,1.9366,1.9366,1.9245,1.9103,1.9103,1.8989,1.8657,1.8328,1.8434,1.8814,1.9083,1.912,1.9048,1.906,1.9078,1.9078,1.9078,1.9078,1.9078,1.9078,1.9078,1.9078,1.9078,1.9078,1.881,1.8028,1.7367,1.5679,1.2816,1.2165,1.1376,1.0721,1.0721,1.0721,1.0721,1.0721,1.0721,0.0,0.0,0.0,0.0,0.0,1.2599,0.0,0.0,0.0,0.0,0.0,0.0,0.0,0.0,0.0,0.0,0.0,0.0,0.0,1.8291,0.0,0.0,0.0,0.0,0.0,1.6194,1.4892,1.4402,1.4157,1.4287,1.5008,1.5147,1.5318,1.5644,1.5704,1.5832,1.5832,1.5832,1.5832,1.5832,1.5832,1.5832,1.5832,1.5832,1.5832,1.5832,1.5832,1.5832,1.5832,1.5832,1.6005,1.6299,1.6898,1.7348,1.7659,1.8219,1.875,1.8974,1.9175,1.9279,1.9279,1.8974,1.8646,1.8318,1.801,1.7799,1.7709,1.8317,1.849,1.8624,1.9212,1.9366,1.9379,1.9432,1.9452,1.9466,1.9519,1.9533,1.9519,1.9459,1.9452,1.9364,1.8859,1.8813,1.89,1.9044,1.9088,1.9062,1.9091,1.9121,1.9145,1.9072,1.9078,1.9078,1.9078,1.9078,1.9078,1.9078,1.9078,1.9078,1.9078,1.7765,1.5809,1.321,1.2947,1.2161,1.0721,1.0721,1.0721,1.0721,1.0721,1.0721,0.0,0.0,0.0,0.0,1.3827,0.0,0.0,0.0,0.0,0.0,0.0,0.0,0.0,0.0,0.0,0.0,0.0,0.0,1.5158,1.5949,1.6777,0.0,0.0,0.0,0.0,1.5347,1.4102,1.3808,1.3484,1.3474,1.395,1.4838,1.5319,1.5166,1.5597,1.5832,1.5832,1.5832,1.5832,1.5832,1.5832,1.5832,1.5832,1.5832,1.5832,1.5832,1.5832,1.5832,1.5832,1.5832,1.6005,1.6299,1.6898,1.7479,1.8062,1.8629,1.8966,1.9279,1.9279,1.9279,1.9279,1.8974,1.8548,1.8016,1.7694,1.7582,1.7709,1.8317,1.849,1.8624,1.9212,1.9366,1.9432,1.9686,1.9746,1.982,2.008,2.0134,2.006,1.98,1.9746,1.9654,1.9244,1.9257,1.9228,1.9126,1.917,1.9148,1.9056,1.9086,1.9059,1.9048,1.9078,1.9078,1.9078,1.9078,1.9078,1.9078,1.9078,1.9078,1.9078,1.7765,1.6203,1.4646,1.3473,1.2165,1.0721,1.0721,1.0721,1.0721,1.0721,1.0721,0.0,0.0,0.0,0.0,0.0,0.0,1.2613,0.0,1.2435,0.0,0.0,0.0,0.0,0.0,0.0,0.0,0.0,0.0,0.0,0.0,1.5303,0.0,0.0,0.0,0.0,0.0,0.0,0.0,1.3553,1.34,1.3696,1.4209,1.4676,1.5107,1.5325,1.5564,1.5832,1.5832,1.5832,1.5832,1.5832,1.5832,1.5832,1.5832,1.5832,1.5832,1.5832,1.5927,1.6028,1.6028,1.6305,1.6745,1.6973,1.7296,1.7542,1.7963,1.8384,1.8796,1.8796,1.9015,1.9168,1.875,1.822,1.7799,1.7582,1.7582,1.7709,1.8317,1.849,1.8624,1.9212,1.9366,1.9439,1.9733,1.98,1.988,2.0174,2.01,1.9947,1.9826,1.9659,1.9546,1.9435,1.9318,1.9299,1.9215,1.926,1.9235,1.9136,1.9173,1.9217,1.9212,1.9117,1.9089,1.9089,1.9109,1.9078,1.9078,1.9078,1.9078,1.9078,1.7765,1.6333,1.4907,1.3473,1.2161,1.0721,1.0721,1.0721,1.0721,1.0721,1.0721,1.4982,0.0,0.0,0.0,0.0,0.0,0.0,0.0,0.0,0.0,0.0,0.0,0.0,0.0,0.0,0.0,0.0,0.0,0.0,0.0,0.0,0.0,0.0,0.0,0.0,0.0,0.0,0.0,0.0,1.3051,1.3561,1.3716,1.4096,1.4682,1.4943,1.5219,1.5611,1.5697,1.5832,1.5832,1.5832,1.5832,1.5832,1.5832,1.5832,1.5832,1.5832,1.5927,1.6231,1.6218,1.6504,1.7004,1.6987,1.6966,1.6946,1.7435,1.783,1.8167,1.8167,1.8468,1.874,1.8401,1.801,1.7582,1.7582,1.7582,1.7709,1.8317,1.849,1.8624,1.9212,1.9366,1.9459,1.9833,1.986,1.99,2.0274,2.0127,1.9893,1.9813,1.9633,1.9459,1.9379,1.9366,1.9322,1.9299,1.9332,1.9311,1.9223,1.9255,1.9319,1.9472,1.9299,1.9193,1.9393,1.9212,1.9078,1.9078,1.9078,1.9078,1.9078,1.7765,1.6333,1.4907,1.3473,1.2161,1.0721,1.0721,1.0721,1.0721,1.0721,1.0721,0.0,0.0,0.0,1.4567,0.0,0.0,0.0,0.0,1.3968,0.0,0.0,0.0,0.0,0.0,0.0,0.0,0.0,0.0,0.0,0.0,0.0,0.0,0.0,0.0,0.0,0.0,0.0,0.0,0.0,0.0,1.3235,1.3593,1.3709,1.3824,1.4637,1.512,1.5133,1.5591,1.5832,1.5832,1.5832,1.5832,1.5832,1.5832,1.5832,1.5832,1.5832,1.5927,1.6245,1.6242,1.6468,1.6717,1.6699,1.6533,1.6458,1.7252,1.759,1.7633,1.7633,1.7636,1.7736,1.7928,1.7799,1.7582,1.7582,1.7582,1.7709,1.8317,1.849,1.8624,1.9212,1.9366,1.9512,2.0087,2.0007,1.996,2.0541,2.0428,2.0134,1.9853,1.9793,1.9693,1.9412,1.9366,1.9372,1.9379,1.9379,1.9369,1.9305,1.9344,1.9559,2.0113,1.9543,1.9393,2.0043,1.9444,1.9078,1.9078,1.9078,1.9078,1.9078,1.7765,1.6333,1.4907,1.3473,1.2161,1.0721,1.0721,1.0721,1.0721,1.0721,1.0721,0.0,0.0,1.8252,1.6195,0.0,0.0,0.0,0.0,0.0,0.0,0.0,0.0,0.0,0.0,0.0,0.0,0.0,0.0,0.0,0.0,0.0,0.0,0.0,0.0,0.0,0.0,0.0,0.0,1.2058,0.0,0.0,1.3054,1.3417,1.4333,1.4456,1.4917,1.5584,1.5684,1.5832,1.5832,1.5832,1.5832,1.5832,1.5832,1.5832,1.5832,1.6028,1.6218,1.6522,1.6725,1.685,1.6884,1.6997,1.6731,1.6299,1.6599,1.681,1.7078,1.768,1.7789,1.7627,1.7921,1.7799,1.7582,1.7582,1.7722,1.7976,1.8377,1.8631,1.8865,1.9265,1.9366,1.9459,1.9602,1.9496,1.9535,2.0064,1.9784,1.9668,1.9813,1.9646,1.9486,1.9386,1.9366,1.9366,1.9366,1.9366,1.9399,1.9382,1.9395,1.9548,2.0174,2.0018,1.9879,2.0171,1.9478,1.9078,1.9078,1.9078,1.9078,1.9078,1.7765,1.6333,1.4907,1.3473,1.2161,1.0721,1.0721,1.0721,1.0721,1.0721,1.0721,1.8311,1.875,0.0,1.7156,1.6761,0.0,1.463,0.0,0.0,0.0,0.0,0.0,0.0,0.0,0.0,0.0,0.0,0.0,0.0,0.0,0.0,0.0,0.0,0.0,0.0,0.0,1.2041,1.2409,0.0,0.0,0.0,0.0,1.3085,1.4177,1.4219,1.4728,1.5577,1.5684,1.5832,1.5832,1.5725,1.5671,1.5671,1.5671,1.5678,1.5779,1.6075,1.6374,1.6763,1.687,1.6856,1.687,1.6881,1.6643,1.6273,1.6273,1.6377,1.6647,1.733,1.7469,1.7517,1.7809,1.7694,1.7582,1.7582,1.7802,1.811,1.8404,1.8698,1.8991,1.9292,1.9366,1.9316,1.9483,1.9345,1.9233,1.966,1.9608,1.9397,1.9646,1.9492,1.9366,1.9366,1.9366,1.9366,1.9366,1.9366,1.9366,1.9366,1.9366,1.9753,2.0502,2.0361,2.015,2.0171,1.9484,1.9078,1.9078,1.9078,1.9078,1.9078,1.7765,1.6586,1.5684,1.4254,1.2816,1.1508,1.1508,1.1244,1.0721,1.0721,1.0721]}]]